Darstellungsparameter: Aktuell verwendete Einstellungen:
Skalierung der Graphiken ... ?
xyx+y,   Skalierungsfaktor:      Skalierung: Modus: x, Faktor: 1
Darstellungszeitraum ... ?
Vom - - bis: - -   Zeitraum: 30.12.2010 - 19.01.2011
Min/Max/Avg-Anzeige ... ?
Zeige MMA aktuell
Zeige MMA Monat
Zeige MMA alles
Zeige --A aktuell
Zeige --A Monat
Zeige --A alles
Keine MMA-Anzeige
MMA:
Average (ber die Originaldaten)
MMA-Basis: 30.12.2010 - 19.01.2011
Quicknavigation für Darstellung... ?
Tage:      1T, 2T, 3T, 5T -1T -2T -3T -5T +1T +2T +3T +5T
Wochen: 1W, 2W, 3W -1W -2W -3W +1W +2W +3W
Monate: 1M, 3M, 6M -1M -3M -6M +1M +3M +6M
Jahre:    1J, 3J, 5J, 10J -1J -3J -5J -10J +1J +3J +5J +10J
Nutze für die Darstellung ... ?
Originaldaten oder Mittelwerte auf ...
Stundenbasis Tagesbasis Wochenbasis
Monatsbasis Jahresbasis      Datenbasis: Original-Daten
Darstellen als:
Statistik (Auto) Statistik J:M      Darstellung:
Zur Graphik,    zurück zur Übersicht aller Sensoren.
 
Tabellarische Datenbersicht: ?
 
Sensor: Nr:Datum:Temp:Abs-Feuchte:Windchill:Wind:
Aussen-T/F 1 30-12-2010 00:12:59 -0.9 C 3.78 g/m*3 -0.9 C 0 km/h
2 30-12-2010 00:24:59 -0.9 C 3.82 g/m*3 -0.9 C 0 km/h
3 30-12-2010 00:36:59 -0.9 C 3.82 g/m*3 -0.9 C 0 km/h
4 30-12-2010 00:48:59 -1 C 3.75 g/m*3 -1 C 0 km/h
5 30-12-2010 01:00:59 -1.1 C 3.73 g/m*3 -1.1 C 0 km/h
6 30-12-2010 01:12:59 -1.4 C 3.65 g/m*3 -1.4 C 0 km/h
7 30-12-2010 01:24:59 -1.3 C 3.72 g/m*3 -1.3 C 0 km/h
8 30-12-2010 01:36:59 -1.3 C 3.72 g/m*3 -1.3 C 0 km/h
9 30-12-2010 01:49:00 -1.5 C 3.67 g/m*3 -1.5 C 0 km/h
10 30-12-2010 02:01:00 -1.5 C 3.71 g/m*3 -1.5 C 0 km/h
11 30-12-2010 02:13:00 -1.6 C 3.68 g/m*3 -1.6 C 0 km/h
12 30-12-2010 02:25:00 -1.5 C 3.75 g/m*3 -1.5 C 0 km/h
13 30-12-2010 02:37:00 -1.4 C 3.78 g/m*3 -1.4 C 0 km/h
14 30-12-2010 02:49:00 -1.3 C 3.81 g/m*3 -1.3 C 0 km/h
15 30-12-2010 03:01:00 -1.2 C 3.83 g/m*3 -1.2 C 0 km/h
16 30-12-2010 03:13:00 -1.2 C 3.83 g/m*3 -1.2 C 0 km/h
17 30-12-2010 03:25:00 -1.1 C 3.86 g/m*3 -1.1 C 0 km/h
18 30-12-2010 03:37:00 -1.1 C 3.86 g/m*3 -1.1 C 0 km/h
19 30-12-2010 03:49:00 -1.1 C 3.86 g/m*3 -1.1 C 0 km/h
20 30-12-2010 04:01:00 -1.1 C 3.82 g/m*3 -1.1 C 0 km/h
21 30-12-2010 04:13:00 -1.1 C 3.82 g/m*3 -1.1 C 0 km/h
22 30-12-2010 04:25:00 -1.1 C 3.77 g/m*3 -1.1 C 0 km/h
23 30-12-2010 04:37:00 -1.2 C 3.7 g/m*3 -1.2 C 0 km/h
24 30-12-2010 04:49:00 -1.2 C 3.7 g/m*3 -1.2 C 0 km/h
25 30-12-2010 05:01:00 -1.2 C 3.7 g/m*3 -1.2 C 0 km/h
Sensor: Nr:Datum:Temp:Abs-Feuchte:Windchill:Wind:
Aussen-T/F 26 30-12-2010 05:13:00 -1.2 C 3.66 g/m*3 -1.2 C 0 km/h
27 30-12-2010 05:25:00 -1.2 C 3.61 g/m*3 -1.2 C 0 km/h
28 30-12-2010 05:37:00 -1.2 C 3.61 g/m*3 -1.2 C 0 km/h
29 30-12-2010 05:49:01 -9.3 C 2.01 g/m*3 -9.3 C 0 km/h
30 30-12-2010 06:01:01 -1.2 C 3.57 g/m*3 -1.2 C 0 km/h
31 30-12-2010 06:13:01 -1.2 C 3.57 g/m*3 -1.2 C 0 km/h
32 30-12-2010 06:25:01 -1.2 C 3.52 g/m*3 -1.2 C 0 km/h
33 30-12-2010 06:37:01 -1.3 C 3.5 g/m*3 -1.3 C 0 km/h
34 30-12-2010 06:49:01 -1.3 C 3.5 g/m*3 -1.3 C 0 km/h
35 30-12-2010 07:01:01 -1.3 C 3.45 g/m*3 -1.3 C 0 km/h
36 30-12-2010 07:13:01 -1.3 C 3.45 g/m*3 -1.3 C 0 km/h
37 30-12-2010 07:25:01 -1.3 C 3.45 g/m*3 -1.3 C 0 km/h
38 30-12-2010 07:37:01 -1.4 C 3.43 g/m*3 -1.4 C 0 km/h
39 30-12-2010 07:49:01 -1.4 C 3.43 g/m*3 -1.4 C 0 km/h
40 30-12-2010 08:01:01 -1.4 C 3.43 g/m*3 -1.4 C 0 km/h
41 30-12-2010 08:13:01 -1.4 C 3.43 g/m*3 -1.4 C 0 km/h
42 30-12-2010 08:25:01 -1.4 C 3.43 g/m*3 -1.4 C 0 km/h
43 30-12-2010 08:37:01 -1.4 C 3.47 g/m*3 -1.4 C 0 km/h
44 30-12-2010 08:49:01 -1.4 C 3.47 g/m*3 -1.4 C 0 km/h
45 30-12-2010 09:01:01 -1.3 C 3.45 g/m*3 -1.3 C 0 km/h
46 30-12-2010 09:13:01 -1.2 C 3.48 g/m*3 -1.2 C 0 km/h
47 30-12-2010 09:25:01 -1.1 C 3.5 g/m*3 -1.1 C 0 km/h
48 30-12-2010 09:37:01 -1 C 3.44 g/m*3 -1 C 0 km/h
49 30-12-2010 09:49:02 -0.9 C 3.46 g/m*3 -0.9 C 0 km/h
50 30-12-2010 10:01:02 -0.7 C 3.46 g/m*3 -0.7 C 0 km/h
Sensor: Nr:Datum:Temp:Abs-Feuchte:Windchill:Wind:
Aussen-T/F 51 30-12-2010 10:01:03 -0.8 C 3.39 g/m*3 -0.8 C 0 km/h
52 30-12-2010 10:13:03 -0.6 C 3.44 g/m*3 -0.6 C 0 km/h
53 30-12-2010 10:25:02 -0.3 C 3.51 g/m*3 -0.3 C 0 km/h
54 30-12-2010 10:37:03 -0.3 C 3.46 g/m*3 -0.3 C 0 km/h
55 30-12-2010 10:49:01 0 C 3.49 g/m*3 0 C 0 km/h
56 30-12-2010 11:01:02 0.1 C 3.51 g/m*3 0.1 C 0 km/h
57 30-12-2010 11:13:02 -0.1 C 3.51 g/m*3 -0.1 C 0 km/h
58 30-12-2010 11:25:02 0 C 3.54 g/m*3 0 C 0 km/h
59 30-12-2010 11:37:02 0.1 C 3.51 g/m*3 0.1 C 0 km/h
60 30-12-2010 11:49:02 0.3 C 3.56 g/m*3 0.3 C 0 km/h
61 30-12-2010 12:01:02 0.4 C 3.59 g/m*3 0.4 C 0 km/h
62 30-12-2010 12:13:02 0.3 C 3.56 g/m*3 0.3 C 0 km/h
63 30-12-2010 12:25:02 0.5 C 3.61 g/m*3 0.5 C 0 km/h
64 30-12-2010 12:37:01 0.7 C 3.56 g/m*3 0.7 C 0 km/h
65 30-12-2010 12:49:02 1.1 C 3.61 g/m*3 1.1 C 0 km/h
66 30-12-2010 13:01:01 0.9 C 3.51 g/m*3 0.9 C 0 km/h
67 30-12-2010 13:13:01 1 C 3.58 g/m*3 1 C 0 km/h
68 30-12-2010 13:25:02 1.1 C 3.61 g/m*3 1.1 C 0 km/h
69 30-12-2010 13:37:02 1.5 C 3.65 g/m*3 1.5 C 0 km/h
70 30-12-2010 13:49:02 1.5 C 3.6 g/m*3 1.5 C 0 km/h
71 30-12-2010 14:01:02 1.5 C 3.6 g/m*3 1.5 C 0 km/h
72 30-12-2010 14:13:02 1.4 C 3.57 g/m*3 1.4 C 0 km/h
73 30-12-2010 14:25:02 1 C 3.53 g/m*3 1 C 0 km/h
74 30-12-2010 14:37:02 1.3 C 3.66 g/m*3 1.3 C 0 km/h
75 30-12-2010 14:49:01 1.4 C 3.68 g/m*3 1.4 C 0 km/h
Sensor: Nr:Datum:Temp:Abs-Feuchte:Windchill:Wind:
Aussen-T/F 76 30-12-2010 15:01:02 1.4 C 3.68 g/m*3 1.4 C 0 km/h
77 30-12-2010 15:13:02 1.1 C 3.61 g/m*3 1.1 C 0 km/h
78 30-12-2010 15:25:01 0.9 C 3.66 g/m*3 0.9 C 0 km/h
79 30-12-2010 15:37:02 0.8 C 3.69 g/m*3 0.8 C 0 km/h
80 30-12-2010 15:49:01 0.7 C 3.71 g/m*3 0.7 C 0 km/h
81 30-12-2010 16:01:02 0.6 C 3.74 g/m*3 0.6 C 0 km/h
82 30-12-2010 16:13:03 0.3 C 3.71 g/m*3 0.3 C 0 km/h
83 30-12-2010 16:25:01 0.3 C 3.76 g/m*3 0.3 C 0 km/h
84 30-12-2010 16:37:02 0.2 C 3.68 g/m*3 0.2 C 0 km/h
85 30-12-2010 16:49:01 0.1 C 3.76 g/m*3 0.1 C 0 km/h
86 30-12-2010 17:01:02 0.1 C 3.76 g/m*3 0.1 C 0 km/h
87 30-12-2010 17:13:02 0.1 C 3.76 g/m*3 0.1 C 0 km/h
88 30-12-2010 17:25:02 0.1 C 3.76 g/m*3 0.1 C 0 km/h
89 30-12-2010 17:37:01 0.1 C 3.76 g/m*3 0.1 C 0 km/h
90 30-12-2010 17:49:02 -0.2 C 3.68 g/m*3 -0.2 C 0 km/h
91 30-12-2010 18:01:01 -0.1 C 3.71 g/m*3 -0.1 C 0 km/h
92 30-12-2010 18:13:01 -0.2 C 3.68 g/m*3 -0.2 C 0 km/h
93 30-12-2010 18:25:02 -0.4 C 3.63 g/m*3 -0.4 C 0 km/h
94 30-12-2010 18:37:01 -0.4 C 3.68 g/m*3 -0.4 C 0 km/h
95 30-12-2010 18:49:03 -0.4 C 3.72 g/m*3 -0.4 C 0 km/h
96 30-12-2010 19:01:02 -0.4 C 3.72 g/m*3 -0.4 C 0 km/h
97 30-12-2010 19:13:02 -0.4 C 3.77 g/m*3 -0.4 C 0 km/h
98 30-12-2010 19:25:02 -0.5 C 3.74 g/m*3 -0.5 C 0 km/h
99 30-12-2010 19:37:03 -0.5 C 3.74 g/m*3 -0.5 C 0 km/h
100 30-12-2010 19:49:02 -0.4 C 3.77 g/m*3 -0.4 C 0 km/h
Sensor: Nr:Datum:Temp:Abs-Feuchte:Windchill:Wind:
Aussen-T/F 101 30-12-2010 20:01:01 -0.4 C 3.72 g/m*3 -0.4 C 0 km/h
102 30-12-2010 20:13:01 -0.5 C 3.7 g/m*3 -0.5 C 0 km/h
103 30-12-2010 20:25:02 -0.5 C 3.7 g/m*3 -0.5 C 0 km/h
104 30-12-2010 20:37:02 -0.5 C 3.74 g/m*3 -0.5 C 0 km/h
105 30-12-2010 20:49:01 -0.5 C 3.7 g/m*3 -0.5 C 0 km/h
106 30-12-2010 21:01:02 -0.5 C 3.65 g/m*3 -0.5 C 0 km/h
107 30-12-2010 21:13:02 -0.6 C 3.63 g/m*3 -0.6 C 0 km/h
108 30-12-2010 21:25:01 -0.6 C 3.63 g/m*3 -0.6 C 0 km/h
109 30-12-2010 21:37:02 -0.7 C 3.6 g/m*3 -0.7 C 0 km/h
110 30-12-2010 21:49:02 -0.6 C 3.63 g/m*3 -0.6 C 0 km/h
111 30-12-2010 22:01:02 -0.7 C 3.65 g/m*3 -0.7 C 0 km/h
112 30-12-2010 22:13:03 -0.7 C 3.6 g/m*3 -0.7 C 0 km/h
113 30-12-2010 22:25:01 -0.8 C 3.58 g/m*3 -0.8 C 0 km/h
114 30-12-2010 22:37:02 -0.8 C 3.58 g/m*3 -0.8 C 0 km/h
115 30-12-2010 22:49:01 -0.9 C 3.55 g/m*3 -0.9 C 0 km/h
116 30-12-2010 23:01:02 -0.9 C 3.55 g/m*3 -0.9 C 0 km/h
117 30-12-2010 23:13:02 -0.9 C 3.55 g/m*3 -0.9 C 0 km/h
118 30-12-2010 23:25:02 -0.9 C 3.51 g/m*3 -0.9 C 0 km/h
119 30-12-2010 23:37:01 -1 C 3.48 g/m*3 -1 C 0 km/h
120 30-12-2010 23:49:02 -1.1 C 3.46 g/m*3 -1.1 C 0 km/h
121 31-12-2010 00:01:01 -1.1 C 3.46 g/m*3 -1.1 C 0 km/h
122 31-12-2010 00:13:01 -1.1 C 3.5 g/m*3 -1.1 C 0 km/h
123 31-12-2010 00:25:02 -1.1 C 3.5 g/m*3 -1.1 C 0 km/h
124 31-12-2010 00:37:01 -1.1 C 3.5 g/m*3 -1.1 C 0 km/h
125 31-12-2010 00:49:03 -1.1 C 3.5 g/m*3 -1.1 C 0 km/h
Sensor: Nr:Datum:Temp:Abs-Feuchte:Windchill:Wind:
Aussen-T/F 126 31-12-2010 01:01:02 -1.1 C 3.55 g/m*3 -1.1 C 0 km/h
127 31-12-2010 01:13:02 -1.1 C 3.55 g/m*3 -1.1 C 0 km/h
128 31-12-2010 01:25:02 -1.1 C 3.55 g/m*3 -1.1 C 0 km/h
129 31-12-2010 01:37:03 -1.2 C 3.52 g/m*3 -1.2 C 0 km/h
130 31-12-2010 01:49:02 -1.2 C 3.52 g/m*3 -1.2 C 0 km/h
131 31-12-2010 02:01:02 -1.3 C 3.5 g/m*3 -1.3 C 0 km/h
132 31-12-2010 02:13:02 -1.3 C 3.5 g/m*3 -1.3 C 0 km/h
133 31-12-2010 02:25:02 -1.2 C 3.52 g/m*3 -1.2 C 0 km/h
134 31-12-2010 02:37:02 -1.4 C 3.47 g/m*3 -1.4 C 0 km/h
135 31-12-2010 02:50:04 -1.5 C 3.45 g/m*3 -1.5 C 0 km/h
136 31-12-2010 03:02:04 -1.6 C 3.42 g/m*3 -1.6 C 0 km/h
137 31-12-2010 03:14:05 -1.6 C 3.42 g/m*3 -1.6 C 0 km/h
138 31-12-2010 03:26:05 -1.8 C 3.38 g/m*3 -1.8 C 0 km/h
139 31-12-2010 03:38:02 -1.9 C 3.4 g/m*3 -1.9 C 0 km/h
140 31-12-2010 03:50:03 -1.9 C 3.4 g/m*3 -1.9 C 0 km/h
141 31-12-2010 04:02:01 -1.9 C 3.4 g/m*3 -1.9 C 0 km/h
142 31-12-2010 04:14:01 -2 C 3.37 g/m*3 -2 C 0 km/h
143 31-12-2010 04:26:02 -2 C 3.37 g/m*3 -2 C 0 km/h
144 31-12-2010 04:38:02 -2 C 3.37 g/m*3 -2 C 0 km/h
145 31-12-2010 04:50:01 -2 C 3.37 g/m*3 -2 C 0 km/h
146 31-12-2010 05:02:02 -2.1 C 3.35 g/m*3 -2.1 C 0 km/h
147 31-12-2010 05:14:02 -2.1 C 3.35 g/m*3 -2.1 C 0 km/h
148 31-12-2010 05:26:01 -2.1 C 3.35 g/m*3 -2.1 C 0 km/h
149 31-12-2010 05:38:02 -2.1 C 3.35 g/m*3 -2.1 C 0 km/h
150 31-12-2010 05:50:02 -2.2 C 3.28 g/m*3 -2.2 C 0 km/h
Sensor: Nr:Datum:Temp:Abs-Feuchte:Windchill:Wind:
Aussen-T/F 151 31-12-2010 06:02:02 -2.3 C 3.26 g/m*3 -2.3 C 0 km/h
152 31-12-2010 06:14:02 -2.3 C 3.26 g/m*3 -2.3 C 0 km/h
153 31-12-2010 06:26:01 -2.3 C 3.3 g/m*3 -2.3 C 0 km/h
154 31-12-2010 06:38:02 -2.2 C 3.33 g/m*3 -2.2 C 0 km/h
155 31-12-2010 06:50:02 -2.2 C 3.33 g/m*3 -2.2 C 0 km/h
156 31-12-2010 07:02:02 -2.2 C 3.33 g/m*3 -2.2 C 0 km/h
157 31-12-2010 07:14:02 -2.1 C 3.35 g/m*3 -2.1 C 0 km/h
158 31-12-2010 07:26:01 -2 C 3.41 g/m*3 -2 C 0 km/h
159 31-12-2010 07:38:02 -2.1 C 3.39 g/m*3 -2.1 C 0 km/h
160 31-12-2010 07:50:01 -2.2 C 3.33 g/m*3 -2.2 C 0 km/h
161 31-12-2010 08:02:02 -2.2 C 3.37 g/m*3 -2.2 C 0 km/h
162 31-12-2010 08:14:02 -2.1 C 3.39 g/m*3 -2.1 C 0 km/h
163 31-12-2010 08:26:02 -2.1 C 3.39 g/m*3 -2.1 C 0 km/h
164 31-12-2010 08:38:01 -2.1 C 3.39 g/m*3 -2.1 C 0 km/h
165 31-12-2010 08:50:02 -2.1 C 3.39 g/m*3 -2.1 C 0 km/h
166 31-12-2010 09:02:01 -2 C 3.41 g/m*3 -2 C 0 km/h
167 31-12-2010 09:14:01 -2.1 C 3.39 g/m*3 -2.1 C 0 km/h
168 31-12-2010 09:26:01 -2.2 C 3.37 g/m*3 -2.2 C 0 km/h
169 31-12-2010 09:38:01 -2.3 C 3.3 g/m*3 -2.3 C 0 km/h
170 31-12-2010 09:50:02 -2.3 C 3.3 g/m*3 -2.3 C 0 km/h
171 31-12-2010 10:02:01 -2.1 C 3.35 g/m*3 -2.1 C 0 km/h
172 31-12-2010 10:14:01 -2.1 C 3.35 g/m*3 -2.1 C 0 km/h
173 31-12-2010 10:26:02 -1.9 C 3.35 g/m*3 -1.9 C 0 km/h
174 31-12-2010 10:38:02 -1.7 C 3.36 g/m*3 -1.7 C 0 km/h
175 31-12-2010 10:50:02 -1.7 C 3.36 g/m*3 -1.7 C 0 km/h
Sensor: Nr:Datum:Temp:Abs-Feuchte:Windchill:Wind:
Aussen-T/F 176 31-12-2010 11:02:02 -1.5 C 3.36 g/m*3 -1.5 C 0 km/h
177 31-12-2010 11:14:02 -1.5 C 3.32 g/m*3 -1.5 C 0 km/h
178 31-12-2010 11:26:02 -1.2 C 3.39 g/m*3 -1.2 C 0 km/h
179 31-12-2010 11:38:02 -1 C 3.44 g/m*3 -1 C 0 km/h
180 31-12-2010 11:50:02 -0.9 C 3.41 g/m*3 -0.9 C 0 km/h
181 31-12-2010 12:02:02 -1.2 C 3.34 g/m*3 -1.2 C 0 km/h
182 31-12-2010 12:14:02 -1.1 C 3.41 g/m*3 -1.1 C 0 km/h
183 31-12-2010 12:26:02 -1.1 C 3.37 g/m*3 -1.1 C 0 km/h
184 31-12-2010 12:38:02 -0.7 C 3.42 g/m*3 -0.7 C 0 km/h
185 31-12-2010 12:50:01 -0.5 C 3.51 g/m*3 -0.5 C 0 km/h
186 31-12-2010 13:02:01 -0.6 C 3.44 g/m*3 -0.6 C 0 km/h
187 31-12-2010 13:14:01 -0.6 C 3.39 g/m*3 -0.6 C 0 km/h
188 31-12-2010 13:26:01 -0.2 C 3.49 g/m*3 -0.2 C 0 km/h
189 31-12-2010 13:38:01 0.1 C 3.51 g/m*3 0.1 C 0 km/h
190 31-12-2010 13:50:01 0.4 C 3.49 g/m*3 0.4 C 0 km/h
191 31-12-2010 14:02:01 0.2 C 3.29 g/m*3 0.2 C 0 km/h
192 31-12-2010 14:14:01 0.7 C 3.46 g/m*3 0.7 C 0 km/h
193 31-12-2010 14:26:02 0.4 C 3.39 g/m*3 0.4 C 0 km/h
194 31-12-2010 14:38:01 0.1 C 3.37 g/m*3 0.1 C 0 km/h
195 31-12-2010 14:50:02 -0.2 C 3.35 g/m*3 -0.2 C 0 km/h
196 31-12-2010 15:02:02 -0.3 C 3.37 g/m*3 -0.3 C 0 km/h
197 31-12-2010 15:14:02 -0.4 C 3.39 g/m*3 -0.4 C 0 km/h
198 31-12-2010 15:26:02 -0.4 C 3.44 g/m*3 -0.4 C 0 km/h
199 31-12-2010 15:38:01 -0.3 C 3.46 g/m*3 -0.3 C 0 km/h
200 31-12-2010 15:50:02 -0.3 C 3.46 g/m*3 -0.3 C 0 km/h
Sensor: Nr:Datum:Temp:Abs-Feuchte:Windchill:Wind:
Aussen-T/F 201 31-12-2010 16:02:01 -0.5 C 3.46 g/m*3 -0.5 C 0 km/h
202 31-12-2010 16:14:01 -0.5 C 3.51 g/m*3 -0.5 C 0 km/h
203 31-12-2010 16:26:02 -0.6 C 3.53 g/m*3 -0.6 C 0 km/h
204 31-12-2010 16:38:02 -0.6 C 3.53 g/m*3 -0.6 C 0 km/h
205 31-12-2010 16:50:02 -0.6 C 3.58 g/m*3 -0.6 C 0 km/h
206 31-12-2010 17:02:02 -0.6 C 3.58 g/m*3 -0.6 C 0 km/h
207 31-12-2010 17:14:02 -0.6 C 3.58 g/m*3 -0.6 C 0 km/h
208 31-12-2010 17:26:02 -0.6 C 3.63 g/m*3 -0.6 C 0 km/h
209 31-12-2010 17:38:03 -0.6 C 3.67 g/m*3 -0.6 C 0 km/h
210 31-12-2010 17:50:02 -0.6 C 3.67 g/m*3 -0.6 C 0 km/h
211 31-12-2010 18:02:02 -0.6 C 3.67 g/m*3 -0.6 C 0 km/h
212 31-12-2010 18:14:02 -0.6 C 3.72 g/m*3 -0.6 C 0 km/h
213 31-12-2010 18:26:02 -0.5 C 3.79 g/m*3 -0.5 C 0 km/h
214 31-12-2010 18:38:02 -0.5 C 3.79 g/m*3 -0.5 C 0 km/h
215 31-12-2010 18:50:02 -0.5 C 3.84 g/m*3 -0.5 C 0 km/h
216 31-12-2010 19:02:02 -0.5 C 3.84 g/m*3 -0.5 C 0 km/h
217 31-12-2010 19:14:02 -0.6 C 3.81 g/m*3 -0.6 C 0 km/h
218 31-12-2010 19:26:02 -0.6 C 3.81 g/m*3 -0.6 C 0 km/h
219 31-12-2010 19:38:02 -0.6 C 3.81 g/m*3 -0.6 C 0 km/h
220 31-12-2010 19:50:02 -0.7 C 3.83 g/m*3 -0.7 C 0 km/h
221 31-12-2010 20:02:02 -0.7 C 3.88 g/m*3 -0.7 C 0 km/h
222 31-12-2010 20:14:03 -0.7 C 3.92 g/m*3 -0.7 C 0 km/h
223 31-12-2010 20:26:02 -0.7 C 3.92 g/m*3 -0.7 C 0 km/h
224 31-12-2010 20:38:02 -0.6 C 3.95 g/m*3 -0.6 C 0 km/h
225 31-12-2010 20:50:01 -0.5 C 4.03 g/m*3 -0.5 C 0 km/h
Sensor: Nr:Datum:Temp:Abs-Feuchte:Windchill:Wind:
Aussen-T/F 226 31-12-2010 21:02:01 -0.6 C 4 g/m*3 -0.6 C 0 km/h
227 31-12-2010 21:14:01 -0.6 C 4 g/m*3 -0.6 C 0 km/h
228 31-12-2010 21:26:02 -0.6 C 4 g/m*3 -0.6 C 0 km/h
229 31-12-2010 21:38:01 -0.6 C 4.04 g/m*3 -0.6 C 0 km/h
230 31-12-2010 21:50:02 -0.5 C 4.07 g/m*3 -0.5 C 0 km/h
231 31-12-2010 22:02:02 -0.4 C 4.1 g/m*3 -0.4 C 0 km/h
232 31-12-2010 22:14:02 -0.4 C 4.1 g/m*3 -0.4 C 0 km/h
233 31-12-2010 22:26:01 -0.4 C 4.1 g/m*3 -0.4 C 0 km/h
234 31-12-2010 22:38:01 -0.4 C 4.1 g/m*3 -0.4 C 0 km/h
235 31-12-2010 22:50:01 -0.3 C 4.13 g/m*3 -0.3 C 0 km/h
236 31-12-2010 23:02:02 -0.3 C 4.13 g/m*3 -0.3 C 0 km/h
237 31-12-2010 23:14:02 -0.3 C 4.13 g/m*3 -0.3 C 0 km/h
238 31-12-2010 23:26:01 -0.3 C 4.13 g/m*3 -0.3 C 0 km/h
239 31-12-2010 23:38:02 -0.4 C 4.1 g/m*3 -0.4 C 0 km/h
240 31-12-2010 23:38:02 -0.3 C 4.13 g/m*3 -0.3 C 0 km/h
241 31-12-2010 23:38:02 -0.4 C 4.1 g/m*3 -0.4 C 0 km/h
242 31-12-2010 23:38:02 -0.3 C 4.13 g/m*3 -0.3 C 0 km/h
243 31-12-2010 23:50:02 -0.3 C 4.13 g/m*3 -0.3 C 0 km/h
244 01-01-2011 00:02:02 -0.3 C 4.13 g/m*3 -0.3 C 0 km/h
245 01-01-2011 00:14:02 -0.3 C 4.13 g/m*3 -0.3 C 0 km/h
246 01-01-2011 00:26:02 -0.3 C 4.13 g/m*3 -0.3 C 0 km/h
247 01-01-2011 00:38:02 -0.3 C 4.13 g/m*3 -0.3 C 0 km/h
248 01-01-2011 00:50:02 -0.4 C 4.1 g/m*3 -0.4 C 0 km/h
249 01-01-2011 01:02:02 -0.4 C 4.15 g/m*3 -0.4 C 0 km/h
250 01-01-2011 01:14:02 -0.3 C 4.18 g/m*3 -0.3 C 0 km/h
Sensor: Nr:Datum:Temp:Abs-Feuchte:Windchill:Wind:
Aussen-T/F 251 01-01-2011 01:26:02 -0.3 C 4.18 g/m*3 -0.3 C 0 km/h
252 01-01-2011 01:38:02 -0.2 C 4.21 g/m*3 -0.2 C 0 km/h
253 01-01-2011 01:50:02 -0.2 C 4.21 g/m*3 -0.2 C 0 km/h
254 01-01-2011 02:02:02 -0.2 C 4.21 g/m*3 -0.2 C 0 km/h
255 01-01-2011 02:14:02 -0.2 C 4.21 g/m*3 -0.2 C 0 km/h
256 01-01-2011 02:26:02 -0.1 C 4.23 g/m*3 -0.1 C 0 km/h
257 01-01-2011 02:38:02 -0.1 C 4.23 g/m*3 -0.1 C 0 km/h
258 01-01-2011 02:50:03 -0.1 C 4.23 g/m*3 -0.1 C 0 km/h
259 01-01-2011 03:02:03 -0.2 C 4.21 g/m*3 -0.2 C 0 km/h
260 01-01-2011 03:12:01 -0.1 C 4.23 g/m*3 -0.1 C 0 km/h
261 01-01-2011 03:24:01 -0.1 C 4.23 g/m*3 -0.1 C 0 km/h
262 01-01-2011 03:34:02 -0.1 C 4.23 g/m*3 -0.1 C 0 km/h
263 01-01-2011 03:46:02 -0.2 C 4.21 g/m*3 -0.2 C 0 km/h
264 01-01-2011 03:58:02 -0.1 C 4.23 g/m*3 -0.1 C 0 km/h
265 01-01-2011 04:08:01 -0.2 C 4.21 g/m*3 -0.2 C 0 km/h
266 01-01-2011 04:19:01 -0.2 C 4.21 g/m*3 -0.2 C 0 km/h
267 01-01-2011 04:51:59 -0.2 C 4.21 g/m*3 -0.2 C 0 km/h
268 01-01-2011 05:03:59 -0.2 C 4.25 g/m*3 -0.2 C 0 km/h
269 01-01-2011 05:15:25 -0.2 C 4.25 g/m*3 -0.2 C 0 km/h
270 01-01-2011 05:27:41 0 C 4.31 g/m*3 0 C 0 km/h
271 01-01-2011 05:39:09 0.1 C 4.34 g/m*3 0.1 C 0 km/h
272 01-01-2011 05:51:09 0.2 C 4.32 g/m*3 0.2 C 0 km/h
273 01-01-2011 06:03:26 0.3 C 4.35 g/m*3 0.3 C 0 km/h
274 01-01-2011 06:15:52 0.3 C 4.3 g/m*3 0.3 C 0 km/h
275 01-01-2011 06:27:48 0.4 C 4.28 g/m*3 0.4 C 0 km/h
Sensor: Nr:Datum:Temp:Abs-Feuchte:Windchill:Wind:
Aussen-T/F 276 01-01-2011 06:39:48 0.4 C 4.28 g/m*3 0.4 C 0 km/h
277 01-01-2011 06:51:33 0.4 C 4.23 g/m*3 0.4 C 0 km/h
278 01-01-2011 07:03:29 0.4 C 4.23 g/m*3 0.4 C 0 km/h
279 01-01-2011 07:15:15 0.5 C 4.26 g/m*3 0.5 C 0 km/h
280 01-01-2011 07:27:11 0.5 C 4.26 g/m*3 0.5 C 0 km/h
281 01-01-2011 07:39:56 0.5 C 4.26 g/m*3 0.5 C 0 km/h
282 01-01-2011 07:51:52 0.6 C 4.24 g/m*3 0.6 C 0 km/h
283 01-01-2011 08:03:38 0.6 C 4.24 g/m*3 0.6 C 0 km/h
284 01-01-2011 08:15:38 0.7 C 4.27 g/m*3 0.7 C 0 km/h
285 01-01-2011 08:27:34 0.8 C 4.3 g/m*3 0.8 C 0 km/h
286 01-01-2011 08:39:19 1 C 4.36 g/m*3 1 C 0 km/h
287 01-01-2011 08:51:15 1 C 4.31 g/m*3 1 C 0 km/h
288 01-01-2011 09:03:01 0.8 C 4.3 g/m*3 0.8 C 0 km/h
289 01-01-2011 09:15:57 0.9 C 4.38 g/m*3 0.9 C 0 km/h
290 01-01-2011 09:27:43 1.2 C 4.42 g/m*3 1.2 C 0 km/h
291 01-01-2011 09:39:43 1.3 C 4.4 g/m*3 1.3 C 0 km/h
292 01-01-2011 09:51:38 1.2 C 4.42 g/m*3 1.2 C 0 km/h
293 01-01-2011 10:03:25 1.2 C 4.47 g/m*3 1.2 C 0 km/h
294 01-01-2011 10:15:19 1.3 C 4.56 g/m*3 1.3 C 0 km/h
295 01-01-2011 10:27:06 1.2 C 4.58 g/m*3 1.2 C 0 km/h
296 01-01-2011 10:39:01 1.5 C 4.67 g/m*3 1.5 C 0 km/h
297 01-01-2011 10:51:48 1.6 C 4.65 g/m*3 1.6 C 0 km/h
298 01-01-2011 11:03:48 1.8 C 4.71 g/m*3 1.8 C 0 km/h
299 01-01-2011 11:15:42 1.8 C 4.66 g/m*3 1.8 C 0 km/h
300 01-01-2011 11:27:29 1.8 C 4.66 g/m*3 1.8 C 0 km/h
Sensor: Nr:Datum:Temp:Abs-Feuchte:Windchill:Wind:
Aussen-T/F 301 01-01-2011 11:39:24 2 C 4.67 g/m*3 2 C 0 km/h
302 01-01-2011 11:51:01 2.3 C 4.71 g/m*3 2.3 C 0 km/h
303 01-01-2011 12:03:02 2.4 C 4.68 g/m*3 2.4 C 0 km/h
304 01-01-2011 12:15:01 2.5 C 4.66 g/m*3 2.5 C 0 km/h
305 01-01-2011 12:27:01 2.6 C 4.63 g/m*3 2.6 C 0 km/h
306 01-01-2011 12:39:02 2.4 C 4.57 g/m*3 2.4 C 0 km/h
307 01-01-2011 12:51:01 2.3 C 4.59 g/m*3 2.3 C 0 km/h
308 01-01-2011 13:03:02 2.6 C 4.69 g/m*3 2.6 C 0 km/h
309 01-01-2011 13:15:01 3 C 4.7 g/m*3 3 C 0 km/h
310 01-01-2011 13:27:01 3 C 4.58 g/m*3 3 C 0 km/h
311 01-01-2011 13:39:02 2.9 C 4.61 g/m*3 2.9 C 0 km/h
312 01-01-2011 13:51:01 3.1 C 4.55 g/m*3 3.1 C 0 km/h
313 01-01-2011 14:03:02 2.8 C 4.58 g/m*3 2.8 C 0 km/h
314 01-01-2011 14:15:02 2.7 C 4.6 g/m*3 2.7 C 0 km/h
315 01-01-2011 14:27:02 2.3 C 4.59 g/m*3 2.3 C 0 km/h
316 01-01-2011 14:39:02 2.5 C 4.71 g/m*3 2.5 C 0 km/h
317 01-01-2011 14:51:01 2.4 C 4.68 g/m*3 2.4 C 0 km/h
318 01-01-2011 15:03:01 2.4 C 4.68 g/m*3 2.4 C 0 km/h
319 01-01-2011 15:15:02 2.1 C 4.59 g/m*3 2.1 C 0 km/h
320 01-01-2011 15:27:02 2 C 4.61 g/m*3 2 C 0 km/h
321 01-01-2011 15:39:01 1.8 C 4.6 g/m*3 1.8 C 0 km/h
322 01-01-2011 15:51:01 1.8 C 4.71 g/m*3 1.8 C 0 km/h
323 01-01-2011 16:03:01 1.7 C 4.68 g/m*3 1.7 C 0 km/h
324 01-01-2011 16:15:02 1.6 C 4.7 g/m*3 1.6 C 0 km/h
325 01-01-2011 16:27:02 1.7 C 4.79 g/m*3 1.7 C 0 km/h
Sensor: Nr:Datum:Temp:Abs-Feuchte:Windchill:Wind:
Aussen-T/F 326 01-01-2011 16:39:01 1.4 C 4.69 g/m*3 1.4 C 0 km/h
327 01-01-2011 16:51:01 1.5 C 4.78 g/m*3 1.5 C 0 km/h
328 01-01-2011 17:03:01 1.5 C 4.78 g/m*3 1.5 C 0 km/h
329 01-01-2011 17:15:02 1.4 C 4.75 g/m*3 1.4 C 0 km/h
330 01-01-2011 17:27:02 1.3 C 4.72 g/m*3 1.3 C 0 km/h
331 01-01-2011 17:39:01 1.3 C 4.77 g/m*3 1.3 C 0 km/h
332 01-01-2011 17:51:03 1.2 C 4.74 g/m*3 1.2 C 0 km/h
333 01-01-2011 18:03:02 1.4 C 4.8 g/m*3 1.4 C 0 km/h
334 01-01-2011 18:15:02 1.4 C 4.85 g/m*3 1.4 C 0 km/h
335 01-01-2011 18:27:02 1.3 C 4.82 g/m*3 1.3 C 0 km/h
336 01-01-2011 18:39:02 1.4 C 4.85 g/m*3 1.4 C 0 km/h
337 01-01-2011 18:51:02 1.8 C 5.04 g/m*3 1.8 C 0 km/h
338 01-01-2011 19:03:02 2 C 5.06 g/m*3 2 C 0 km/h
339 01-01-2011 19:15:02 2 C 5.06 g/m*3 2 C 0 km/h
340 01-01-2011 19:27:02 2 C 5.06 g/m*3 2 C 0 km/h
341 01-01-2011 19:39:02 1.9 C 5.08 g/m*3 1.9 C 0 km/h
342 01-01-2011 19:51:02 1.9 C 5.02 g/m*3 1.9 C 0 km/h
343 01-01-2011 20:03:01 1.9 C 5.02 g/m*3 1.9 C 0 km/h
344 01-01-2011 20:15:01 1.7 C 4.95 g/m*3 1.7 C 0 km/h
345 01-01-2011 20:27:01 1.7 C 4.9 g/m*3 1.7 C 0 km/h
346 01-01-2011 20:39:02 1.8 C 4.93 g/m*3 1.8 C 0 km/h
347 01-01-2011 20:51:02 1.5 C 4.83 g/m*3 1.5 C 0 km/h
348 01-01-2011 21:03:02 1.4 C 4.8 g/m*3 1.4 C 0 km/h
349 01-01-2011 21:15:02 1.2 C 4.74 g/m*3 1.2 C 0 km/h
350 01-01-2011 21:27:02 1.2 C 4.74 g/m*3 1.2 C 0 km/h
Sensor: Nr:Datum:Temp:Abs-Feuchte:Windchill:Wind:
Aussen-T/F 351 01-01-2011 21:39:02 1.1 C 4.7 g/m*3 1.1 C 0 km/h
352 01-01-2011 21:52:23 1 C 4.67 g/m*3 1 C 0 km/h
353 01-01-2011 22:04:23 1 C 4.67 g/m*3 1 C 0 km/h
354 01-01-2011 22:16:23 1 C 4.72 g/m*3 1 C 0 km/h
355 01-01-2011 22:28:23 1.3 C 4.82 g/m*3 1.3 C 0 km/h
356 01-01-2011 22:40:24 1.4 C 4.85 g/m*3 1.4 C 0 km/h
357 01-01-2011 22:52:24 0.6 C 4.6 g/m*3 0.6 C 0 km/h
358 01-01-2011 23:04:24 0.3 C 4.5 g/m*3 0.3 C 0 km/h
359 01-01-2011 23:16:01 0.6 C 4.6 g/m*3 0.6 C 0 km/h
360 01-01-2011 23:28:01 0.2 C 4.47 g/m*3 0.2 C 0 km/h
361 01-01-2011 23:40:01 0.2 C 4.47 g/m*3 0.2 C 0 km/h
362 01-01-2011 23:52:01 0.2 C 4.47 g/m*3 0.2 C 0 km/h
363 02-01-2011 00:04:01 -0.1 C 4.38 g/m*3 -0.1 C 0 km/h
364 02-01-2011 00:16:01 0.1 C 4.49 g/m*3 0.1 C 0 km/h
365 02-01-2011 00:28:01 0.3 C 4.55 g/m*3 0.3 C 0 km/h
366 02-01-2011 00:40:01 0.3 C 4.55 g/m*3 0.3 C 0 km/h
367 02-01-2011 00:52:01 0.3 C 4.55 g/m*3 0.3 C 0 km/h
368 02-01-2011 01:04:01 0.3 C 4.55 g/m*3 0.3 C 0 km/h
369 02-01-2011 01:16:01 0.4 C 4.58 g/m*3 0.4 C 0 km/h
370 02-01-2011 01:28:02 0.2 C 4.52 g/m*3 0.2 C 0 km/h
371 02-01-2011 01:40:02 0.3 C 4.55 g/m*3 0.3 C 0 km/h
372 02-01-2011 01:52:02 0.4 C 4.63 g/m*3 0.4 C 0 km/h
373 02-01-2011 02:04:02 0.5 C 4.66 g/m*3 0.5 C 0 km/h
374 02-01-2011 02:16:02 0.4 C 4.63 g/m*3 0.4 C 0 km/h
375 02-01-2011 02:28:02 0 C 4.46 g/m*3 0 C 0 km/h
Sensor: Nr:Datum:Temp:Abs-Feuchte:Windchill:Wind:
Aussen-T/F 376 02-01-2011 02:40:02 0.3 C 4.6 g/m*3 0.3 C 0 km/h
377 02-01-2011 02:52:02 0.6 C 4.7 g/m*3 0.6 C 0 km/h
378 02-01-2011 03:04:02 0.6 C 4.7 g/m*3 0.6 C 0 km/h
379 02-01-2011 03:16:02 0.3 C 4.6 g/m*3 0.3 C 0 km/h
380 02-01-2011 03:28:02 0.3 C 4.6 g/m*3 0.3 C 0 km/h
381 02-01-2011 03:40:02 0.4 C 4.63 g/m*3 0.4 C 0 km/h
382 02-01-2011 03:52:02 0.6 C 4.7 g/m*3 0.6 C 0 km/h
383 02-01-2011 04:04:02 0.5 C 4.66 g/m*3 0.5 C 0 km/h
384 02-01-2011 04:16:02 0.5 C 4.66 g/m*3 0.5 C 0 km/h
385 02-01-2011 04:28:02 0.6 C 4.7 g/m*3 0.6 C 0 km/h
386 02-01-2011 04:40:02 0.6 C 4.7 g/m*3 0.6 C 0 km/h
387 02-01-2011 04:52:02 0.3 C 4.55 g/m*3 0.3 C 0 km/h
388 02-01-2011 05:04:02 0.2 C 4.52 g/m*3 0.2 C 0 km/h
389 02-01-2011 05:16:02 0.3 C 4.55 g/m*3 0.3 C 0 km/h
390 02-01-2011 05:28:03 0.2 C 4.52 g/m*3 0.2 C 0 km/h
391 02-01-2011 05:40:03 0.3 C 4.55 g/m*3 0.3 C 0 km/h
392 02-01-2011 05:52:03 0.4 C 4.58 g/m*3 0.4 C 0 km/h
393 02-01-2011 06:04:03 0.3 C 4.55 g/m*3 0.3 C 0 km/h
394 02-01-2011 06:16:03 0.3 C 4.55 g/m*3 0.3 C 0 km/h
395 02-01-2011 06:28:03 0.5 C 4.61 g/m*3 0.5 C 0 km/h
396 02-01-2011 06:40:03 0.4 C 4.58 g/m*3 0.4 C 0 km/h
397 02-01-2011 06:52:03 0 C 4.41 g/m*3 0 C 0 km/h
398 02-01-2011 07:04:03 0.2 C 4.47 g/m*3 0.2 C 0 km/h
399 02-01-2011 07:16:03 0.4 C 4.53 g/m*3 0.4 C 0 km/h
400 02-01-2011 07:28:03 0.4 C 4.48 g/m*3 0.4 C 0 km/h
Sensor: Nr:Datum:Temp:Abs-Feuchte:Windchill:Wind:
Aussen-T/F 401 02-01-2011 07:40:03 0.2 C 4.42 g/m*3 0.2 C 0 km/h
402 02-01-2011 07:52:03 0.3 C 4.45 g/m*3 0.3 C 0 km/h
403 02-01-2011 08:04:03 0.4 C 4.43 g/m*3 0.4 C 0 km/h
404 02-01-2011 08:16:03 0 C 4.31 g/m*3 0 C 0 km/h
405 02-01-2011 08:28:03 -0.4 C 4.15 g/m*3 -0.4 C 0 km/h
406 02-01-2011 08:40:03 0.2 C 4.37 g/m*3 0.2 C 0 km/h
407 02-01-2011 08:52:03 0.4 C 4.43 g/m*3 0.4 C 0 km/h
408 02-01-2011 09:04:03 0.3 C 4.4 g/m*3 0.3 C 0 km/h
409 02-01-2011 09:16:03 0.3 C 4.4 g/m*3 0.3 C 0 km/h
410 02-01-2011 09:28:04 0.5 C 4.46 g/m*3 0.5 C 0 km/h
411 02-01-2011 09:40:04 0.7 C 4.53 g/m*3 0.7 C 0 km/h
412 02-01-2011 09:52:02 0.9 C 4.59 g/m*3 0.9 C 0 km/h
413 02-01-2011 10:04:02 1.1 C 4.6 g/m*3 1.1 C 0 km/h
414 02-01-2011 10:16:02 1.5 C 4.67 g/m*3 1.5 C 0 km/h
415 02-01-2011 10:28:02 1.3 C 4.45 g/m*3 1.3 C 0 km/h
416 02-01-2011 10:40:02 1.6 C 4.38 g/m*3 1.6 C 0 km/h
417 02-01-2011 10:52:01 1.6 C 4.22 g/m*3 1.6 C 0 km/h
418 02-01-2011 11:04:02 1.9 C 4.19 g/m*3 1.9 C 0 km/h
419 02-01-2011 11:16:01 1.5 C 4.08 g/m*3 1.5 C 0 km/h
420 02-01-2011 11:28:01 1.5 C 4.14 g/m*3 1.5 C 0 km/h
421 02-01-2011 11:40:01 2.1 C 4.25 g/m*3 2.1 C 0 km/h
422 02-01-2011 11:52:02 2 C 4.11 g/m*3 2 C 0 km/h
423 02-01-2011 12:04:01 1.9 C 4.19 g/m*3 1.9 C 0 km/h
424 02-01-2011 12:16:02 1.9 C 4.19 g/m*3 1.9 C 0 km/h
425 02-01-2011 12:28:02 2.2 C 4.11 g/m*3 2.2 C 0 km/h
Sensor: Nr:Datum:Temp:Abs-Feuchte:Windchill:Wind:
Aussen-T/F 426 02-01-2011 12:40:01 2.1 C 4.14 g/m*3 2.1 C 0 km/h
427 02-01-2011 12:52:03 2.2 C 4.17 g/m*3 2.2 C 0 km/h
428 02-01-2011 13:04:02 2 C 4.06 g/m*3 2 C 0 km/h
429 02-01-2011 13:16:02 2.6 C 4.28 g/m*3 2.6 C 0 km/h
430 02-01-2011 13:28:02 2.7 C 4.2 g/m*3 2.7 C 0 km/h
431 02-01-2011 13:40:02 2.6 C 4.11 g/m*3 2.6 C 0 km/h
432 02-01-2011 13:52:02 2.6 C 4.05 g/m*3 2.6 C 0 km/h
433 02-01-2011 14:04:02 2.5 C 4.08 g/m*3 2.5 C 0 km/h
434 02-01-2011 14:16:02 2.1 C 3.97 g/m*3 2.1 C 0 km/h
435 02-01-2011 14:28:02 1.6 C 4 g/m*3 1.6 C 0 km/h
436 02-01-2011 14:40:03 2.2 C 4.17 g/m*3 2.2 C 0 km/h
437 02-01-2011 14:52:02 2.7 C 4.14 g/m*3 2.7 C 0 km/h
438 02-01-2011 15:04:02 2.2 C 4 g/m*3 2.2 C 0 km/h
439 02-01-2011 15:16:03 2.2 C 4.06 g/m*3 2.2 C 0 km/h
440 02-01-2011 15:28:03 1.9 C 4.03 g/m*3 1.9 C 0 km/h
441 02-01-2011 15:40:02 0.6 C 3.79 g/m*3 0.6 C 0 km/h
442 02-01-2011 15:52:02 1.6 C 4.27 g/m*3 1.6 C 0 km/h
443 02-01-2011 16:04:02 1.8 C 4.28 g/m*3 1.8 C 0 km/h
444 02-01-2011 16:16:02 1.8 C 4.22 g/m*3 1.8 C 0 km/h
445 02-01-2011 16:28:02 1.5 C 4.14 g/m*3 1.5 C 0 km/h
446 02-01-2011 16:40:03 1.3 C 4.13 g/m*3 1.3 C 0 km/h
447 02-01-2011 16:52:03 0.8 C 4.2 g/m*3 0.8 C 0 km/h
448 02-01-2011 17:04:02 0.6 C 4.24 g/m*3 0.6 C 0 km/h
449 02-01-2011 17:16:01 0.8 C 4.4 g/m*3 0.8 C 0 km/h
450 02-01-2011 17:28:01 0.7 C 4.37 g/m*3 0.7 C 0 km/h
Sensor: Nr:Datum:Temp:Abs-Feuchte:Windchill:Wind:
Aussen-T/F 451 02-01-2011 17:40:02 0.7 C 4.42 g/m*3 0.7 C 0 km/h
452 02-01-2011 17:52:02 0.5 C 4.36 g/m*3 0.5 C 0 km/h
453 02-01-2011 18:04:02 0.5 C 4.41 g/m*3 0.5 C 0 km/h
454 02-01-2011 18:16:01 0.6 C 4.44 g/m*3 0.6 C 0 km/h
455 02-01-2011 18:28:01 0.6 C 4.44 g/m*3 0.6 C 0 km/h
456 02-01-2011 18:40:02 0.7 C 4.47 g/m*3 0.7 C 0 km/h
457 02-01-2011 18:52:02 0.7 C 4.47 g/m*3 0.7 C 0 km/h
458 02-01-2011 19:04:02 0.5 C 4.41 g/m*3 0.5 C 0 km/h
459 02-01-2011 19:16:03 0.6 C 4.44 g/m*3 0.6 C 0 km/h
460 02-01-2011 19:28:03 0.6 C 4.44 g/m*3 0.6 C 0 km/h
461 02-01-2011 19:40:02 0.7 C 4.47 g/m*3 0.7 C 0 km/h
462 02-01-2011 19:52:02 0.5 C 4.41 g/m*3 0.5 C 0 km/h
463 02-01-2011 20:04:02 0.6 C 4.44 g/m*3 0.6 C 0 km/h
464 02-01-2011 20:16:02 0.6 C 4.44 g/m*3 0.6 C 0 km/h
465 02-01-2011 20:28:02 0.5 C 4.36 g/m*3 0.5 C 0 km/h
466 02-01-2011 20:40:02 0.3 C 4.3 g/m*3 0.3 C 0 km/h
467 02-01-2011 20:52:02 0.1 C 4.24 g/m*3 0.1 C 0 km/h
468 02-01-2011 21:04:02 0.2 C 4.32 g/m*3 0.2 C 0 km/h
469 02-01-2011 21:16:02 0.3 C 4.35 g/m*3 0.3 C 0 km/h
470 02-01-2011 21:28:03 0.3 C 4.35 g/m*3 0.3 C 0 km/h
471 02-01-2011 21:40:02 0.1 C 4.29 g/m*3 0.1 C 0 km/h
472 02-01-2011 21:52:02 0 C 4.26 g/m*3 0 C 0 km/h
473 02-01-2011 22:04:02 0.3 C 4.35 g/m*3 0.3 C 0 km/h
474 02-01-2011 22:17:03 0.3 C 4.35 g/m*3 0.3 C 0 km/h
475 02-01-2011 22:29:03 0.1 C 4.24 g/m*3 0.1 C 0 km/h
Sensor: Nr:Datum:Temp:Abs-Feuchte:Windchill:Wind:
Aussen-T/F 476 02-01-2011 22:41:03 0.2 C 4.27 g/m*3 0.2 C 0 km/h
477 02-01-2011 22:53:03 0.1 C 4.24 g/m*3 0.1 C 0 km/h
478 02-01-2011 23:05:03 0.2 C 4.32 g/m*3 0.2 C 0 km/h
479 02-01-2011 23:17:03 0.1 C 4.29 g/m*3 0.1 C 0 km/h
480 02-01-2011 23:29:03 0.1 C 4.29 g/m*3 0.1 C 0 km/h
481 02-01-2011 23:41:03 0.1 C 4.29 g/m*3 0.1 C 0 km/h
482 02-01-2011 23:53:03 0.1 C 4.29 g/m*3 0.1 C 0 km/h
483 03-01-2011 00:05:03 0.1 C 4.34 g/m*3 0.1 C 0 km/h
484 03-01-2011 00:17:03 0.1 C 4.34 g/m*3 0.1 C 0 km/h
485 03-01-2011 00:29:03 0.2 C 4.37 g/m*3 0.2 C 0 km/h
486 03-01-2011 00:41:03 0.1 C 4.34 g/m*3 0.1 C 0 km/h
487 03-01-2011 00:53:03 0.1 C 4.29 g/m*3 0.1 C 0 km/h
488 03-01-2011 01:05:03 0 C 4.26 g/m*3 0 C 0 km/h
489 03-01-2011 01:17:03 0.1 C 4.29 g/m*3 0.1 C 0 km/h
490 03-01-2011 01:29:03 0.1 C 4.29 g/m*3 0.1 C 0 km/h
491 03-01-2011 01:41:03 0 C 4.26 g/m*3 0 C 0 km/h
492 03-01-2011 01:53:03 0.1 C 4.29 g/m*3 0.1 C 0 km/h
493 03-01-2011 02:05:04 0 C 4.26 g/m*3 0 C 0 km/h
494 03-01-2011 02:17:04 0 C 4.26 g/m*3 0 C 0 km/h
495 03-01-2011 02:29:04 -0.2 C 4.21 g/m*3 -0.2 C 0 km/h
496 03-01-2011 02:41:04 -0.2 C 4.21 g/m*3 -0.2 C 0 km/h
497 03-01-2011 02:53:04 -0.4 C 4.15 g/m*3 -0.4 C 0 km/h
498 03-01-2011 03:05:04 -0.2 C 4.21 g/m*3 -0.2 C 0 km/h
499 03-01-2011 03:17:04 -0.2 C 4.21 g/m*3 -0.2 C 0 km/h
500 03-01-2011 03:29:04 -0.3 C 4.13 g/m*3 -0.3 C 0 km/h
Sensor: Nr:Datum:Temp:Abs-Feuchte:Windchill:Wind:
Aussen-T/F 501 03-01-2011 03:41:04 -0.4 C 4.05 g/m*3 -0.4 C 0 km/h
502 03-01-2011 03:53:04 -0.4 C 4.01 g/m*3 -0.4 C 0 km/h
503 03-01-2011 04:05:04 -0.6 C 3.9 g/m*3 -0.6 C 0 km/h
504 03-01-2011 04:17:04 -1.1 C 3.77 g/m*3 -1.1 C 0 km/h
505 03-01-2011 04:29:04 -0.9 C 3.87 g/m*3 -0.9 C 0 km/h
506 03-01-2011 04:41:04 -0.9 C 3.82 g/m*3 -0.9 C 0 km/h
507 03-01-2011 04:53:04 -0.9 C 3.87 g/m*3 -0.9 C 0 km/h
508 03-01-2011 05:05:04 -0.9 C 3.87 g/m*3 -0.9 C 0 km/h
509 03-01-2011 05:17:04 -1 C 3.89 g/m*3 -1 C 0 km/h
510 03-01-2011 05:29:04 -1.1 C 3.82 g/m*3 -1.1 C 0 km/h
511 03-01-2011 05:41:04 -1.1 C 3.82 g/m*3 -1.1 C 0 km/h
512 03-01-2011 05:53:04 -1.1 C 3.82 g/m*3 -1.1 C 0 km/h
513 03-01-2011 06:05:04 -1.1 C 3.82 g/m*3 -1.1 C 0 km/h
514 03-01-2011 06:17:05 -1.1 C 3.86 g/m*3 -1.1 C 0 km/h
515 03-01-2011 06:29:05 -1.1 C 3.91 g/m*3 -1.1 C 0 km/h
516 03-01-2011 06:41:05 -1.2 C 3.88 g/m*3 -1.2 C 0 km/h
517 03-01-2011 06:53:05 -1.1 C 3.95 g/m*3 -1.1 C 0 km/h
518 03-01-2011 07:05:05 -1.1 C 3.95 g/m*3 -1.1 C 0 km/h
519 03-01-2011 07:17:03 -1.1 C 4 g/m*3 -1.1 C 0 km/h
520 03-01-2011 07:29:03 -1.1 C 4 g/m*3 -1.1 C 0 km/h
521 03-01-2011 07:41:03 -1 C 4.02 g/m*3 -1 C 0 km/h
522 03-01-2011 07:53:02 -1.1 C 4 g/m*3 -1.1 C 0 km/h
523 03-01-2011 08:05:03 -1.4 C 3.87 g/m*3 -1.4 C 0 km/h
524 03-01-2011 08:17:02 -1.4 C 3.87 g/m*3 -1.4 C 0 km/h
525 03-01-2011 08:29:02 -1.3 C 3.94 g/m*3 -1.3 C 0 km/h
Sensor: Nr:Datum:Temp:Abs-Feuchte:Windchill:Wind:
Aussen-T/F 526 03-01-2011 08:41:02 -1.2 C 3.92 g/m*3 -1.2 C 0 km/h
527 03-01-2011 08:53:02 -1.2 C 3.92 g/m*3 -1.2 C 0 km/h
528 03-01-2011 09:05:02 -1.3 C 3.94 g/m*3 -1.3 C 0 km/h
529 03-01-2011 09:17:01 -1.3 C 3.94 g/m*3 -1.3 C 0 km/h
530 03-01-2011 09:29:01 -1.2 C 3.92 g/m*3 -1.2 C 0 km/h
531 03-01-2011 09:41:02 -1.2 C 3.92 g/m*3 -1.2 C 0 km/h
532 03-01-2011 09:53:02 -1.1 C 3.91 g/m*3 -1.1 C 0 km/h
533 03-01-2011 10:05:03 -1.1 C 3.91 g/m*3 -1.1 C 0 km/h
534 03-01-2011 10:17:02 -1.1 C 3.86 g/m*3 -1.1 C 0 km/h
535 03-01-2011 10:29:02 -1.2 C 3.79 g/m*3 -1.2 C 0 km/h
536 03-01-2011 10:41:02 -0.8 C 3.9 g/m*3 -0.8 C 0 km/h
537 03-01-2011 10:53:02 -0.9 C 3.82 g/m*3 -0.9 C 0 km/h
538 03-01-2011 11:05:02 -0.6 C 3.81 g/m*3 -0.6 C 0 km/h
539 03-01-2011 11:17:01 -0.4 C 3.77 g/m*3 -0.4 C 0 km/h
540 03-01-2011 11:29:01 -0.2 C 3.73 g/m*3 -0.2 C 0 km/h
541 03-01-2011 11:41:02 -0.2 C 3.63 g/m*3 -0.2 C 0 km/h
542 03-01-2011 11:53:02 -0.1 C 3.71 g/m*3 -0.1 C 0 km/h
543 03-01-2011 12:05:02 0 C 3.68 g/m*3 0 C 0 km/h
544 03-01-2011 12:17:01 0.2 C 3.73 g/m*3 0.2 C 0 km/h
545 03-01-2011 12:29:01 0.3 C 3.76 g/m*3 0.3 C 0 km/h
546 03-01-2011 12:41:02 0.3 C 3.71 g/m*3 0.3 C 0 km/h
547 03-01-2011 12:53:01 0.5 C 3.76 g/m*3 0.5 C 0 km/h
548 03-01-2011 13:05:02 1 C 3.84 g/m*3 1 C 0 km/h
549 03-01-2011 13:17:02 0.9 C 3.81 g/m*3 0.9 C 0 km/h
550 03-01-2011 13:29:02 0.9 C 3.81 g/m*3 0.9 C 0 km/h
Sensor: Nr:Datum:Temp:Abs-Feuchte:Windchill:Wind:
Aussen-T/F 551 03-01-2011 13:41:02 1.1 C 3.81 g/m*3 1.1 C 0 km/h
552 03-01-2011 13:53:02 0.7 C 3.76 g/m*3 0.7 C 0 km/h
553 03-01-2011 14:05:01 0.8 C 3.84 g/m*3 0.8 C 0 km/h
554 03-01-2011 14:17:02 0.7 C 3.81 g/m*3 0.7 C 0 km/h
555 03-01-2011 14:29:03 0.7 C 3.86 g/m*3 0.7 C 0 km/h
556 03-01-2011 14:41:01 1.1 C 3.92 g/m*3 1.1 C 0 km/h
557 03-01-2011 14:53:02 1 C 3.84 g/m*3 1 C 0 km/h
558 03-01-2011 15:05:02 1 C 3.84 g/m*3 1 C 0 km/h
559 03-01-2011 15:17:02 0.4 C 3.79 g/m*3 0.4 C 0 km/h
560 03-01-2011 15:29:02 -0.1 C 3.75 g/m*3 -0.1 C 0 km/h
561 03-01-2011 15:41:03 -0.6 C 3.67 g/m*3 -0.6 C 0 km/h
562 03-01-2011 15:53:02 -1.1 C 3.64 g/m*3 -1.1 C 0 km/h
563 03-01-2011 16:05:02 -1.3 C 3.63 g/m*3 -1.3 C 0 km/h
564 03-01-2011 16:17:01 -1.5 C 3.62 g/m*3 -1.5 C 0 km/h
565 03-01-2011 16:29:01 -2 C 3.5 g/m*3 -2 C 0 km/h
566 03-01-2011 16:41:02 -1.7 C 3.66 g/m*3 -1.7 C 0 km/h
567 03-01-2011 16:53:02 -1.2 C 3.83 g/m*3 -1.2 C 0 km/h
568 03-01-2011 17:05:02 -1.9 C 3.65 g/m*3 -1.9 C 0 km/h
569 03-01-2011 17:17:02 -2.6 C 3.48 g/m*3 -2.6 C 0 km/h
570 03-01-2011 17:29:02 -2.5 C 3.5 g/m*3 -2.5 C 0 km/h
571 03-01-2011 17:41:02 -2.9 C 3.44 g/m*3 -2.9 C 0 km/h
572 03-01-2011 17:53:02 -2.4 C 3.57 g/m*3 -2.4 C 0 km/h
573 03-01-2011 18:05:01 -1.7 C 3.79 g/m*3 -1.7 C 0 km/h
574 03-01-2011 18:17:01 -1.4 C 3.91 g/m*3 -1.4 C 0 km/h
575 03-01-2011 18:29:01 -1.3 C 3.94 g/m*3 -1.3 C 0 km/h
Sensor: Nr:Datum:Temp:Abs-Feuchte:Windchill:Wind:
Aussen-T/F 576 03-01-2011 18:41:02 -1.1 C 4 g/m*3 -1.1 C 0 km/h
577 03-01-2011 18:53:02 -1 C 4.02 g/m*3 -1 C 0 km/h
578 03-01-2011 19:05:02 -1.1 C 4 g/m*3 -1.1 C 0 km/h
579 03-01-2011 19:17:02 -1.1 C 4 g/m*3 -1.1 C 0 km/h
580 03-01-2011 19:29:02 -1.1 C 4.04 g/m*3 -1.1 C 0 km/h
581 03-01-2011 19:41:02 -1.2 C 4.01 g/m*3 -1.2 C 0 km/h
582 03-01-2011 19:53:02 -1.6 C 3.86 g/m*3 -1.6 C 0 km/h
583 03-01-2011 20:05:02 -2.1 C 3.73 g/m*3 -2.1 C 0 km/h
584 03-01-2011 20:17:02 -2.3 C 3.67 g/m*3 -2.3 C 0 km/h
585 03-01-2011 20:29:02 -1.8 C 3.8 g/m*3 -1.8 C 0 km/h
586 03-01-2011 20:41:01 -1.8 C 3.85 g/m*3 -1.8 C 0 km/h
587 03-01-2011 20:53:02 -2 C 3.75 g/m*3 -2 C 0 km/h
588 03-01-2011 21:05:02 -2.3 C 3.67 g/m*3 -2.3 C 0 km/h
589 03-01-2011 21:17:03 -2.7 C 3.57 g/m*3 -2.7 C 0 km/h
590 03-01-2011 21:29:03 -3 C 3.5 g/m*3 -3 C 0 km/h
591 03-01-2011 21:41:02 -2.5 C 3.62 g/m*3 -2.5 C 0 km/h
592 03-01-2011 21:53:02 -2 C 3.79 g/m*3 -2 C 0 km/h
593 03-01-2011 22:05:02 -1.7 C 3.87 g/m*3 -1.7 C 0 km/h
594 03-01-2011 22:18:03 -1.4 C 3.96 g/m*3 -1.4 C 0 km/h
595 03-01-2011 22:30:03 -1.5 C 3.93 g/m*3 -1.5 C 0 km/h
596 03-01-2011 22:42:03 -1.6 C 3.9 g/m*3 -1.6 C 0 km/h
597 03-01-2011 22:54:03 -1.8 C 3.85 g/m*3 -1.8 C 0 km/h
598 03-01-2011 23:06:03 -2.4 C 3.69 g/m*3 -2.4 C 0 km/h
599 03-01-2011 23:18:03 -2.9 C 3.56 g/m*3 -2.9 C 0 km/h
600 03-01-2011 23:30:03 -3.1 C 3.51 g/m*3 -3.1 C 0 km/h
Sensor: Nr:Datum:Temp:Abs-Feuchte:Windchill:Wind:
Aussen-T/F 601 03-01-2011 23:42:03 -3.2 C 3.49 g/m*3 -3.2 C 0 km/h
602 03-01-2011 23:54:03 -3.4 C 3.4 g/m*3 -3.4 C 0 km/h
603 04-01-2011 00:06:03 -3.4 C 3.44 g/m*3 -3.4 C 0 km/h
604 04-01-2011 00:18:03 -3.4 C 3.44 g/m*3 -3.4 C 0 km/h
605 04-01-2011 00:30:03 -3.8 C 3.34 g/m*3 -3.8 C 0 km/h
606 04-01-2011 00:42:03 -3.8 C 3.34 g/m*3 -3.8 C 0 km/h
607 04-01-2011 00:54:03 -3.8 C 3.34 g/m*3 -3.8 C 0 km/h
608 04-01-2011 01:06:03 -3.4 C 3.44 g/m*3 -3.4 C 0 km/h
609 04-01-2011 01:18:03 -3.9 C 3.32 g/m*3 -3.9 C 0 km/h
610 04-01-2011 01:30:04 -4.3 C 3.19 g/m*3 -4.3 C 0 km/h
611 04-01-2011 01:42:04 -4.2 C 3.21 g/m*3 -4.2 C 0 km/h
612 04-01-2011 01:54:04 -3.9 C 3.32 g/m*3 -3.9 C 0 km/h
613 04-01-2011 02:06:04 -3.4 C 3.44 g/m*3 -3.4 C 0 km/h
614 04-01-2011 02:18:04 -3.4 C 3.44 g/m*3 -3.4 C 0 km/h
615 04-01-2011 02:30:04 -3 C 3.54 g/m*3 -3 C 0 km/h
616 04-01-2011 02:42:04 -3.4 C 3.44 g/m*3 -3.4 C 0 km/h
617 04-01-2011 02:54:04 -3.3 C 3.46 g/m*3 -3.3 C 0 km/h
618 04-01-2011 03:06:04 -3.2 C 3.49 g/m*3 -3.2 C 0 km/h
619 04-01-2011 03:18:04 -3.4 C 3.4 g/m*3 -3.4 C 0 km/h
620 04-01-2011 03:30:04 -3.2 C 3.45 g/m*3 -3.2 C 0 km/h
621 04-01-2011 03:42:04 -3.1 C 3.51 g/m*3 -3.1 C 0 km/h
622 04-01-2011 03:54:04 -3 C 3.54 g/m*3 -3 C 0 km/h
623 04-01-2011 04:06:04 -3 C 3.54 g/m*3 -3 C 0 km/h
624 04-01-2011 04:18:04 -3.2 C 3.45 g/m*3 -3.2 C 0 km/h
625 04-01-2011 04:30:04 -3.5 C 3.37 g/m*3 -3.5 C 0 km/h
Sensor: Nr:Datum:Temp:Abs-Feuchte:Windchill:Wind:
Aussen-T/F 626 04-01-2011 04:42:04 -3.7 C 3.33 g/m*3 -3.7 C 0 km/h
627 04-01-2011 04:54:04 -3.8 C 3.3 g/m*3 -3.8 C 0 km/h
628 04-01-2011 05:06:04 -3.5 C 3.37 g/m*3 -3.5 C 0 km/h
629 04-01-2011 05:18:04 -3.4 C 3.4 g/m*3 -3.4 C 0 km/h
630 04-01-2011 05:30:04 -3.5 C 3.37 g/m*3 -3.5 C 0 km/h
631 04-01-2011 05:42:05 -4 C 3.22 g/m*3 -4 C 0 km/h
632 04-01-2011 05:54:05 -4.3 C 3.15 g/m*3 -4.3 C 0 km/h
633 04-01-2011 06:06:05 -4.5 C 3.11 g/m*3 -4.5 C 0 km/h
634 04-01-2011 06:18:05 -4.3 C 3.15 g/m*3 -4.3 C 0 km/h
635 04-01-2011 06:30:05 -4.1 C 3.2 g/m*3 -4.1 C 0 km/h
636 04-01-2011 06:42:05 -3.2 C 3.45 g/m*3 -3.2 C 0 km/h
637 04-01-2011 06:54:05 -3.1 C 3.47 g/m*3 -3.1 C 0 km/h
638 04-01-2011 07:06:05 -2.9 C 3.52 g/m*3 -2.9 C 0 km/h
639 04-01-2011 07:18:05 -2.9 C 3.52 g/m*3 -2.9 C 0 km/h
640 04-01-2011 07:30:05 -2.7 C 3.57 g/m*3 -2.7 C 0 km/h
641 04-01-2011 07:42:03 -2.6 C 3.6 g/m*3 -2.6 C 0 km/h
642 04-01-2011 07:54:02 -2.5 C 3.62 g/m*3 -2.5 C 0 km/h
643 04-01-2011 08:06:02 -2.3 C 3.71 g/m*3 -2.3 C 0 km/h
644 04-01-2011 08:18:02 -2.2 C 3.74 g/m*3 -2.2 C 0 km/h
645 04-01-2011 08:30:02 -2.1 C 3.77 g/m*3 -2.1 C 0 km/h
646 04-01-2011 08:42:02 -2.1 C 3.77 g/m*3 -2.1 C 0 km/h
647 04-01-2011 08:54:02 -2 C 3.79 g/m*3 -2 C 0 km/h
648 04-01-2011 09:06:02 -2 C 3.79 g/m*3 -2 C 0 km/h
649 04-01-2011 09:18:02 -1.9 C 3.82 g/m*3 -1.9 C 0 km/h
650 04-01-2011 09:30:02 -1.8 C 3.85 g/m*3 -1.8 C 0 km/h
Sensor: Nr:Datum:Temp:Abs-Feuchte:Windchill:Wind:
Aussen-T/F 651 04-01-2011 09:42:02 -1.9 C 3.82 g/m*3 -1.9 C 0 km/h
652 04-01-2011 09:54:02 -1.8 C 3.85 g/m*3 -1.8 C 0 km/h
653 04-01-2011 10:06:02 -1.4 C 3.96 g/m*3 -1.4 C 0 km/h
654 04-01-2011 10:18:02 -1.4 C 3.96 g/m*3 -1.4 C 0 km/h
655 04-01-2011 10:30:03 -1 C 4.07 g/m*3 -1 C 0 km/h
656 04-01-2011 10:42:02 -0.7 C 4.15 g/m*3 -0.7 C 0 km/h
657 04-01-2011 10:54:02 -0.6 C 4.18 g/m*3 -0.6 C 0 km/h
658 04-01-2011 11:06:01 -0.4 C 4.19 g/m*3 -0.4 C 0 km/h
659 04-01-2011 11:18:02 -0.3 C 4.22 g/m*3 -0.3 C 0 km/h
660 04-01-2011 11:30:02 -0.7 C 4.02 g/m*3 -0.7 C 0 km/h
661 04-01-2011 11:42:02 -0.3 C 3.99 g/m*3 -0.3 C 0 km/h
662 04-01-2011 11:54:03 -0.4 C 3.82 g/m*3 -0.4 C 0 km/h
663 04-01-2011 12:06:03 -0.4 C 3.63 g/m*3 -0.4 C 0 km/h
664 04-01-2011 12:18:03 -0.2 C 3.54 g/m*3 -0.2 C 0 km/h
665 04-01-2011 12:30:03 -0.2 C 3.44 g/m*3 -0.2 C 0 km/h
666 04-01-2011 12:42:03 -0.3 C 3.37 g/m*3 -0.3 C 0 km/h
667 04-01-2011 12:54:03 -0.2 C 3.35 g/m*3 -0.2 C 0 km/h
668 04-01-2011 13:06:03 -0.2 C 3.35 g/m*3 -0.2 C 0 km/h
669 04-01-2011 13:18:03 0 C 3.34 g/m*3 0 C 0 km/h
670 04-01-2011 13:30:03 0 C 3.39 g/m*3 0 C 0 km/h
671 04-01-2011 13:42:03 0.2 C 3.39 g/m*3 0.2 C 0 km/h
672 04-01-2011 13:54:03 0.5 C 3.51 g/m*3 0.5 C 0 km/h
673 04-01-2011 14:06:04 0.2 C 3.39 g/m*3 0.2 C 0 km/h
674 04-01-2011 14:18:04 0.2 C 3.34 g/m*3 0.2 C 0 km/h
675 04-01-2011 14:30:04 0.2 C 3.34 g/m*3 0.2 C 0 km/h
Sensor: Nr:Datum:Temp:Abs-Feuchte:Windchill:Wind:
Aussen-T/F 676 04-01-2011 14:42:04 0 C 3.29 g/m*3 0 C 0 km/h
677 04-01-2011 14:54:04 -0.3 C 3.27 g/m*3 -0.3 C 0 km/h
678 04-01-2011 15:06:04 -0.4 C 3.3 g/m*3 -0.4 C 0 km/h
679 04-01-2011 15:18:04 -0.9 C 3.19 g/m*3 -0.9 C 0 km/h
680 04-01-2011 15:30:04 -1.1 C 3.23 g/m*3 -1.1 C 0 km/h
681 04-01-2011 15:42:04 -1.1 C 3.28 g/m*3 -1.1 C 0 km/h
682 04-01-2011 15:54:04 -1.1 C 3.28 g/m*3 -1.1 C 0 km/h
683 04-01-2011 16:06:04 -1.1 C 3.28 g/m*3 -1.1 C 0 km/h
684 04-01-2011 16:18:04 -1.1 C 3.28 g/m*3 -1.1 C 0 km/h
685 04-01-2011 16:30:04 -1.2 C 3.25 g/m*3 -1.2 C 0 km/h
686 04-01-2011 16:42:04 -1.2 C 3.25 g/m*3 -1.2 C 0 km/h
687 04-01-2011 16:54:04 -1.3 C 3.23 g/m*3 -1.3 C 0 km/h
688 04-01-2011 17:06:04 -1.5 C 3.23 g/m*3 -1.5 C 0 km/h
689 04-01-2011 17:18:04 -1.9 C 3.18 g/m*3 -1.9 C 0 km/h
690 04-01-2011 17:30:04 -2.3 C 3.14 g/m*3 -2.3 C 0 km/h
691 04-01-2011 17:42:04 -2.2 C 3.24 g/m*3 -2.2 C 0 km/h
692 04-01-2011 17:54:03 -2.1 C 3.26 g/m*3 -2.1 C 0 km/h
693 04-01-2011 18:06:02 -2.1 C 3.22 g/m*3 -2.1 C 0 km/h
694 04-01-2011 18:18:03 -2.2 C 3.2 g/m*3 -2.2 C 0 km/h
695 04-01-2011 18:30:03 -2.1 C 3.22 g/m*3 -2.1 C 0 km/h
696 04-01-2011 18:42:03 -2.3 C 3.14 g/m*3 -2.3 C 0 km/h
697 04-01-2011 18:54:02 -2.4 C 3.11 g/m*3 -2.4 C 0 km/h
698 04-01-2011 19:06:02 -2.7 C 3.05 g/m*3 -2.7 C 0 km/h
699 04-01-2011 19:18:02 -3.4 C 2.94 g/m*3 -3.4 C 0 km/h
700 04-01-2011 19:30:02 -3.8 C 2.89 g/m*3 -3.8 C 0 km/h
Sensor: Nr:Datum:Temp:Abs-Feuchte:Windchill:Wind:
Aussen-T/F 701 04-01-2011 19:42:03 -4 C 2.89 g/m*3 -4 C 0 km/h
702 04-01-2011 19:54:02 -3.9 C 2.95 g/m*3 -3.9 C 0 km/h
703 04-01-2011 20:06:02 -3.7 C 2.99 g/m*3 -3.7 C 0 km/h
704 04-01-2011 20:18:02 -4 C 2.93 g/m*3 -4 C 0 km/h
705 04-01-2011 20:30:02 -4.2 C 2.89 g/m*3 -4.2 C 0 km/h
706 04-01-2011 20:42:02 -4.4 C 2.84 g/m*3 -4.4 C 0 km/h
707 04-01-2011 20:54:02 -4.7 C 2.78 g/m*3 -4.7 C 0 km/h
708 04-01-2011 21:06:03 -4.8 C 2.76 g/m*3 -4.8 C 0 km/h
709 04-01-2011 21:18:02 -4.1 C 2.98 g/m*3 -4.1 C 0 km/h
710 04-01-2011 21:30:02 -3.5 C 3.11 g/m*3 -3.5 C 0 km/h
711 04-01-2011 21:43:03 -3.2 C 3.06 g/m*3 -3.2 C 0 km/h
712 04-01-2011 21:55:03 -3 C 2.99 g/m*3 -3 C 0 km/h
713 04-01-2011 22:07:03 -2.9 C 2.93 g/m*3 -2.9 C 0 km/h
714 04-01-2011 22:19:03 -2.8 C 2.87 g/m*3 -2.8 C 0 km/h
715 04-01-2011 22:31:03 -2.8 C 2.87 g/m*3 -2.8 C 0 km/h
716 04-01-2011 22:43:03 -2.8 C 2.83 g/m*3 -2.8 C 0 km/h
717 04-01-2011 22:55:03 -2.8 C 2.83 g/m*3 -2.8 C 0 km/h
718 04-01-2011 23:07:03 -2.8 C 2.83 g/m*3 -2.8 C 0 km/h
719 04-01-2011 23:19:03 -2.8 C 2.83 g/m*3 -2.8 C 0 km/h
720 04-01-2011 23:31:03 -2.8 C 2.83 g/m*3 -2.8 C 0 km/h
721 04-01-2011 23:43:04 -2.8 C 2.83 g/m*3 -2.8 C 0 km/h
722 04-01-2011 23:55:04 -2.9 C 2.85 g/m*3 -2.9 C 0 km/h
723 05-01-2011 00:07:04 -2.8 C 2.87 g/m*3 -2.8 C 0 km/h
724 05-01-2011 00:19:04 -2.8 C 2.87 g/m*3 -2.8 C 0 km/h
725 05-01-2011 00:31:04 -2.9 C 2.89 g/m*3 -2.9 C 0 km/h
Sensor: Nr:Datum:Temp:Abs-Feuchte:Windchill:Wind:
Aussen-T/F 726 05-01-2011 00:43:04 -2.9 C 2.89 g/m*3 -2.9 C 0 km/h
727 05-01-2011 00:55:04 -3 C 2.87 g/m*3 -3 C 0 km/h
728 05-01-2011 01:07:04 -3 C 2.83 g/m*3 -3 C 0 km/h
729 05-01-2011 01:19:04 -3 C 2.75 g/m*3 -3 C 0 km/h
730 05-01-2011 01:31:04 -2.9 C 2.73 g/m*3 -2.9 C 0 km/h
731 05-01-2011 01:43:04 -3 C 2.67 g/m*3 -3 C 0 km/h
732 05-01-2011 01:55:04 -3 C 2.71 g/m*3 -3 C 0 km/h
733 05-01-2011 02:07:04 -3 C 2.75 g/m*3 -3 C 0 km/h
734 05-01-2011 02:19:04 -2.9 C 2.73 g/m*3 -2.9 C 0 km/h
735 05-01-2011 02:31:04 -2.9 C 2.73 g/m*3 -2.9 C 0 km/h
736 05-01-2011 02:43:04 -2.9 C 2.77 g/m*3 -2.9 C 0 km/h
737 05-01-2011 02:55:04 -2.9 C 2.77 g/m*3 -2.9 C 0 km/h
738 05-01-2011 03:07:04 -3 C 2.75 g/m*3 -3 C 0 km/h
739 05-01-2011 03:19:04 -3 C 2.79 g/m*3 -3 C 0 km/h
740 05-01-2011 03:31:04 -2.9 C 2.77 g/m*3 -2.9 C 0 km/h
741 05-01-2011 03:43:05 -2.9 C 2.77 g/m*3 -2.9 C 0 km/h
742 05-01-2011 03:55:05 -3 C 2.71 g/m*3 -3 C 0 km/h
743 05-01-2011 04:07:05 -3.2 C 2.63 g/m*3 -3.2 C 0 km/h
744 05-01-2011 04:19:05 -3.4 C 2.6 g/m*3 -3.4 C 0 km/h
745 05-01-2011 04:31:05 -3.7 C 2.5 g/m*3 -3.7 C 0 km/h
746 05-01-2011 04:43:05 -3.7 C 2.5 g/m*3 -3.7 C 0 km/h
747 05-01-2011 04:55:05 -3.8 C 2.49 g/m*3 -3.8 C 0 km/h
748 05-01-2011 05:07:05 -3.9 C 2.51 g/m*3 -3.9 C 0 km/h
749 05-01-2011 05:19:05 -3.9 C 2.54 g/m*3 -3.9 C 0 km/h
750 05-01-2011 05:31:05 -4 C 2.52 g/m*3 -4 C 0 km/h
Sensor: Nr:Datum:Temp:Abs-Feuchte:Windchill:Wind:
Aussen-T/F 751 05-01-2011 05:43:05 -4.1 C 2.51 g/m*3 -4.1 C 0 km/h
752 05-01-2011 05:55:05 -4.4 C 2.42 g/m*3 -4.4 C 0 km/h
753 05-01-2011 06:07:05 -4.5 C 2.4 g/m*3 -4.5 C 0 km/h
754 05-01-2011 06:19:05 -4.7 C 2.37 g/m*3 -4.7 C 0 km/h
755 05-01-2011 06:31:05 -4.8 C 2.38 g/m*3 -4.8 C 0 km/h
756 05-01-2011 06:43:05 -5.2 C 2.32 g/m*3 -5.2 C 0 km/h
757 05-01-2011 06:55:05 -5.2 C 2.35 g/m*3 -5.2 C 0 km/h
758 05-01-2011 07:07:05 -5.3 C 2.33 g/m*3 -5.3 C 0 km/h
759 05-01-2011 07:19:05 -5.7 C 2.27 g/m*3 -5.7 C 0 km/h
760 05-01-2011 07:31:03 -6.1 C 2.2 g/m*3 -6.1 C 0 km/h
761 05-01-2011 07:43:03 -6.2 C 2.25 g/m*3 -6.2 C 0 km/h
762 05-01-2011 07:55:02 -6.9 C 2.14 g/m*3 -6.9 C 0 km/h
763 05-01-2011 08:07:02 -7.1 C 2.16 g/m*3 -7.1 C 0 km/h
764 05-01-2011 08:19:02 -7.2 C 2.18 g/m*3 -7.2 C 0 km/h
765 05-01-2011 08:31:02 -7.4 C 2.17 g/m*3 -7.4 C 0 km/h
766 05-01-2011 08:43:02 -7.6 C 2.17 g/m*3 -7.6 C 0 km/h
767 05-01-2011 08:55:02 -8 C 2.11 g/m*3 -8 C 0 km/h
768 05-01-2011 09:07:01 -7.5 C 2.21 g/m*3 -7.5 C 0 km/h
769 05-01-2011 09:19:02 -7.4 C 2.23 g/m*3 -7.4 C 0 km/h
770 05-01-2011 09:31:02 -6.6 C 2.36 g/m*3 -6.6 C 0 km/h
771 05-01-2011 09:43:02 -6.1 C 2.45 g/m*3 -6.1 C 0 km/h
772 05-01-2011 09:55:01 -5.6 C 2.48 g/m*3 -5.6 C 0 km/h
773 05-01-2011 10:07:02 -5 C 2.49 g/m*3 -5 C 0 km/h
774 05-01-2011 10:19:02 -4.7 C 2.44 g/m*3 -4.7 C 0 km/h
775 05-01-2011 10:31:01 -4.2 C 2.42 g/m*3 -4.2 C 0 km/h
Sensor: Nr:Datum:Temp:Abs-Feuchte:Windchill:Wind:
Aussen-T/F 776 05-01-2011 10:43:01 -3.9 C 2.43 g/m*3 -3.9 C 0 km/h
777 05-01-2011 10:55:02 -3.5 C 2.43 g/m*3 -3.5 C 0 km/h
778 05-01-2011 11:07:01 -3.3 C 2.42 g/m*3 -3.3 C 0 km/h
779 05-01-2011 11:19:02 -2.8 C 2.43 g/m*3 -2.8 C 0 km/h
780 05-01-2011 11:31:01 -3.4 C 2.33 g/m*3 -3.4 C 0 km/h
781 05-01-2011 11:43:01 -3.5 C 2.31 g/m*3 -3.5 C 0 km/h
782 05-01-2011 11:55:03 -3 C 2.4 g/m*3 -3 C 0 km/h
783 05-01-2011 12:07:02 -3.2 C 2.28 g/m*3 -3.2 C 0 km/h
784 05-01-2011 12:19:02 -3.7 C 2.32 g/m*3 -3.7 C 0 km/h
785 05-01-2011 12:31:03 -3.8 C 2.34 g/m*3 -3.8 C 0 km/h
786 05-01-2011 12:43:03 -3.9 C 2.36 g/m*3 -3.9 C 0 km/h
787 05-01-2011 12:55:02 -3.8 C 2.41 g/m*3 -3.8 C 0 km/h
788 05-01-2011 13:07:02 -3.7 C 2.47 g/m*3 -3.7 C 0 km/h
789 05-01-2011 13:19:02 -3.6 C 2.41 g/m*3 -3.6 C 0 km/h
790 05-01-2011 13:31:02 -3.7 C 2.39 g/m*3 -3.7 C 0 km/h
791 05-01-2011 13:43:02 -4 C 2.41 g/m*3 -4 C 0 km/h
792 05-01-2011 13:55:02 -3.8 C 2.45 g/m*3 -3.8 C 0 km/h
793 05-01-2011 14:07:02 -3.7 C 2.47 g/m*3 -3.7 C 0 km/h
794 05-01-2011 14:19:02 -3.3 C 2.54 g/m*3 -3.3 C 0 km/h
795 05-01-2011 14:31:02 -3.3 C 2.54 g/m*3 -3.3 C 0 km/h
796 05-01-2011 14:43:02 -3.3 C 2.54 g/m*3 -3.3 C 0 km/h
797 05-01-2011 14:55:01 -3.3 C 2.54 g/m*3 -3.3 C 0 km/h
798 05-01-2011 15:07:02 -3.6 C 2.52 g/m*3 -3.6 C 0 km/h
799 05-01-2011 15:19:01 -3.8 C 2.52 g/m*3 -3.8 C 0 km/h
800 05-01-2011 15:31:02 -3.8 C 2.6 g/m*3 -3.8 C 0 km/h
Sensor: Nr:Datum:Temp:Abs-Feuchte:Windchill:Wind:
Aussen-T/F 801 05-01-2011 15:43:02 -3.7 C 2.62 g/m*3 -3.7 C 0 km/h
802 05-01-2011 15:55:01 -3.8 C 2.56 g/m*3 -3.8 C 0 km/h
803 05-01-2011 16:07:02 -3.9 C 2.54 g/m*3 -3.9 C 0 km/h
804 05-01-2011 16:19:01 -4.2 C 2.56 g/m*3 -4.2 C 0 km/h
805 05-01-2011 16:31:02 -4.5 C 2.54 g/m*3 -4.5 C 0 km/h
806 05-01-2011 16:43:02 -4.8 C 2.56 g/m*3 -4.8 C 0 km/h
807 05-01-2011 16:55:01 -4.8 C 2.59 g/m*3 -4.8 C 0 km/h
808 05-01-2011 17:07:02 -5.1 C 2.57 g/m*3 -5.1 C 0 km/h
809 05-01-2011 17:19:02 -5.8 C 2.47 g/m*3 -5.8 C 0 km/h
810 05-01-2011 17:31:01 -6 C 2.47 g/m*3 -6 C 0 km/h
811 05-01-2011 17:43:01 -5.8 C 2.54 g/m*3 -5.8 C 0 km/h
812 05-01-2011 17:55:02 -5.8 C 2.57 g/m*3 -5.8 C 0 km/h
813 05-01-2011 18:07:01 -5.7 C 2.59 g/m*3 -5.7 C 0 km/h
814 05-01-2011 18:19:02 -6 C 2.53 g/m*3 -6 C 0 km/h
815 05-01-2011 18:31:01 -6.1 C 2.52 g/m*3 -6.1 C 0 km/h
816 05-01-2011 18:43:01 -5.5 C 2.66 g/m*3 -5.5 C 0 km/h
817 05-01-2011 18:55:03 -5.2 C 2.72 g/m*3 -5.2 C 0 km/h
818 05-01-2011 19:07:02 -5.4 C 2.65 g/m*3 -5.4 C 0 km/h
819 05-01-2011 19:19:02 -4.3 C 2.9 g/m*3 -4.3 C 0 km/h
820 05-01-2011 19:31:02 -3.4 C 3.05 g/m*3 -3.4 C 0 km/h
821 05-01-2011 19:43:02 -3.2 C 3.02 g/m*3 -3.2 C 0 km/h
822 05-01-2011 19:55:02 -3 C 3.02 g/m*3 -3 C 0 km/h
823 05-01-2011 20:07:02 -2.8 C 3.07 g/m*3 -2.8 C 0 km/h
824 05-01-2011 20:19:02 -2.8 C 3.07 g/m*3 -2.8 C 0 km/h
825 05-01-2011 20:31:02 -2.7 C 3.09 g/m*3 -2.7 C 0 km/h
Sensor: Nr:Datum:Temp:Abs-Feuchte:Windchill:Wind:
Aussen-T/F 826 05-01-2011 20:43:02 -2.5 C 3.05 g/m*3 -2.5 C 0 km/h
827 05-01-2011 20:55:02 -2.5 C 3.05 g/m*3 -2.5 C 0 km/h
828 05-01-2011 21:07:01 -2.4 C 3.11 g/m*3 -2.4 C 0 km/h
829 05-01-2011 21:19:01 -1.8 C 3.16 g/m*3 -1.8 C 0 km/h
830 05-01-2011 21:31:02 -1.5 C 3.19 g/m*3 -1.5 C 0 km/h
831 05-01-2011 21:43:02 -1.4 C 3.25 g/m*3 -1.4 C 0 km/h
832 05-01-2011 21:55:02 -1.3 C 3.32 g/m*3 -1.3 C 0 km/h
833 05-01-2011 22:07:02 -1.3 C 3.36 g/m*3 -1.3 C 0 km/h
834 05-01-2011 22:20:04 -1.2 C 3.43 g/m*3 -1.2 C 0 km/h
835 05-01-2011 22:32:04 -1.1 C 3.5 g/m*3 -1.1 C 0 km/h
836 05-01-2011 22:44:04 -1 C 3.57 g/m*3 -1 C 0 km/h
837 05-01-2011 22:56:04 -0.7 C 3.65 g/m*3 -0.7 C 0 km/h
838 05-01-2011 23:08:04 -0.5 C 3.74 g/m*3 -0.5 C 0 km/h
839 05-01-2011 23:20:04 -0.3 C 3.8 g/m*3 -0.3 C 0 km/h
840 05-01-2011 23:32:04 -0.3 C 3.8 g/m*3 -0.3 C 0 km/h
841 05-01-2011 23:44:04 -0.8 C 3.71 g/m*3 -0.8 C 0 km/h
842 05-01-2011 23:56:04 -0.9 C 3.73 g/m*3 -0.9 C 0 km/h
843 06-01-2011 00:08:04 -0.7 C 3.83 g/m*3 -0.7 C 0 km/h
844 06-01-2011 00:20:04 -0.5 C 3.84 g/m*3 -0.5 C 0 km/h
845 06-01-2011 00:32:04 -0.5 C 3.84 g/m*3 -0.5 C 0 km/h
846 06-01-2011 00:44:04 -0.6 C 3.81 g/m*3 -0.6 C 0 km/h
847 06-01-2011 00:56:04 -0.6 C 3.81 g/m*3 -0.6 C 0 km/h
848 06-01-2011 01:08:04 -0.5 C 3.88 g/m*3 -0.5 C 0 km/h
849 06-01-2011 01:20:04 -0.3 C 3.94 g/m*3 -0.3 C 0 km/h
850 06-01-2011 01:32:04 -0.3 C 3.94 g/m*3 -0.3 C 0 km/h
Sensor: Nr:Datum:Temp:Abs-Feuchte:Windchill:Wind:
Aussen-T/F 851 06-01-2011 01:44:04 -0.1 C 3.99 g/m*3 -0.1 C 0 km/h
852 06-01-2011 01:56:04 0.1 C 4.1 g/m*3 0.1 C 0 km/h
853 06-01-2011 02:08:04 0.2 C 4.18 g/m*3 0.2 C 0 km/h
854 06-01-2011 02:20:05 0.3 C 4.25 g/m*3 0.3 C 0 km/h
855 06-01-2011 02:32:05 0.3 C 4.3 g/m*3 0.3 C 0 km/h
856 06-01-2011 02:44:05 0.3 C 4.35 g/m*3 0.3 C 0 km/h
857 06-01-2011 02:56:05 0.4 C 4.38 g/m*3 0.4 C 0 km/h
858 06-01-2011 03:08:05 0.5 C 4.46 g/m*3 0.5 C 0 km/h
859 06-01-2011 03:20:05 0.5 C 4.46 g/m*3 0.5 C 0 km/h
860 06-01-2011 03:32:05 0.8 C 4.61 g/m*3 0.8 C 0 km/h
861 06-01-2011 03:44:05 0.7 C 4.58 g/m*3 0.7 C 0 km/h
862 06-01-2011 03:56:05 0.7 C 4.58 g/m*3 0.7 C 0 km/h
863 06-01-2011 04:08:05 0.8 C 4.66 g/m*3 0.8 C 0 km/h
864 06-01-2011 04:20:05 0.9 C 4.69 g/m*3 0.9 C 0 km/h
865 06-01-2011 04:32:05 0.9 C 4.69 g/m*3 0.9 C 0 km/h
866 06-01-2011 04:44:05 0.9 C 4.69 g/m*3 0.9 C 0 km/h
867 06-01-2011 04:56:05 0.9 C 4.69 g/m*3 0.9 C 0 km/h
868 06-01-2011 05:08:05 1 C 4.72 g/m*3 1 C 0 km/h
869 06-01-2011 05:20:05 1 C 4.72 g/m*3 1 C 0 km/h
870 06-01-2011 05:32:05 1 C 4.72 g/m*3 1 C 0 km/h
871 06-01-2011 05:44:05 1.1 C 4.76 g/m*3 1.1 C 0 km/h
872 06-01-2011 05:56:05 1.1 C 4.76 g/m*3 1.1 C 0 km/h
873 06-01-2011 06:08:05 1.3 C 4.87 g/m*3 1.3 C 0 km/h
874 06-01-2011 06:20:05 1.2 C 4.84 g/m*3 1.2 C 0 km/h
875 06-01-2011 06:32:06 1.2 C 4.84 g/m*3 1.2 C 0 km/h
Sensor: Nr:Datum:Temp:Abs-Feuchte:Windchill:Wind:
Aussen-T/F 876 06-01-2011 06:44:06 1.3 C 4.87 g/m*3 1.3 C 0 km/h
877 06-01-2011 06:56:02 1.3 C 4.87 g/m*3 1.3 C 0 km/h
878 06-01-2011 07:08:03 1.4 C 4.91 g/m*3 1.4 C 0 km/h
879 06-01-2011 07:20:02 1.4 C 4.91 g/m*3 1.4 C 0 km/h
880 06-01-2011 07:32:02 1.3 C 4.87 g/m*3 1.3 C 0 km/h
881 06-01-2011 07:44:02 1.4 C 4.91 g/m*3 1.4 C 0 km/h
882 06-01-2011 07:56:02 1.4 C 4.91 g/m*3 1.4 C 0 km/h
883 06-01-2011 08:08:02 1.4 C 4.91 g/m*3 1.4 C 0 km/h
884 06-01-2011 08:20:01 1.4 C 4.91 g/m*3 1.4 C 0 km/h
885 06-01-2011 08:32:02 1.5 C 4.94 g/m*3 1.5 C 0 km/h
886 06-01-2011 08:44:02 1.5 C 4.94 g/m*3 1.5 C 0 km/h
887 06-01-2011 08:56:02 1.9 C 5.13 g/m*3 1.9 C 0 km/h
888 06-01-2011 09:08:02 2 C 5.11 g/m*3 2 C 0 km/h
889 06-01-2011 09:20:01 2.2 C 5.18 g/m*3 2.2 C 0 km/h
890 06-01-2011 09:32:02 2.3 C 5.22 g/m*3 2.3 C 0 km/h
891 06-01-2011 09:44:02 2.5 C 5.29 g/m*3 2.5 C 0 km/h
892 06-01-2011 09:56:02 3.7 C 5.73 g/m*3 3.7 C 0 km/h
893 06-01-2011 10:08:03 3.8 C 5.83 g/m*3 3.8 C 0 km/h
894 06-01-2011 10:20:02 4.1 C 5.89 g/m*3 4.1 C 0 km/h
895 06-01-2011 10:32:02 4.4 C 6.01 g/m*3 4.4 C 0 km/h
896 06-01-2011 10:44:02 5.1 C 6.22 g/m*3 5.1 C 0 km/h
897 06-01-2011 10:56:01 5.1 C 6.22 g/m*3 5.1 C 0 km/h
898 06-01-2011 11:08:02 5.5 C 6.32 g/m*3 5.5 C 0 km/h
899 06-01-2011 11:20:01 5.9 C 6.35 g/m*3 5.9 C 0 km/h
900 06-01-2011 11:32:01 6.1 C 6.21 g/m*3 6.1 C 0 km/h
Sensor: Nr:Datum:Temp:Abs-Feuchte:Windchill:Wind:
Aussen-T/F 901 06-01-2011 11:44:01 6.3 C 6.22 g/m*3 6.3 C 0 km/h
902 06-01-2011 11:56:01 6.6 C 6.27 g/m*3 6.6 C 0 km/h
903 06-01-2011 12:08:01 5.5 C 5.69 g/m*3 5.5 C 0 km/h
904 06-01-2011 12:20:02 5.2 C 5.71 g/m*3 5.2 C 0 km/h
905 06-01-2011 12:32:01 5.6 C 5.94 g/m*3 5.6 C 0 km/h
906 06-01-2011 12:44:01 5.2 C 5.78 g/m*3 5.2 C 0 km/h
907 06-01-2011 12:56:03 5.2 C 5.85 g/m*3 5.2 C 0 km/h
908 06-01-2011 13:08:02 4.9 C 5.81 g/m*3 4.9 C 0 km/h
909 06-01-2011 13:20:02 4.8 C 5.83 g/m*3 4.8 C 0 km/h
910 06-01-2011 13:32:02 4.5 C 5.65 g/m*3 4.5 C 0 km/h
911 06-01-2011 13:44:02 4.2 C 5.61 g/m*3 4.2 C 0 km/h
912 06-01-2011 13:56:02 4.1 C 5.57 g/m*3 4.1 C 0 km/h
913 06-01-2011 14:08:01 4.3 C 5.64 g/m*3 4.3 C 0 km/h
914 06-01-2011 14:20:02 4.2 C 5.61 g/m*3 4.2 C 0 km/h
915 06-01-2011 14:32:02 4.3 C 5.64 g/m*3 4.3 C 0 km/h
916 06-01-2011 14:44:02 4 C 5.53 g/m*3 4 C 0 km/h
917 06-01-2011 14:56:02 3.8 C 5.52 g/m*3 3.8 C 0 km/h
918 06-01-2011 15:08:03 3.9 C 5.62 g/m*3 3.9 C 0 km/h
919 06-01-2011 15:20:02 3.8 C 5.58 g/m*3 3.8 C 0 km/h
920 06-01-2011 15:32:02 4 C 5.59 g/m*3 4 C 0 km/h
921 06-01-2011 15:44:02 4 C 5.66 g/m*3 4 C 0 km/h
922 06-01-2011 15:56:01 4 C 5.66 g/m*3 4 C 0 km/h
923 06-01-2011 16:08:02 4 C 5.66 g/m*3 4 C 0 km/h
924 06-01-2011 16:20:01 4.2 C 5.73 g/m*3 4.2 C 0 km/h
925 06-01-2011 16:32:01 4 C 5.66 g/m*3 4 C 0 km/h
Sensor: Nr:Datum:Temp:Abs-Feuchte:Windchill:Wind:
Aussen-T/F 926 06-01-2011 16:44:01 3.7 C 5.61 g/m*3 3.7 C 0 km/h
927 06-01-2011 16:56:01 3.7 C 5.61 g/m*3 3.7 C 0 km/h
928 06-01-2011 17:08:02 3.8 C 5.65 g/m*3 3.8 C 0 km/h
929 06-01-2011 17:20:02 4 C 5.72 g/m*3 4 C 0 km/h
930 06-01-2011 17:32:01 4.2 C 5.8 g/m*3 4.2 C 0 km/h
931 06-01-2011 17:44:01 4.1 C 5.76 g/m*3 4.1 C 0 km/h
932 06-01-2011 17:56:01 4.6 C 6.02 g/m*3 4.6 C 0 km/h
933 06-01-2011 18:08:01 4.6 C 6.02 g/m*3 4.6 C 0 km/h
934 06-01-2011 18:20:02 4.3 C 5.9 g/m*3 4.3 C 0 km/h
935 06-01-2011 18:32:01 4.6 C 6.02 g/m*3 4.6 C 0 km/h
936 06-01-2011 18:44:01 4.5 C 5.98 g/m*3 4.5 C 0 km/h
937 06-01-2011 18:56:02 5 C 6.18 g/m*3 5 C 0 km/h
938 06-01-2011 19:08:02 4.7 C 6.13 g/m*3 4.7 C 0 km/h
939 06-01-2011 19:20:02 4.6 C 6.09 g/m*3 4.6 C 0 km/h
940 06-01-2011 19:32:03 4.9 C 6.21 g/m*3 4.9 C 0 km/h
941 06-01-2011 19:44:03 5.3 C 6.31 g/m*3 5.3 C 0 km/h
942 06-01-2011 19:56:02 5.6 C 6.43 g/m*3 5.6 C 0 km/h
943 06-01-2011 20:08:01 7 C 7.05 g/m*3 7 C 0 km/h
944 06-01-2011 20:20:01 8 C 7.44 g/m*3 8 C 0 km/h
945 06-01-2011 20:32:02 6.7 C 6.91 g/m*3 6.7 C 0 km/h
946 06-01-2011 20:44:02 8.1 C 7.41 g/m*3 8.1 C 0 km/h
947 06-01-2011 20:56:02 7 C 6.9 g/m*3 7 C 0 km/h
948 06-01-2011 21:08:02 7.3 C 7.03 g/m*3 7.3 C 0 km/h
949 06-01-2011 21:20:02 8.2 C 7.37 g/m*3 8.2 C 0 km/h
950 06-01-2011 21:32:02 9 C 7.58 g/m*3 9 C 0 km/h
Sensor: Nr:Datum:Temp:Abs-Feuchte:Windchill:Wind:
Aussen-T/F 951 06-01-2011 21:44:02 8.9 C 7.36 g/m*3 8.9 C 0 km/h
952 06-01-2011 21:56:02 9.4 C 7.42 g/m*3 9.4 C 0 km/h
953 06-01-2011 22:08:03 9.2 C 7.14 g/m*3 9.2 C 0 km/h
954 06-01-2011 22:21:04 10 C 7.24 g/m*3 10 C 0 km/h
955 06-01-2011 22:33:04 9.8 C 7.33 g/m*3 9.8 C 0 km/h
956 06-01-2011 22:45:04 9.1 C 6.92 g/m*3 9.1 C 0 km/h
957 06-01-2011 22:57:04 9.4 C 7.05 g/m*3 9.4 C 0 km/h
958 06-01-2011 23:09:04 8.8 C 6.7 g/m*3 8.8 C 0 km/h
959 06-01-2011 23:21:04 9.1 C 6.83 g/m*3 9.1 C 0 km/h
960 06-01-2011 23:33:04 9 C 7.14 g/m*3 9 C 0 km/h
961 06-01-2011 23:45:04 9.7 C 7.47 g/m*3 9.7 C 0 km/h
962 06-01-2011 23:57:04 8.8 C 6.88 g/m*3 8.8 C 0 km/h
963 07-01-2011 00:09:04 8.5 C 6.83 g/m*3 8.5 C 0 km/h
964 07-01-2011 00:21:04 7.6 C 6.61 g/m*3 7.6 C 0 km/h
965 07-01-2011 00:33:04 7 C 6.51 g/m*3 7 C 0 km/h
966 07-01-2011 00:45:04 7.3 C 6.79 g/m*3 7.3 C 0 km/h
967 07-01-2011 00:57:04 6.5 C 6.45 g/m*3 6.5 C 0 km/h
968 07-01-2011 01:09:04 6.4 C 6.48 g/m*3 6.4 C 0 km/h
969 07-01-2011 01:21:04 6.5 C 6.52 g/m*3 6.5 C 0 km/h
970 07-01-2011 01:33:04 6.8 C 6.73 g/m*3 6.8 C 0 km/h
971 07-01-2011 01:45:05 6.9 C 6.85 g/m*3 6.9 C 0 km/h
972 07-01-2011 01:57:05 6.6 C 6.72 g/m*3 6.6 C 0 km/h
973 07-01-2011 02:09:05 6 C 6.46 g/m*3 6 C 0 km/h
974 07-01-2011 02:21:05 5.8 C 6.45 g/m*3 5.8 C 0 km/h
975 07-01-2011 02:33:05 5.7 C 6.4 g/m*3 5.7 C 0 km/h
Sensor: Nr:Datum:Temp:Abs-Feuchte:Windchill:Wind:
Aussen-T/F 976 07-01-2011 02:45:05 5.8 C 6.45 g/m*3 5.8 C 0 km/h
977 07-01-2011 02:57:05 5.8 C 6.52 g/m*3 5.8 C 0 km/h
978 07-01-2011 03:09:05 5.7 C 6.48 g/m*3 5.7 C 0 km/h
979 07-01-2011 03:21:05 5.6 C 6.43 g/m*3 5.6 C 0 km/h
980 07-01-2011 03:33:05 5.6 C 6.43 g/m*3 5.6 C 0 km/h
981 07-01-2011 03:45:05 5.6 C 6.43 g/m*3 5.6 C 0 km/h
982 07-01-2011 03:57:05 5.6 C 6.43 g/m*3 5.6 C 0 km/h
983 07-01-2011 04:09:05 5.6 C 6.43 g/m*3 5.6 C 0 km/h
984 07-01-2011 04:21:05 5.5 C 6.39 g/m*3 5.5 C 0 km/h
985 07-01-2011 04:33:05 5.2 C 6.27 g/m*3 5.2 C 0 km/h
986 07-01-2011 04:45:05 5.2 C 6.27 g/m*3 5.2 C 0 km/h
987 07-01-2011 04:57:05 5.3 C 6.31 g/m*3 5.3 C 0 km/h
988 07-01-2011 05:09:05 5.6 C 6.5 g/m*3 5.6 C 0 km/h
989 07-01-2011 05:21:05 5.2 C 6.27 g/m*3 5.2 C 0 km/h
990 07-01-2011 05:33:05 5.3 C 6.38 g/m*3 5.3 C 0 km/h
991 07-01-2011 05:45:05 5.2 C 6.33 g/m*3 5.2 C 0 km/h
992 07-01-2011 05:57:06 5.1 C 6.22 g/m*3 5.1 C 0 km/h
993 07-01-2011 06:09:06 4.8 C 6.17 g/m*3 4.8 C 0 km/h
994 07-01-2011 06:21:06 4.9 C 6.21 g/m*3 4.9 C 0 km/h
995 07-01-2011 06:33:06 5 C 6.18 g/m*3 5 C 0 km/h
996 07-01-2011 06:45:06 5 C 6.18 g/m*3 5 C 0 km/h
997 07-01-2011 06:57:06 4.8 C 6.17 g/m*3 4.8 C 0 km/h
998 07-01-2011 07:09:06 5 C 6.25 g/m*3 5 C 0 km/h
999 07-01-2011 07:21:06 5 C 6.25 g/m*3 5 C 0 km/h
1000 07-01-2011 07:33:06 5 C 6.25 g/m*3 5 C 0 km/h
Sensor: Nr:Datum:Temp:Abs-Feuchte:Windchill:Wind:
Aussen-T/F 1001 07-01-2011 07:45:03 5.1 C 6.29 g/m*3 5.1 C 0 km/h
1002 07-01-2011 07:57:03 5.1 C 6.29 g/m*3 5.1 C 0 km/h
1003 07-01-2011 08:09:02 4.8 C 6.17 g/m*3 4.8 C 0 km/h
1004 07-01-2011 08:21:03 4.9 C 6.21 g/m*3 4.9 C 0 km/h
1005 07-01-2011 08:33:02 5 C 6.25 g/m*3 5 C 0 km/h
1006 07-01-2011 08:45:03 4.9 C 6.21 g/m*3 4.9 C 0 km/h
1007 07-01-2011 08:57:03 4.8 C 6.17 g/m*3 4.8 C 0 km/h
1008 07-01-2011 09:09:02 4.7 C 6.13 g/m*3 4.7 C 0 km/h
1009 07-01-2011 09:21:02 4.7 C 6.13 g/m*3 4.7 C 0 km/h
1010 07-01-2011 09:33:02 4.9 C 6.21 g/m*3 4.9 C 0 km/h
1011 07-01-2011 09:45:02 5 C 6.25 g/m*3 5 C 0 km/h
1012 07-01-2011 09:57:02 5.2 C 6.33 g/m*3 5.2 C 0 km/h
1013 07-01-2011 10:09:02 5.3 C 6.38 g/m*3 5.3 C 0 km/h
1014 07-01-2011 10:21:03 5.3 C 6.38 g/m*3 5.3 C 0 km/h
1015 07-01-2011 10:33:02 5.6 C 6.5 g/m*3 5.6 C 0 km/h
1016 07-01-2011 10:45:03 5.6 C 6.43 g/m*3 5.6 C 0 km/h
1017 07-01-2011 10:57:03 5.7 C 6.48 g/m*3 5.7 C 0 km/h
1018 07-01-2011 11:09:02 6 C 6.6 g/m*3 6 C 0 km/h
1019 07-01-2011 11:21:02 6.7 C 6.91 g/m*3 6.7 C 0 km/h
1020 07-01-2011 11:33:02 7.1 C 7.1 g/m*3 7.1 C 0 km/h
1021 07-01-2011 11:45:02 7 C 7.05 g/m*3 7 C 0 km/h
1022 07-01-2011 11:57:02 7 C 7.05 g/m*3 7 C 0 km/h
1023 07-01-2011 12:09:02 7.2 C 7.14 g/m*3 7.2 C 0 km/h
1024 07-01-2011 12:21:02 7.2 C 7.06 g/m*3 7.2 C 0 km/h
1025 07-01-2011 12:33:02 7.3 C 7.11 g/m*3 7.3 C 0 km/h
Sensor: Nr:Datum:Temp:Abs-Feuchte:Windchill:Wind:
Aussen-T/F 1026 07-01-2011 12:45:02 7.3 C 7.11 g/m*3 7.3 C 0 km/h
1027 07-01-2011 12:57:02 7.4 C 7.16 g/m*3 7.4 C 0 km/h
1028 07-01-2011 13:09:01 7.5 C 7.2 g/m*3 7.5 C 0 km/h
1029 07-01-2011 13:21:01 7.4 C 7.16 g/m*3 7.4 C 0 km/h
1030 07-01-2011 13:33:02 7.3 C 7.11 g/m*3 7.3 C 0 km/h
1031 07-01-2011 13:45:02 7.4 C 7.08 g/m*3 7.4 C 0 km/h
1032 07-01-2011 13:57:02 7.3 C 7.03 g/m*3 7.3 C 0 km/h
1033 07-01-2011 14:09:02 7.4 C 7.08 g/m*3 7.4 C 0 km/h
1034 07-01-2011 14:21:02 7.5 C 7.12 g/m*3 7.5 C 0 km/h
1035 07-01-2011 14:33:02 7.5 C 7.2 g/m*3 7.5 C 0 km/h
1036 07-01-2011 14:45:02 7.4 C 7.16 g/m*3 7.4 C 0 km/h
1037 07-01-2011 14:57:02 7.3 C 7.11 g/m*3 7.3 C 0 km/h
1038 07-01-2011 15:09:02 7.3 C 7.11 g/m*3 7.3 C 0 km/h
1039 07-01-2011 15:21:02 7.3 C 7.11 g/m*3 7.3 C 0 km/h
1040 07-01-2011 15:33:02 7.1 C 7.02 g/m*3 7.1 C 0 km/h
1041 07-01-2011 15:45:02 7.1 C 7.02 g/m*3 7.1 C 0 km/h
1042 07-01-2011 15:57:02 7.1 C 7.02 g/m*3 7.1 C 0 km/h
1043 07-01-2011 16:09:02 6.9 C 7.01 g/m*3 6.9 C 0 km/h
1044 07-01-2011 16:21:02 7.2 C 7.06 g/m*3 7.2 C 0 km/h
1045 07-01-2011 16:33:03 7.1 C 7.02 g/m*3 7.1 C 0 km/h
1046 07-01-2011 16:45:02 7 C 6.97 g/m*3 7 C 0 km/h
1047 07-01-2011 16:57:02 7.1 C 7.02 g/m*3 7.1 C 0 km/h
1048 07-01-2011 17:09:03 7.3 C 7.19 g/m*3 7.3 C 0 km/h
1049 07-01-2011 17:21:02 7.3 C 7.19 g/m*3 7.3 C 0 km/h
1050 07-01-2011 17:33:02 7.5 C 7.28 g/m*3 7.5 C 0 km/h
Sensor: Nr:Datum:Temp:Abs-Feuchte:Windchill:Wind:
Aussen-T/F 1051 07-01-2011 17:45:01 7.7 C 7.38 g/m*3 7.7 C 0 km/h
1052 07-01-2011 17:57:01 7.8 C 7.43 g/m*3 7.8 C 0 km/h
1053 07-01-2011 18:09:02 8.3 C 7.67 g/m*3 8.3 C 0 km/h
1054 07-01-2011 18:21:01 9.3 C 8.09 g/m*3 9.3 C 0 km/h
1055 07-01-2011 18:33:01 9.3 C 8.09 g/m*3 9.3 C 0 km/h
1056 07-01-2011 18:45:01 10 C 8.36 g/m*3 10 C 0 km/h
1057 07-01-2011 18:57:01 9.7 C 8.2 g/m*3 9.7 C 0 km/h
1058 07-01-2011 19:09:01 10.3 C 8.33 g/m*3 10.3 C 0 km/h
1059 07-01-2011 19:21:02 9.8 C 7.98 g/m*3 9.8 C 0 km/h
1060 07-01-2011 19:33:01 9.6 C 7.88 g/m*3 9.6 C 0 km/h
1061 07-01-2011 19:45:03 8.9 C 7.53 g/m*3 8.9 C 0 km/h
1062 07-01-2011 19:57:03 8.6 C 7.48 g/m*3 8.6 C 0 km/h
1063 07-01-2011 20:09:03 8.5 C 7.51 g/m*3 8.5 C 0 km/h
1064 07-01-2011 20:21:02 8.9 C 7.8 g/m*3 8.9 C 0 km/h
1065 07-01-2011 20:33:03 9.2 C 7.95 g/m*3 9.2 C 0 km/h
1066 07-01-2011 20:45:02 9 C 7.85 g/m*3 9 C 0 km/h
1067 07-01-2011 20:57:03 8.9 C 7.8 g/m*3 8.9 C 0 km/h
1068 07-01-2011 21:09:01 8.9 C 7.8 g/m*3 8.9 C 0 km/h
1069 07-01-2011 21:21:02 8.9 C 7.88 g/m*3 8.9 C 0 km/h
1070 07-01-2011 21:33:02 9 C 7.85 g/m*3 9 C 0 km/h
1071 07-01-2011 21:45:02 9.1 C 7.9 g/m*3 9.1 C 0 km/h
1072 07-01-2011 21:57:02 9.1 C 7.9 g/m*3 9.1 C 0 km/h
1073 07-01-2011 22:09:02 9 C 7.76 g/m*3 9 C 0 km/h
1074 07-01-2011 22:22:03 8.8 C 7.75 g/m*3 8.8 C 0 km/h
1075 07-01-2011 22:34:03 8.6 C 7.65 g/m*3 8.6 C 0 km/h
Sensor: Nr:Datum:Temp:Abs-Feuchte:Windchill:Wind:
Aussen-T/F 1076 07-01-2011 22:46:03 8.5 C 7.51 g/m*3 8.5 C 0 km/h
1077 07-01-2011 22:58:03 8.6 C 7.65 g/m*3 8.6 C 0 km/h
1078 07-01-2011 23:10:03 8.6 C 7.65 g/m*3 8.6 C 0 km/h
1079 07-01-2011 23:22:03 8.5 C 7.6 g/m*3 8.5 C 0 km/h
1080 07-01-2011 23:34:03 8.8 C 7.75 g/m*3 8.8 C 0 km/h
1081 07-01-2011 23:46:03 8.9 C 7.8 g/m*3 8.9 C 0 km/h
1082 07-01-2011 23:58:03 9 C 7.76 g/m*3 9 C 0 km/h
1083 08-01-2011 00:10:03 9.2 C 7.77 g/m*3 9.2 C 0 km/h
1084 08-01-2011 00:22:03 8.9 C 7.62 g/m*3 8.9 C 0 km/h
1085 08-01-2011 00:34:03 8.7 C 7.52 g/m*3 8.7 C 0 km/h
1086 08-01-2011 00:46:03 8.3 C 7.33 g/m*3 8.3 C 0 km/h
1087 08-01-2011 00:58:03 8.1 C 7.24 g/m*3 8.1 C 0 km/h
1088 08-01-2011 01:10:03 8 C 7.28 g/m*3 8 C 0 km/h
1089 08-01-2011 01:22:03 7.7 C 7.22 g/m*3 7.7 C 0 km/h
1090 08-01-2011 01:34:03 7.5 C 7.12 g/m*3 7.5 C 0 km/h
1091 08-01-2011 01:46:03 7.1 C 6.94 g/m*3 7.1 C 0 km/h
1092 08-01-2011 01:58:04 7 C 6.9 g/m*3 7 C 0 km/h
1093 08-01-2011 02:10:04 6.9 C 6.93 g/m*3 6.9 C 0 km/h
1094 08-01-2011 02:22:04 6.6 C 6.79 g/m*3 6.6 C 0 km/h
1095 08-01-2011 02:34:04 6.7 C 6.91 g/m*3 6.7 C 0 km/h
1096 08-01-2011 02:46:04 6.6 C 6.87 g/m*3 6.6 C 0 km/h
1097 08-01-2011 02:58:04 6.8 C 6.96 g/m*3 6.8 C 0 km/h
1098 08-01-2011 03:10:04 7 C 7.05 g/m*3 7 C 0 km/h
1099 08-01-2011 03:22:04 7.9 C 7.56 g/m*3 7.9 C 0 km/h
1100 08-01-2011 03:34:04 8.1 C 7.57 g/m*3 8.1 C 0 km/h
Sensor: Nr:Datum:Temp:Abs-Feuchte:Windchill:Wind:
Aussen-T/F 1101 08-01-2011 03:46:04 8.5 C 7.77 g/m*3 8.5 C 0 km/h
1102 08-01-2011 03:58:04 8.1 C 7.57 g/m*3 8.1 C 0 km/h
1103 08-01-2011 04:10:04 7.9 C 7.56 g/m*3 7.9 C 0 km/h
1104 08-01-2011 04:22:04 8.2 C 7.62 g/m*3 8.2 C 0 km/h
1105 08-01-2011 04:34:04 8.1 C 7.57 g/m*3 8.1 C 0 km/h
1106 08-01-2011 04:46:04 7.9 C 7.56 g/m*3 7.9 C 0 km/h
1107 08-01-2011 04:58:04 7.3 C 7.27 g/m*3 7.3 C 0 km/h
1108 08-01-2011 05:10:04 7.5 C 7.36 g/m*3 7.5 C 0 km/h
1109 08-01-2011 05:22:04 8 C 7.52 g/m*3 8 C 0 km/h
1110 08-01-2011 05:34:04 7.9 C 7.56 g/m*3 7.9 C 0 km/h
1111 08-01-2011 05:46:04 8.1 C 7.66 g/m*3 8.1 C 0 km/h
1112 08-01-2011 05:58:05 8.2 C 7.7 g/m*3 8.2 C 0 km/h
1113 08-01-2011 06:10:05 8.2 C 7.7 g/m*3 8.2 C 0 km/h
1114 08-01-2011 06:22:05 8.2 C 7.7 g/m*3 8.2 C 0 km/h
1115 08-01-2011 06:34:05 8 C 7.61 g/m*3 8 C 0 km/h
1116 08-01-2011 06:46:05 7.8 C 7.59 g/m*3 7.8 C 0 km/h
1117 08-01-2011 06:58:05 7.7 C 7.54 g/m*3 7.7 C 0 km/h
1118 08-01-2011 07:10:05 8 C 7.61 g/m*3 8 C 0 km/h
1119 08-01-2011 07:22:05 8 C 7.61 g/m*3 8 C 0 km/h
1120 08-01-2011 07:34:05 7.9 C 7.64 g/m*3 7.9 C 0 km/h
1121 08-01-2011 07:46:05 8.3 C 7.75 g/m*3 8.3 C 0 km/h
1122 08-01-2011 07:58:05 8.6 C 7.91 g/m*3 8.6 C 0 km/h
1123 08-01-2011 08:10:05 8.5 C 7.85 g/m*3 8.5 C 0 km/h
1124 08-01-2011 08:22:05 8.2 C 7.7 g/m*3 8.2 C 0 km/h
1125 08-01-2011 08:34:05 7.9 C 7.64 g/m*3 7.9 C 0 km/h
Sensor: Nr:Datum:Temp:Abs-Feuchte:Windchill:Wind:
Aussen-T/F 1126 08-01-2011 08:46:02 8.3 C 7.75 g/m*3 8.3 C 0 km/h
1127 08-01-2011 08:58:02 8.8 C 8.09 g/m*3 8.8 C 0 km/h
1128 08-01-2011 09:10:02 8.9 C 8.06 g/m*3 8.9 C 0 km/h
1129 08-01-2011 09:22:02 9.1 C 8.07 g/m*3 9.1 C 0 km/h
1130 08-01-2011 09:34:02 8.7 C 7.96 g/m*3 8.7 C 0 km/h
1131 08-01-2011 09:46:02 8.5 C 7.85 g/m*3 8.5 C 0 km/h
1132 08-01-2011 09:58:02 8.3 C 7.75 g/m*3 8.3 C 0 km/h
1133 08-01-2011 10:10:01 8 C 7.61 g/m*3 8 C 0 km/h
1134 08-01-2011 10:22:02 7.7 C 7.46 g/m*3 7.7 C 0 km/h
1135 08-01-2011 10:34:01 7.6 C 7.41 g/m*3 7.6 C 0 km/h
1136 08-01-2011 10:46:02 7.6 C 7.41 g/m*3 7.6 C 0 km/h
1137 08-01-2011 10:58:03 8 C 7.52 g/m*3 8 C 0 km/h
1138 08-01-2011 11:10:02 8.6 C 7.82 g/m*3 8.6 C 0 km/h
1139 08-01-2011 11:22:02 9.3 C 8.09 g/m*3 9.3 C 0 km/h
1140 08-01-2011 11:34:03 10.2 C 8.09 g/m*3 10.2 C 0 km/h
1141 08-01-2011 11:46:02 10.9 C 7.96 g/m*3 10.9 C 0 km/h
1142 08-01-2011 11:58:02 12 C 7.25 g/m*3 12 C 0 km/h
1143 08-01-2011 12:10:02 12.1 C 6.97 g/m*3 12.1 C 0 km/h
1144 08-01-2011 12:22:01 12.7 C 6.57 g/m*3 12.7 C 0 km/h
1145 08-01-2011 12:34:02 13.1 C 6.39 g/m*3 13.1 C 0 km/h
1146 08-01-2011 12:46:02 13.8 C 6.55 g/m*3 13.8 C 0 km/h
1147 08-01-2011 12:58:02 13.8 C 6.43 g/m*3 13.8 C 0 km/h
1148 08-01-2011 13:10:02 13.9 C 6.35 g/m*3 13.9 C 0 km/h
1149 08-01-2011 13:22:01 14 C 6.27 g/m*3 14 C 0 km/h
1150 08-01-2011 13:34:02 14.1 C 5.95 g/m*3 14.1 C 0 km/h
Sensor: Nr:Datum:Temp:Abs-Feuchte:Windchill:Wind:
Aussen-T/F 1151 08-01-2011 13:46:02 14.4 C 5.93 g/m*3 14.4 C 0 km/h
1152 08-01-2011 13:58:02 14.5 C 5.85 g/m*3 14.5 C 0 km/h
1153 08-01-2011 14:10:02 14.5 C 5.85 g/m*3 14.5 C 0 km/h
1154 08-01-2011 14:22:02 14.7 C 5.79 g/m*3 14.7 C 0 km/h
1155 08-01-2011 14:34:02 14.5 C 5.85 g/m*3 14.5 C 0 km/h
1156 08-01-2011 14:46:02 14.3 C 5.9 g/m*3 14.3 C 0 km/h
1157 08-01-2011 14:58:02 14 C 5.91 g/m*3 14 C 0 km/h
1158 08-01-2011 15:10:02 14.3 C 5.9 g/m*3 14.3 C 0 km/h
1159 08-01-2011 15:22:02 14 C 6.03 g/m*3 14 C 0 km/h
1160 08-01-2011 15:34:01 14 C 5.79 g/m*3 14 C 0 km/h
1161 08-01-2011 15:46:02 14.2 C 5.74 g/m*3 14.2 C 0 km/h
1162 08-01-2011 15:58:02 14.1 C 5.83 g/m*3 14.1 C 0 km/h
1163 08-01-2011 16:10:01 14 C 5.79 g/m*3 14 C 0 km/h
1164 08-01-2011 16:22:02 13.8 C 5.96 g/m*3 13.8 C 0 km/h
1165 08-01-2011 16:34:02 12.8 C 6.05 g/m*3 12.8 C 0 km/h
1166 08-01-2011 16:46:02 13.7 C 5.8 g/m*3 13.7 C 0 km/h
1167 08-01-2011 16:58:02 13.7 C 5.68 g/m*3 13.7 C 0 km/h
1168 08-01-2011 17:10:02 13.2 C 5.86 g/m*3 13.2 C 0 km/h
1169 08-01-2011 17:22:02 13.4 C 5.93 g/m*3 13.4 C 0 km/h
1170 08-01-2011 17:34:02 13.3 C 6.01 g/m*3 13.3 C 0 km/h
1171 08-01-2011 17:46:01 13.5 C 5.85 g/m*3 13.5 C 0 km/h
1172 08-01-2011 17:58:01 13 C 5.9 g/m*3 13 C 0 km/h
1173 08-01-2011 18:10:02 13.5 C 5.97 g/m*3 13.5 C 0 km/h
1174 08-01-2011 18:22:01 13.2 C 5.86 g/m*3 13.2 C 0 km/h
1175 08-01-2011 18:34:01 13.7 C 5.8 g/m*3 13.7 C 0 km/h
Sensor: Nr:Datum:Temp:Abs-Feuchte:Windchill:Wind:
Aussen-T/F 1176 08-01-2011 18:46:01 13.5 C 5.85 g/m*3 13.5 C 0 km/h
1177 08-01-2011 18:58:01 13.3 C 5.89 g/m*3 13.3 C 0 km/h
1178 08-01-2011 19:10:02 13 C 6.01 g/m*3 13 C 0 km/h
1179 08-01-2011 19:22:01 13.1 C 5.93 g/m*3 13.1 C 0 km/h
1180 08-01-2011 19:34:01 13.3 C 5.89 g/m*3 13.3 C 0 km/h
1181 08-01-2011 19:46:01 13.2 C 5.86 g/m*3 13.2 C 0 km/h
1182 08-01-2011 19:58:01 13.2 C 5.97 g/m*3 13.2 C 0 km/h
1183 08-01-2011 20:10:02 13.2 C 5.97 g/m*3 13.2 C 0 km/h
1184 08-01-2011 20:22:02 12.7 C 6.12 g/m*3 12.7 C 0 km/h
1185 08-01-2011 20:34:01 11.8 C 6.53 g/m*3 11.8 C 0 km/h
1186 08-01-2011 20:46:02 12.1 C 6.54 g/m*3 12.1 C 0 km/h
1187 08-01-2011 20:58:02 11.8 C 6.53 g/m*3 11.8 C 0 km/h
1188 08-01-2011 21:10:01 11.4 C 6.57 g/m*3 11.4 C 0 km/h
1189 08-01-2011 21:22:02 11.8 C 6.63 g/m*3 11.8 C 0 km/h
1190 08-01-2011 21:34:01 12.2 C 6.58 g/m*3 12.2 C 0 km/h
1191 08-01-2011 21:46:02 12.5 C 6.82 g/m*3 12.5 C 0 km/h
1192 08-01-2011 21:58:02 12.3 C 6.41 g/m*3 12.3 C 0 km/h
1193 08-01-2011 22:10:03 12.5 C 6.38 g/m*3 12.5 C 0 km/h
1194 08-01-2011 22:22:02 12.3 C 6.3 g/m*3 12.3 C 0 km/h
1195 08-01-2011 22:35:03 11.8 C 6.63 g/m*3 11.8 C 0 km/h
1196 08-01-2011 22:47:03 12.2 C 6.58 g/m*3 12.2 C 0 km/h
1197 08-01-2011 22:59:03 10.9 C 6.86 g/m*3 10.9 C 0 km/h
1198 08-01-2011 23:11:03 10.5 C 6.98 g/m*3 10.5 C 0 km/h
1199 08-01-2011 23:23:03 10.6 C 7.12 g/m*3 10.6 C 0 km/h
1200 08-01-2011 23:35:03 10.3 C 7.18 g/m*3 10.3 C 0 km/h
Sensor: Nr:Datum:Temp:Abs-Feuchte:Windchill:Wind:
Aussen-T/F 1201 08-01-2011 23:47:03 10.2 C 7.14 g/m*3 10.2 C 0 km/h
1202 08-01-2011 23:59:03 10 C 7.24 g/m*3 10 C 0 km/h
1203 09-01-2011 00:11:03 9.8 C 7.42 g/m*3 9.8 C 0 km/h
1204 09-01-2011 00:23:04 9.7 C 7.56 g/m*3 9.7 C 0 km/h
1205 09-01-2011 00:35:04 9.6 C 7.69 g/m*3 9.6 C 0 km/h
1206 09-01-2011 00:47:04 9.6 C 7.79 g/m*3 9.6 C 0 km/h
1207 09-01-2011 00:59:04 9.5 C 7.83 g/m*3 9.5 C 0 km/h
1208 09-01-2011 01:11:04 9.5 C 7.92 g/m*3 9.5 C 0 km/h
1209 09-01-2011 01:23:04 9.7 C 8.02 g/m*3 9.7 C 0 km/h
1210 09-01-2011 01:35:04 9.6 C 7.97 g/m*3 9.6 C 0 km/h
1211 09-01-2011 01:47:04 9.7 C 8.02 g/m*3 9.7 C 0 km/h
1212 09-01-2011 01:59:04 9.6 C 7.97 g/m*3 9.6 C 0 km/h
1213 09-01-2011 02:11:04 9.8 C 8.07 g/m*3 9.8 C 0 km/h
1214 09-01-2011 02:23:04 10 C 7.99 g/m*3 10 C 0 km/h
1215 09-01-2011 02:35:04 9.8 C 7.98 g/m*3 9.8 C 0 km/h
1216 09-01-2011 02:47:04 9.7 C 7.84 g/m*3 9.7 C 0 km/h
1217 09-01-2011 02:59:04 9.6 C 7.79 g/m*3 9.6 C 0 km/h
1218 09-01-2011 03:11:04 9.5 C 7.83 g/m*3 9.5 C 0 km/h
1219 09-01-2011 03:23:04 9.4 C 7.78 g/m*3 9.4 C 0 km/h
1220 09-01-2011 03:35:04 9.2 C 7.68 g/m*3 9.2 C 0 km/h
1221 09-01-2011 03:47:04 9.2 C 7.77 g/m*3 9.2 C 0 km/h
1222 09-01-2011 03:59:04 9.3 C 7.82 g/m*3 9.3 C 0 km/h
1223 09-01-2011 04:11:04 9.7 C 7.93 g/m*3 9.7 C 0 km/h
1224 09-01-2011 04:23:05 10.8 C 7.91 g/m*3 10.8 C 0 km/h
1225 09-01-2011 04:35:05 11 C 7.51 g/m*3 11 C 0 km/h
Sensor: Nr:Datum:Temp:Abs-Feuchte:Windchill:Wind:
Aussen-T/F 1226 09-01-2011 04:47:05 11.5 C 7.23 g/m*3 11.5 C 0 km/h
1227 09-01-2011 04:59:05 11.6 C 7.28 g/m*3 11.6 C 0 km/h
1228 09-01-2011 05:11:05 11.8 C 7.26 g/m*3 11.8 C 0 km/h
1229 09-01-2011 05:23:05 11.5 C 7.23 g/m*3 11.5 C 0 km/h
1230 09-01-2011 05:35:05 11.7 C 7.22 g/m*3 11.7 C 0 km/h
1231 09-01-2011 05:47:05 11.1 C 7.15 g/m*3 11.1 C 0 km/h
1232 09-01-2011 05:59:05 9.3 C 6.65 g/m*3 9.3 C 0 km/h
1233 09-01-2011 06:11:05 8 C 6.45 g/m*3 8 C 0 km/h
1234 09-01-2011 06:23:05 7.5 C 6.48 g/m*3 7.5 C 0 km/h
1235 09-01-2011 06:35:05 7.2 C 6.52 g/m*3 7.2 C 0 km/h
1236 09-01-2011 06:47:05 7 C 6.59 g/m*3 7 C 0 km/h
1237 09-01-2011 06:59:05 6.8 C 6.65 g/m*3 6.8 C 0 km/h
1238 09-01-2011 07:11:05 6.6 C 6.57 g/m*3 6.6 C 0 km/h
1239 09-01-2011 07:23:05 6.4 C 6.48 g/m*3 6.4 C 0 km/h
1240 09-01-2011 07:35:05 6.2 C 6.4 g/m*3 6.2 C 0 km/h
1241 09-01-2011 07:47:05 5.8 C 6.3 g/m*3 5.8 C 0 km/h
1242 09-01-2011 07:59:05 5.6 C 6.22 g/m*3 5.6 C 0 km/h
1243 09-01-2011 08:11:05 5.5 C 6.18 g/m*3 5.5 C 0 km/h
1244 09-01-2011 08:23:05 5.3 C 6.1 g/m*3 5.3 C 0 km/h
1245 09-01-2011 08:35:06 5.3 C 6.1 g/m*3 5.3 C 0 km/h
1246 09-01-2011 08:47:02 5 C 5.98 g/m*3 5 C 0 km/h
1247 09-01-2011 08:59:03 4.7 C 5.86 g/m*3 4.7 C 0 km/h
1248 09-01-2011 09:11:02 4.3 C 5.64 g/m*3 4.3 C 0 km/h
1249 09-01-2011 09:23:02 4.3 C 5.58 g/m*3 4.3 C 0 km/h
1250 09-01-2011 09:35:03 4 C 5.47 g/m*3 4 C 0 km/h
Sensor: Nr:Datum:Temp:Abs-Feuchte:Windchill:Wind:
Aussen-T/F 1251 09-01-2011 09:47:01 3.8 C 5.46 g/m*3 3.8 C 0 km/h
1252 09-01-2011 09:59:01 3.5 C 5.35 g/m*3 3.5 C 0 km/h
1253 09-01-2011 10:11:02 3 C 5.17 g/m*3 3 C 0 km/h
1254 09-01-2011 10:23:01 2.9 C 5.14 g/m*3 2.9 C 0 km/h
1255 09-01-2011 10:35:01 2.8 C 5.1 g/m*3 2.8 C 0 km/h
1256 09-01-2011 10:47:01 3 C 5.17 g/m*3 3 C 0 km/h
1257 09-01-2011 10:59:01 3.4 C 5.31 g/m*3 3.4 C 0 km/h
1258 09-01-2011 11:11:01 3.9 C 5.56 g/m*3 3.9 C 0 km/h
1259 09-01-2011 11:23:02 4.1 C 5.5 g/m*3 4.1 C 0 km/h
1260 09-01-2011 11:35:01 4.1 C 5.44 g/m*3 4.1 C 0 km/h
1261 09-01-2011 11:47:02 4.1 C 5.38 g/m*3 4.1 C 0 km/h
1262 09-01-2011 11:59:02 4.3 C 5.45 g/m*3 4.3 C 0 km/h
1263 09-01-2011 12:11:01 4.3 C 5.38 g/m*3 4.3 C 0 km/h
1264 09-01-2011 12:23:02 4.5 C 5.39 g/m*3 4.5 C 0 km/h
1265 09-01-2011 12:35:01 4.6 C 5.36 g/m*3 4.6 C 0 km/h
1266 09-01-2011 12:47:02 4.8 C 5.43 g/m*3 4.8 C 0 km/h
1267 09-01-2011 12:59:02 4.6 C 5.36 g/m*3 4.6 C 0 km/h
1268 09-01-2011 13:11:02 4.8 C 5.43 g/m*3 4.8 C 0 km/h
1269 09-01-2011 13:23:02 5.1 C 5.34 g/m*3 5.1 C 0 km/h
1270 09-01-2011 13:35:02 5.1 C 5.34 g/m*3 5.1 C 0 km/h
1271 09-01-2011 13:47:02 5.2 C 5.23 g/m*3 5.2 C 0 km/h
1272 09-01-2011 13:59:02 5.2 C 5.3 g/m*3 5.2 C 0 km/h
1273 09-01-2011 14:11:01 5.2 C 5.23 g/m*3 5.2 C 0 km/h
1274 09-01-2011 14:23:01 5.3 C 5.27 g/m*3 5.3 C 0 km/h
1275 09-01-2011 14:35:02 5.3 C 5.27 g/m*3 5.3 C 0 km/h
Sensor: Nr:Datum:Temp:Abs-Feuchte:Windchill:Wind:
Aussen-T/F 1276 09-01-2011 14:47:02 5.2 C 5.3 g/m*3 5.2 C 0 km/h
1277 09-01-2011 14:59:02 5.2 C 5.23 g/m*3 5.2 C 0 km/h
1278 09-01-2011 15:11:02 5 C 5.37 g/m*3 5 C 0 km/h
1279 09-01-2011 15:23:02 4.8 C 5.5 g/m*3 4.8 C 0 km/h
1280 09-01-2011 15:35:02 4.6 C 5.49 g/m*3 4.6 C 0 km/h
1281 09-01-2011 15:47:02 4.4 C 5.42 g/m*3 4.4 C 0 km/h
1282 09-01-2011 15:59:02 4.1 C 5.38 g/m*3 4.1 C 0 km/h
1283 09-01-2011 16:11:02 3.8 C 5.4 g/m*3 3.8 C 0 km/h
1284 09-01-2011 16:23:02 3.4 C 5.31 g/m*3 3.4 C 0 km/h
1285 09-01-2011 16:35:02 3.2 C 5.24 g/m*3 3.2 C 0 km/h
1286 09-01-2011 16:47:02 3 C 5.23 g/m*3 3 C 0 km/h
1287 09-01-2011 16:59:02 2.9 C 5.26 g/m*3 2.9 C 0 km/h
1288 09-01-2011 17:11:02 3.2 C 5.36 g/m*3 3.2 C 0 km/h
1289 09-01-2011 17:23:02 2.9 C 5.26 g/m*3 2.9 C 0 km/h
1290 09-01-2011 17:35:02 2.7 C 5.19 g/m*3 2.7 C 0 km/h
1291 09-01-2011 17:47:02 2.6 C 5.21 g/m*3 2.6 C 0 km/h
1292 09-01-2011 17:59:02 2.5 C 5.17 g/m*3 2.5 C 0 km/h
1293 09-01-2011 18:11:02 2.2 C 5.07 g/m*3 2.2 C 0 km/h
1294 09-01-2011 18:23:03 1.9 C 5.02 g/m*3 1.9 C 0 km/h
1295 09-01-2011 18:35:02 1.7 C 4.95 g/m*3 1.7 C 0 km/h
1296 09-01-2011 18:47:02 1.5 C 4.89 g/m*3 1.5 C 0 km/h
1297 09-01-2011 18:59:02 1.5 C 4.89 g/m*3 1.5 C 0 km/h
1298 09-01-2011 19:11:02 1.6 C 4.97 g/m*3 1.6 C 0 km/h
1299 09-01-2011 19:23:02 1.7 C 5.01 g/m*3 1.7 C 0 km/h
1300 09-01-2011 19:35:02 2 C 5.11 g/m*3 2 C 0 km/h
Sensor: Nr:Datum:Temp:Abs-Feuchte:Windchill:Wind:
Aussen-T/F 1301 09-01-2011 19:47:02 1.9 C 5.08 g/m*3 1.9 C 0 km/h
1302 09-01-2011 19:59:02 1.8 C 5.04 g/m*3 1.8 C 0 km/h
1303 09-01-2011 20:11:02 1.4 C 4.91 g/m*3 1.4 C 0 km/h
1304 09-01-2011 20:23:02 1.5 C 4.94 g/m*3 1.5 C 0 km/h
1305 09-01-2011 20:35:02 1.5 C 4.94 g/m*3 1.5 C 0 km/h
1306 09-01-2011 20:47:02 1 C 4.72 g/m*3 1 C 0 km/h
1307 09-01-2011 20:59:02 0.8 C 4.71 g/m*3 0.8 C 0 km/h
1308 09-01-2011 21:11:02 0.5 C 4.61 g/m*3 0.5 C 0 km/h
1309 09-01-2011 21:23:02 0.3 C 4.55 g/m*3 0.3 C 0 km/h
1310 09-01-2011 21:35:01 0.9 C 4.79 g/m*3 0.9 C 0 km/h
1311 09-01-2011 21:47:02 0.8 C 4.71 g/m*3 0.8 C 0 km/h
1312 09-01-2011 21:59:02 0.7 C 4.73 g/m*3 0.7 C 0 km/h
1313 09-01-2011 22:11:02 0.2 C 4.52 g/m*3 0.2 C 0 km/h
1314 09-01-2011 22:23:02 0.3 C 4.6 g/m*3 0.3 C 0 km/h
1315 09-01-2011 22:36:02 0 C 4.46 g/m*3 0 C 0 km/h
1316 09-01-2011 22:48:02 -0.2 C 4.4 g/m*3 -0.2 C 0 km/h
1317 09-01-2011 23:00:02 0.1 C 4.54 g/m*3 0.1 C 0 km/h
1318 09-01-2011 23:12:02 0.2 C 4.57 g/m*3 0.2 C 0 km/h
1319 09-01-2011 23:24:02 -0.3 C 4.41 g/m*3 -0.3 C 0 km/h
1320 09-01-2011 23:36:02 0.1 C 4.54 g/m*3 0.1 C 0 km/h
1321 09-01-2011 23:48:02 0 C 4.51 g/m*3 0 C 0 km/h
1322 10-01-2011 00:00:02 0.3 C 4.6 g/m*3 0.3 C 0 km/h
1323 10-01-2011 00:12:02 0.6 C 4.7 g/m*3 0.6 C 0 km/h
1324 10-01-2011 00:24:02 0.3 C 4.6 g/m*3 0.3 C 0 km/h
1325 10-01-2011 00:36:02 -0.2 C 4.44 g/m*3 -0.2 C 0 km/h
Sensor: Nr:Datum:Temp:Abs-Feuchte:Windchill:Wind:
Aussen-T/F 1326 10-01-2011 00:48:02 -0.2 C 4.44 g/m*3 -0.2 C 0 km/h
1327 10-01-2011 01:00:02 0.2 C 4.57 g/m*3 0.2 C 0 km/h
1328 10-01-2011 01:12:02 0.3 C 4.6 g/m*3 0.3 C 0 km/h
1329 10-01-2011 01:24:02 0.4 C 4.63 g/m*3 0.4 C 0 km/h
1330 10-01-2011 01:36:02 0.3 C 4.65 g/m*3 0.3 C 0 km/h
1331 10-01-2011 01:48:02 0.2 C 4.62 g/m*3 0.2 C 0 km/h
1332 10-01-2011 02:00:02 0.2 C 4.62 g/m*3 0.2 C 0 km/h
1333 10-01-2011 02:12:02 0.1 C 4.54 g/m*3 0.1 C 0 km/h
1334 10-01-2011 02:24:02 0 C 4.55 g/m*3 0 C 0 km/h
1335 10-01-2011 02:36:03 -0.1 C 4.52 g/m*3 -0.1 C 0 km/h
1336 10-01-2011 02:48:03 -0.1 C 4.52 g/m*3 -0.1 C 0 km/h
1337 10-01-2011 03:00:03 0 C 4.55 g/m*3 0 C 0 km/h
1338 10-01-2011 03:12:03 0.2 C 4.62 g/m*3 0.2 C 0 km/h
1339 10-01-2011 03:24:03 0.3 C 4.65 g/m*3 0.3 C 0 km/h
1340 10-01-2011 03:36:03 0.2 C 4.62 g/m*3 0.2 C 0 km/h
1341 10-01-2011 03:48:03 0.3 C 4.65 g/m*3 0.3 C 0 km/h
1342 10-01-2011 04:00:03 0.4 C 4.68 g/m*3 0.4 C 0 km/h
1343 10-01-2011 04:12:03 0.4 C 4.68 g/m*3 0.4 C 0 km/h
1344 10-01-2011 04:24:03 0.4 C 4.68 g/m*3 0.4 C 0 km/h
1345 10-01-2011 04:36:03 0.4 C 4.68 g/m*3 0.4 C 0 km/h
1346 10-01-2011 04:48:03 0.3 C 4.65 g/m*3 0.3 C 0 km/h
1347 10-01-2011 05:00:03 0.3 C 4.65 g/m*3 0.3 C 0 km/h
1348 10-01-2011 05:12:03 0.3 C 4.65 g/m*3 0.3 C 0 km/h
1349 10-01-2011 05:24:03 0.2 C 4.62 g/m*3 0.2 C 0 km/h
1350 10-01-2011 05:36:03 0.3 C 4.65 g/m*3 0.3 C 0 km/h
Sensor: Nr:Datum:Temp:Abs-Feuchte:Windchill:Wind:
Aussen-T/F 1351 10-01-2011 05:48:03 0.2 C 4.57 g/m*3 0.2 C 0 km/h
1352 10-01-2011 06:00:03 0.2 C 4.57 g/m*3 0.2 C 0 km/h
1353 10-01-2011 06:12:03 0.2 C 4.57 g/m*3 0.2 C 0 km/h
1354 10-01-2011 06:24:03 0.2 C 4.57 g/m*3 0.2 C 0 km/h
1355 10-01-2011 06:36:04 0.2 C 4.57 g/m*3 0.2 C 0 km/h
1356 10-01-2011 06:48:04 0.2 C 4.57 g/m*3 0.2 C 0 km/h
1357 10-01-2011 07:00:04 0.2 C 4.57 g/m*3 0.2 C 0 km/h
1358 10-01-2011 07:12:01 -0.1 C 4.47 g/m*3 -0.1 C 0 km/h
1359 10-01-2011 07:24:02 0 C 4.51 g/m*3 0 C 0 km/h
1360 10-01-2011 07:36:01 0.1 C 4.54 g/m*3 0.1 C 0 km/h
1361 10-01-2011 07:48:02 0.3 C 4.6 g/m*3 0.3 C 0 km/h
1362 10-01-2011 08:00:02 0.3 C 4.6 g/m*3 0.3 C 0 km/h
1363 10-01-2011 08:12:01 0.2 C 4.52 g/m*3 0.2 C 0 km/h
1364 10-01-2011 08:24:02 0.2 C 4.52 g/m*3 0.2 C 0 km/h
1365 10-01-2011 08:36:01 0.1 C 4.44 g/m*3 0.1 C 0 km/h
1366 10-01-2011 08:48:03 0.1 C 4.44 g/m*3 0.1 C 0 km/h
1367 10-01-2011 09:00:03 0.2 C 4.47 g/m*3 0.2 C 0 km/h
1368 10-01-2011 09:12:02 0.3 C 4.45 g/m*3 0.3 C 0 km/h
1369 10-01-2011 09:24:02 0.4 C 4.48 g/m*3 0.4 C 0 km/h
1370 10-01-2011 09:36:02 0.3 C 4.4 g/m*3 0.3 C 0 km/h
1371 10-01-2011 09:48:02 0.4 C 4.43 g/m*3 0.4 C 0 km/h
1372 10-01-2011 10:00:02 0.5 C 4.41 g/m*3 0.5 C 0 km/h
1373 10-01-2011 10:12:02 0.2 C 4.27 g/m*3 0.2 C 0 km/h
1374 10-01-2011 10:24:02 0.5 C 4.36 g/m*3 0.5 C 0 km/h
1375 10-01-2011 10:36:02 0.7 C 4.37 g/m*3 0.7 C 0 km/h
Sensor: Nr:Datum:Temp:Abs-Feuchte:Windchill:Wind:
Aussen-T/F 1376 10-01-2011 10:48:02 0.8 C 4.4 g/m*3 0.8 C 0 km/h
1377 10-01-2011 11:00:02 1.1 C 4.39 g/m*3 1.1 C 0 km/h
1378 10-01-2011 11:12:01 0.5 C 4.16 g/m*3 0.5 C 0 km/h
1379 10-01-2011 11:24:01 0.8 C 4.2 g/m*3 0.8 C 0 km/h
1380 10-01-2011 11:36:02 0.8 C 4.15 g/m*3 0.8 C 0 km/h
1381 10-01-2011 11:48:02 1.2 C 4.21 g/m*3 1.2 C 0 km/h
1382 10-01-2011 12:00:02 1.3 C 4.24 g/m*3 1.3 C 0 km/h
1383 10-01-2011 12:12:02 1.7 C 4.3 g/m*3 1.7 C 0 km/h
1384 10-01-2011 12:24:01 2.1 C 4.36 g/m*3 2.1 C 0 km/h
1385 10-01-2011 12:36:02 2 C 4.33 g/m*3 2 C 0 km/h
1386 10-01-2011 12:48:02 1.8 C 4.28 g/m*3 1.8 C 0 km/h
1387 10-01-2011 13:00:02 2.1 C 4.36 g/m*3 2.1 C 0 km/h
1388 10-01-2011 13:12:02 2 C 4.33 g/m*3 2 C 0 km/h
1389 10-01-2011 13:24:01 2 C 4.39 g/m*3 2 C 0 km/h
1390 10-01-2011 13:36:02 2.2 C 4.45 g/m*3 2.2 C 0 km/h
1391 10-01-2011 13:48:02 2.2 C 4.39 g/m*3 2.2 C 0 km/h
1392 10-01-2011 14:00:02 2.4 C 4.45 g/m*3 2.4 C 0 km/h
1393 10-01-2011 14:12:02 2.5 C 4.48 g/m*3 2.5 C 0 km/h
1394 10-01-2011 14:24:02 2.3 C 4.48 g/m*3 2.3 C 0 km/h
1395 10-01-2011 14:36:02 2.1 C 4.36 g/m*3 2.1 C 0 km/h
1396 10-01-2011 14:48:02 2 C 4.33 g/m*3 2 C 0 km/h
1397 10-01-2011 15:00:02 2 C 4.33 g/m*3 2 C 0 km/h
1398 10-01-2011 15:12:02 2.1 C 4.36 g/m*3 2.1 C 0 km/h
1399 10-01-2011 15:24:02 2.1 C 4.36 g/m*3 2.1 C 0 km/h
1400 10-01-2011 15:36:01 2.2 C 4.39 g/m*3 2.2 C 0 km/h
Sensor: Nr:Datum:Temp:Abs-Feuchte:Windchill:Wind:
Aussen-T/F 1401 10-01-2011 15:48:02 2.1 C 4.36 g/m*3 2.1 C 0 km/h
1402 10-01-2011 16:00:02 2.1 C 4.36 g/m*3 2.1 C 0 km/h
1403 10-01-2011 16:12:01 2 C 4.33 g/m*3 2 C 0 km/h
1404 10-01-2011 16:24:02 1.9 C 4.36 g/m*3 1.9 C 0 km/h
1405 10-01-2011 16:36:02 1.8 C 4.33 g/m*3 1.8 C 0 km/h
1406 10-01-2011 16:48:02 1.5 C 4.24 g/m*3 1.5 C 0 km/h
1407 10-01-2011 17:00:02 1.2 C 4.21 g/m*3 1.2 C 0 km/h
1408 10-01-2011 17:12:02 0.8 C 4.2 g/m*3 0.8 C 0 km/h
1409 10-01-2011 17:24:02 0.7 C 4.22 g/m*3 0.7 C 0 km/h
1410 10-01-2011 17:36:02 0.7 C 4.27 g/m*3 0.7 C 0 km/h
1411 10-01-2011 17:48:02 0.8 C 4.3 g/m*3 0.8 C 0 km/h
1412 10-01-2011 18:00:02 0.7 C 4.27 g/m*3 0.7 C 0 km/h
1413 10-01-2011 18:12:01 0.4 C 4.18 g/m*3 0.4 C 0 km/h
1414 10-01-2011 18:24:02 0.1 C 4.1 g/m*3 0.1 C 0 km/h
1415 10-01-2011 18:36:02 -0.1 C 4.09 g/m*3 -0.1 C 0 km/h
1416 10-01-2011 18:48:02 0 C 4.17 g/m*3 0 C 0 km/h
1417 10-01-2011 19:00:02 0.1 C 4.24 g/m*3 0.1 C 0 km/h
1418 10-01-2011 19:12:02 0.2 C 4.27 g/m*3 0.2 C 0 km/h
1419 10-01-2011 19:24:02 0.2 C 4.32 g/m*3 0.2 C 0 km/h
1420 10-01-2011 19:36:02 0.4 C 4.38 g/m*3 0.4 C 0 km/h
1421 10-01-2011 19:48:02 0.4 C 4.38 g/m*3 0.4 C 0 km/h
1422 10-01-2011 20:00:02 0.4 C 4.38 g/m*3 0.4 C 0 km/h
1423 10-01-2011 20:12:02 0.6 C 4.39 g/m*3 0.6 C 0 km/h
1424 10-01-2011 20:24:01 0.8 C 4.4 g/m*3 0.8 C 0 km/h
1425 10-01-2011 20:36:02 0.8 C 4.3 g/m*3 0.8 C 0 km/h
Sensor: Nr:Datum:Temp:Abs-Feuchte:Windchill:Wind:
Aussen-T/F 1426 10-01-2011 20:48:02 0.8 C 4.25 g/m*3 0.8 C 0 km/h
1427 10-01-2011 21:00:02 0.7 C 4.12 g/m*3 0.7 C 0 km/h
1428 10-01-2011 21:12:02 0.6 C 4.04 g/m*3 0.6 C 0 km/h
1429 10-01-2011 21:24:01 0.5 C 4.01 g/m*3 0.5 C 0 km/h
1430 10-01-2011 21:36:02 0.5 C 4.01 g/m*3 0.5 C 0 km/h
1431 10-01-2011 21:48:02 0.5 C 4.01 g/m*3 0.5 C 0 km/h
1432 10-01-2011 22:00:02 0.5 C 4.06 g/m*3 0.5 C 0 km/h
1433 10-01-2011 22:12:02 0.5 C 4.06 g/m*3 0.5 C 0 km/h
1434 10-01-2011 22:25:04 0.5 C 4.06 g/m*3 0.5 C 0 km/h
1435 10-01-2011 22:37:04 0.5 C 4.06 g/m*3 0.5 C 0 km/h
1436 10-01-2011 22:49:04 0.5 C 4.01 g/m*3 0.5 C 0 km/h
1437 10-01-2011 23:01:04 0.5 C 4.01 g/m*3 0.5 C 0 km/h
1438 10-01-2011 23:13:04 0.5 C 4.01 g/m*3 0.5 C 0 km/h
1439 10-01-2011 23:25:04 0.5 C 4.01 g/m*3 0.5 C 0 km/h
1440 10-01-2011 23:37:04 0.6 C 4.09 g/m*3 0.6 C 0 km/h
1441 10-01-2011 23:49:04 0.6 C 4.09 g/m*3 0.6 C 0 km/h
1442 11-01-2011 00:01:04 0.6 C 4.04 g/m*3 0.6 C 0 km/h
1443 11-01-2011 00:13:05 0.5 C 3.96 g/m*3 0.5 C 0 km/h
1444 11-01-2011 00:25:05 0.3 C 3.96 g/m*3 0.3 C 0 km/h
1445 11-01-2011 00:37:05 -0.2 C 3.82 g/m*3 -0.2 C 0 km/h
1446 11-01-2011 00:49:05 -0.4 C 3.86 g/m*3 -0.4 C 0 km/h
1447 11-01-2011 01:01:05 -0.2 C 4.01 g/m*3 -0.2 C 0 km/h
1448 11-01-2011 01:13:05 -0.1 C 4.04 g/m*3 -0.1 C 0 km/h
1449 11-01-2011 01:25:05 -0.4 C 4.01 g/m*3 -0.4 C 0 km/h
1450 11-01-2011 01:37:05 -0.1 C 4.14 g/m*3 -0.1 C 0 km/h
Sensor: Nr:Datum:Temp:Abs-Feuchte:Windchill:Wind:
Aussen-T/F 1451 11-01-2011 01:49:05 0.2 C 4.22 g/m*3 0.2 C 0 km/h
1452 11-01-2011 02:01:05 0.6 C 4.29 g/m*3 0.6 C 0 km/h
1453 11-01-2011 02:13:05 0.7 C 4.22 g/m*3 0.7 C 0 km/h
1454 11-01-2011 02:25:05 0.8 C 4.2 g/m*3 0.8 C 0 km/h
1455 11-01-2011 02:37:05 1 C 4.1 g/m*3 1 C 0 km/h
1456 11-01-2011 02:49:05 0.8 C 4.04 g/m*3 0.8 C 0 km/h
1457 11-01-2011 03:01:05 0.8 C 4.04 g/m*3 0.8 C 0 km/h
1458 11-01-2011 03:13:05 0.8 C 4.04 g/m*3 0.8 C 0 km/h
1459 11-01-2011 03:25:05 0.6 C 4.04 g/m*3 0.6 C 0 km/h
1460 11-01-2011 03:37:05 0.8 C 4.1 g/m*3 0.8 C 0 km/h
1461 11-01-2011 03:49:05 0.6 C 4.04 g/m*3 0.6 C 0 km/h
1462 11-01-2011 04:01:05 0.3 C 3.96 g/m*3 0.3 C 0 km/h
1463 11-01-2011 04:13:06 0.2 C 3.98 g/m*3 0.2 C 0 km/h
1464 11-01-2011 04:25:06 0.1 C 4 g/m*3 0.1 C 0 km/h
1465 11-01-2011 04:37:06 0.6 C 4.14 g/m*3 0.6 C 0 km/h
1466 11-01-2011 04:49:06 0.9 C 4.18 g/m*3 0.9 C 0 km/h
1467 11-01-2011 05:01:06 1.1 C 4.13 g/m*3 1.1 C 0 km/h
1468 11-01-2011 05:13:06 1.1 C 4.13 g/m*3 1.1 C 0 km/h
1469 11-01-2011 05:25:06 1.1 C 4.13 g/m*3 1.1 C 0 km/h
1470 11-01-2011 05:37:06 1.1 C 4.13 g/m*3 1.1 C 0 km/h
1471 11-01-2011 05:49:06 1.1 C 4.13 g/m*3 1.1 C 0 km/h
1472 11-01-2011 06:01:06 1.2 C 4.16 g/m*3 1.2 C 0 km/h
1473 11-01-2011 06:13:06 1.2 C 4.16 g/m*3 1.2 C 0 km/h
1474 11-01-2011 06:25:06 1.3 C 4.19 g/m*3 1.3 C 0 km/h
1475 11-01-2011 06:37:06 1.3 C 4.24 g/m*3 1.3 C 0 km/h
Sensor: Nr:Datum:Temp:Abs-Feuchte:Windchill:Wind:
Aussen-T/F 1476 11-01-2011 06:49:06 1.3 C 4.24 g/m*3 1.3 C 0 km/h
1477 11-01-2011 07:01:06 1.4 C 4.27 g/m*3 1.4 C 0 km/h
1478 11-01-2011 07:13:06 1.4 C 4.32 g/m*3 1.4 C 0 km/h
1479 11-01-2011 07:25:03 1.4 C 4.32 g/m*3 1.4 C 0 km/h
1480 11-01-2011 07:37:03 1.4 C 4.32 g/m*3 1.4 C 0 km/h
1481 11-01-2011 07:49:02 1.5 C 4.4 g/m*3 1.5 C 0 km/h
1482 11-01-2011 08:01:02 1.5 C 4.4 g/m*3 1.5 C 0 km/h
1483 11-01-2011 08:13:02 1.5 C 4.4 g/m*3 1.5 C 0 km/h
1484 11-01-2011 08:25:03 1.5 C 4.46 g/m*3 1.5 C 0 km/h
1485 11-01-2011 08:37:02 1.5 C 4.46 g/m*3 1.5 C 0 km/h
1486 11-01-2011 08:49:03 1.5 C 4.51 g/m*3 1.5 C 0 km/h
1487 11-01-2011 09:01:02 1.6 C 4.54 g/m*3 1.6 C 0 km/h
1488 11-01-2011 09:13:02 1.8 C 4.66 g/m*3 1.8 C 0 km/h
1489 11-01-2011 09:25:02 2 C 4.67 g/m*3 2 C 0 km/h
1490 11-01-2011 09:37:02 2.3 C 4.71 g/m*3 2.3 C 0 km/h
1491 11-01-2011 09:49:02 2.6 C 4.75 g/m*3 2.6 C 0 km/h
1492 11-01-2011 10:01:02 2.9 C 4.72 g/m*3 2.9 C 0 km/h
1493 11-01-2011 10:13:02 3.2 C 4.7 g/m*3 3.2 C 0 km/h
1494 11-01-2011 10:25:02 3.2 C 4.58 g/m*3 3.2 C 0 km/h
1495 11-01-2011 10:37:02 3.2 C 4.58 g/m*3 3.2 C 0 km/h
1496 11-01-2011 10:49:02 2.7 C 4.54 g/m*3 2.7 C 0 km/h
1497 11-01-2011 11:01:02 2.5 C 4.6 g/m*3 2.5 C 0 km/h
1498 11-01-2011 11:13:02 2.6 C 4.75 g/m*3 2.6 C 0 km/h
1499 11-01-2011 11:25:02 2.8 C 4.87 g/m*3 2.8 C 0 km/h
1500 11-01-2011 11:37:02 3.7 C 5.17 g/m*3 3.7 C 0 km/h
Sensor: Nr:Datum:Temp:Abs-Feuchte:Windchill:Wind:
Aussen-T/F 1501 11-01-2011 11:49:02 4.8 C 5.1 g/m*3 4.8 C 0 km/h
1502 11-01-2011 12:01:02 5.4 C 4.74 g/m*3 5.4 C 0 km/h
1503 11-01-2011 12:13:02 5.7 C 4.63 g/m*3 5.7 C 0 km/h
1504 11-01-2011 12:25:02 5.7 C 4.55 g/m*3 5.7 C 0 km/h
1505 11-01-2011 12:37:01 5.6 C 4.6 g/m*3 5.6 C 0 km/h
1506 11-01-2011 12:49:02 5.1 C 4.58 g/m*3 5.1 C 0 km/h
1507 11-01-2011 13:01:01 5.2 C 4.75 g/m*3 5.2 C 0 km/h
1508 11-01-2011 13:13:01 5.1 C 4.72 g/m*3 5.1 C 0 km/h
1509 11-01-2011 13:25:01 5.3 C 4.71 g/m*3 5.3 C 0 km/h
1510 11-01-2011 13:37:02 5.5 C 4.85 g/m*3 5.5 C 0 km/h
1511 11-01-2011 13:49:02 5.4 C 4.74 g/m*3 5.4 C 0 km/h
1512 11-01-2011 14:01:02 5.3 C 4.85 g/m*3 5.3 C 0 km/h
1513 11-01-2011 14:13:02 5.3 C 4.92 g/m*3 5.3 C 0 km/h
1514 11-01-2011 14:25:02 5.3 C 4.85 g/m*3 5.3 C 0 km/h
1515 11-01-2011 14:37:02 5.3 C 4.92 g/m*3 5.3 C 0 km/h
1516 11-01-2011 14:49:02 5.3 C 4.92 g/m*3 5.3 C 0 km/h
1517 11-01-2011 15:01:02 5.3 C 5.06 g/m*3 5.3 C 0 km/h
1518 11-01-2011 15:13:02 5.5 C 5.06 g/m*3 5.5 C 0 km/h
1519 11-01-2011 15:25:02 5.6 C 5.02 g/m*3 5.6 C 0 km/h
1520 11-01-2011 15:37:02 5.3 C 5.06 g/m*3 5.3 C 0 km/h
1521 11-01-2011 15:49:01 5.1 C 5.13 g/m*3 5.1 C 0 km/h
1522 11-01-2011 16:01:01 4.8 C 5.3 g/m*3 4.8 C 0 km/h
1523 11-01-2011 16:13:01 4.6 C 5.43 g/m*3 4.6 C 0 km/h
1524 11-01-2011 16:25:02 4.5 C 5.46 g/m*3 4.5 C 0 km/h
1525 11-01-2011 16:37:01 4.5 C 5.46 g/m*3 4.5 C 0 km/h
Sensor: Nr:Datum:Temp:Abs-Feuchte:Windchill:Wind:
Aussen-T/F 1526 11-01-2011 16:49:03 4.5 C 5.46 g/m*3 4.5 C 0 km/h
1527 11-01-2011 17:01:02 4.7 C 5.53 g/m*3 4.7 C 0 km/h
1528 11-01-2011 17:13:02 4.7 C 5.46 g/m*3 4.7 C 0 km/h
1529 11-01-2011 17:25:02 5.2 C 5.44 g/m*3 5.2 C 0 km/h
1530 11-01-2011 17:37:02 5.4 C 5.44 g/m*3 5.4 C 0 km/h
1531 11-01-2011 17:49:02 5.5 C 5.41 g/m*3 5.5 C 0 km/h
1532 11-01-2011 18:01:02 5.3 C 5.41 g/m*3 5.3 C 0 km/h
1533 11-01-2011 18:13:02 5.3 C 5.48 g/m*3 5.3 C 0 km/h
1534 11-01-2011 18:25:02 5.4 C 5.51 g/m*3 5.4 C 0 km/h
1535 11-01-2011 18:37:02 5.6 C 5.59 g/m*3 5.6 C 0 km/h
1536 11-01-2011 18:49:02 5.8 C 5.59 g/m*3 5.8 C 0 km/h
1537 11-01-2011 19:01:01 6 C 5.52 g/m*3 6 C 0 km/h
1538 11-01-2011 19:13:01 6 C 5.52 g/m*3 6 C 0 km/h
1539 11-01-2011 19:25:01 6 C 5.59 g/m*3 6 C 0 km/h
1540 11-01-2011 19:37:02 6 C 5.59 g/m*3 6 C 0 km/h
1541 11-01-2011 19:49:02 5.9 C 5.62 g/m*3 5.9 C 0 km/h
1542 11-01-2011 20:01:02 6 C 5.59 g/m*3 6 C 0 km/h
1543 11-01-2011 20:13:02 6.1 C 5.63 g/m*3 6.1 C 0 km/h
1544 11-01-2011 20:25:02 6.1 C 5.63 g/m*3 6.1 C 0 km/h
1545 11-01-2011 20:37:02 6.2 C 5.59 g/m*3 6.2 C 0 km/h
1546 11-01-2011 20:49:02 6.3 C 5.55 g/m*3 6.3 C 0 km/h
1547 11-01-2011 21:01:02 6.3 C 5.63 g/m*3 6.3 C 0 km/h
1548 11-01-2011 21:13:02 6.3 C 5.63 g/m*3 6.3 C 0 km/h
1549 11-01-2011 21:25:02 6.1 C 5.63 g/m*3 6.1 C 0 km/h
1550 11-01-2011 21:37:02 6.1 C 5.7 g/m*3 6.1 C 0 km/h
Sensor: Nr:Datum:Temp:Abs-Feuchte:Windchill:Wind:
Aussen-T/F 1551 11-01-2011 21:50:03 6 C 5.73 g/m*3 6 C 0 km/h
1552 11-01-2011 22:02:03 5.8 C 5.8 g/m*3 5.8 C 0 km/h
1553 11-01-2011 22:14:03 5.9 C 5.91 g/m*3 5.9 C 0 km/h
1554 11-01-2011 22:26:03 5.9 C 5.91 g/m*3 5.9 C 0 km/h
1555 11-01-2011 22:38:03 6.3 C 6 g/m*3 6.3 C 0 km/h
1556 11-01-2011 22:50:03 5.9 C 5.91 g/m*3 5.9 C 0 km/h
1557 11-01-2011 23:02:03 5.9 C 6.06 g/m*3 5.9 C 0 km/h
1558 11-01-2011 23:14:03 5.9 C 6.06 g/m*3 5.9 C 0 km/h
1559 11-01-2011 23:26:03 6 C 6.02 g/m*3 6 C 0 km/h
1560 11-01-2011 23:38:03 6.1 C 5.99 g/m*3 6.1 C 0 km/h
1561 11-01-2011 23:50:03 6.1 C 5.92 g/m*3 6.1 C 0 km/h
1562 12-01-2011 00:02:03 6.3 C 5.77 g/m*3 6.3 C 0 km/h
1563 12-01-2011 00:14:03 6.5 C 5.62 g/m*3 6.5 C 0 km/h
1564 12-01-2011 00:26:03 6.2 C 5.37 g/m*3 6.2 C 0 km/h
1565 12-01-2011 00:38:03 5.9 C 5.26 g/m*3 5.9 C 0 km/h
1566 12-01-2011 00:50:04 5.8 C 5.3 g/m*3 5.8 C 0 km/h
1567 12-01-2011 01:02:04 5.9 C 5.34 g/m*3 5.9 C 0 km/h
1568 12-01-2011 01:14:04 5.8 C 5.3 g/m*3 5.8 C 0 km/h
1569 12-01-2011 01:26:04 6 C 5.23 g/m*3 6 C 0 km/h
1570 12-01-2011 01:38:04 6 C 5.15 g/m*3 6 C 0 km/h
1571 12-01-2011 01:50:04 6.1 C 5.11 g/m*3 6.1 C 0 km/h
1572 12-01-2011 02:02:04 6 C 5.08 g/m*3 6 C 0 km/h
1573 12-01-2011 02:14:04 6 C 5.08 g/m*3 6 C 0 km/h
1574 12-01-2011 02:26:04 5.9 C 5.12 g/m*3 5.9 C 0 km/h
1575 12-01-2011 02:38:04 5.9 C 5.05 g/m*3 5.9 C 0 km/h
Sensor: Nr:Datum:Temp:Abs-Feuchte:Windchill:Wind:
Aussen-T/F 1576 12-01-2011 02:50:04 5.7 C 4.98 g/m*3 5.7 C 0 km/h
1577 12-01-2011 03:02:04 5.5 C 4.99 g/m*3 5.5 C 0 km/h
1578 12-01-2011 03:14:04 5 C 5.1 g/m*3 5 C 0 km/h
1579 12-01-2011 03:26:04 4.9 C 5.27 g/m*3 4.9 C 0 km/h
1580 12-01-2011 03:38:04 4.7 C 5.26 g/m*3 4.7 C 0 km/h
1581 12-01-2011 03:50:04 4.5 C 5.26 g/m*3 4.5 C 0 km/h
1582 12-01-2011 04:02:04 4.3 C 5.32 g/m*3 4.3 C 0 km/h
1583 12-01-2011 04:14:04 4.3 C 5.32 g/m*3 4.3 C 0 km/h
1584 12-01-2011 04:26:04 4.1 C 5.31 g/m*3 4.1 C 0 km/h
1585 12-01-2011 04:38:04 3.9 C 5.37 g/m*3 3.9 C 0 km/h
1586 12-01-2011 04:50:05 3.8 C 5.4 g/m*3 3.8 C 0 km/h
1587 12-01-2011 05:02:05 3.8 C 5.33 g/m*3 3.8 C 0 km/h
1588 12-01-2011 05:14:05 3.8 C 5.27 g/m*3 3.8 C 0 km/h
1589 12-01-2011 05:26:05 3.7 C 5.23 g/m*3 3.7 C 0 km/h
1590 12-01-2011 05:38:05 3.7 C 5.17 g/m*3 3.7 C 0 km/h
1591 12-01-2011 05:50:05 3.8 C 5.21 g/m*3 3.8 C 0 km/h
1592 12-01-2011 06:02:05 3.6 C 5.14 g/m*3 3.6 C 0 km/h
1593 12-01-2011 06:14:05 3.5 C 5.16 g/m*3 3.5 C 0 km/h
1594 12-01-2011 06:26:05 3.6 C 5.14 g/m*3 3.6 C 0 km/h
1595 12-01-2011 06:38:05 3.6 C 5.14 g/m*3 3.6 C 0 km/h
1596 12-01-2011 06:50:05 3.5 C 5.04 g/m*3 3.5 C 0 km/h
1597 12-01-2011 07:02:02 3.5 C 5.04 g/m*3 3.5 C 0 km/h
1598 12-01-2011 07:14:02 3.6 C 5.08 g/m*3 3.6 C 0 km/h
1599 12-01-2011 07:26:02 3.3 C 4.97 g/m*3 3.3 C 0 km/h
1600 12-01-2011 07:38:02 3.1 C 4.97 g/m*3 3.1 C 0 km/h
Sensor: Nr:Datum:Temp:Abs-Feuchte:Windchill:Wind:
Aussen-T/F 1601 12-01-2011 07:50:01 3.1 C 5.03 g/m*3 3.1 C 0 km/h
1602 12-01-2011 08:02:01 3 C 4.99 g/m*3 3 C 0 km/h
1603 12-01-2011 08:14:01 2.8 C 4.93 g/m*3 2.8 C 0 km/h
1604 12-01-2011 08:26:01 3.1 C 5.03 g/m*3 3.1 C 0 km/h
1605 12-01-2011 08:38:01 3 C 4.99 g/m*3 3 C 0 km/h
1606 12-01-2011 08:50:01 3 C 4.99 g/m*3 3 C 0 km/h
1607 12-01-2011 09:02:01 3.5 C 5.16 g/m*3 3.5 C 0 km/h
1608 12-01-2011 09:14:01 3.5 C 5.04 g/m*3 3.5 C 0 km/h
1609 12-01-2011 09:26:02 3.7 C 5.11 g/m*3 3.7 C 0 km/h
1610 12-01-2011 09:38:01 4 C 4.96 g/m*3 4 C 0 km/h
1611 12-01-2011 09:50:02 4.5 C 4.93 g/m*3 4.5 C 0 km/h
1612 12-01-2011 10:02:02 4.6 C 4.83 g/m*3 4.6 C 0 km/h
1613 12-01-2011 10:14:02 4.7 C 4.93 g/m*3 4.7 C 0 km/h
1614 12-01-2011 10:26:01 4.9 C 4.93 g/m*3 4.9 C 0 km/h
1615 12-01-2011 10:38:02 4.9 C 4.86 g/m*3 4.9 C 0 km/h
1616 12-01-2011 10:50:02 5 C 4.82 g/m*3 5 C 0 km/h
1617 12-01-2011 11:02:02 5.1 C 4.86 g/m*3 5.1 C 0 km/h
1618 12-01-2011 11:14:02 5.2 C 4.82 g/m*3 5.2 C 0 km/h
1619 12-01-2011 11:26:01 5.4 C 4.81 g/m*3 5.4 C 0 km/h
1620 12-01-2011 11:38:02 5.3 C 4.85 g/m*3 5.3 C 0 km/h
1621 12-01-2011 11:50:01 5.3 C 4.92 g/m*3 5.3 C 0 km/h
1622 12-01-2011 12:02:02 5.2 C 4.96 g/m*3 5.2 C 0 km/h
1623 12-01-2011 12:14:02 5 C 5.03 g/m*3 5 C 0 km/h
1624 12-01-2011 12:26:02 4.8 C 5.1 g/m*3 4.8 C 0 km/h
1625 12-01-2011 12:38:02 4.7 C 5.13 g/m*3 4.7 C 0 km/h
Sensor: Nr:Datum:Temp:Abs-Feuchte:Windchill:Wind:
Aussen-T/F 1626 12-01-2011 12:50:02 4.7 C 5.2 g/m*3 4.7 C 0 km/h
1627 12-01-2011 13:02:02 4.7 C 5.2 g/m*3 4.7 C 0 km/h
1628 12-01-2011 13:14:03 4.9 C 5.33 g/m*3 4.9 C 0 km/h
1629 12-01-2011 13:26:01 5 C 5.37 g/m*3 5 C 0 km/h
1630 12-01-2011 13:38:46 5 C 5.44 g/m*3 5 C 0 km/h
1631 12-01-2011 13:50:02 4.9 C 5.54 g/m*3 4.9 C 0 km/h
1632 12-01-2011 14:02:02 5 C 5.5 g/m*3 5 C 0 km/h
1633 12-01-2011 14:14:02 5.1 C 5.47 g/m*3 5.1 C 0 km/h
1634 12-01-2011 14:26:02 5.1 C 5.54 g/m*3 5.1 C 0 km/h
1635 12-01-2011 14:38:02 5.1 C 5.54 g/m*3 5.1 C 0 km/h
1636 12-01-2011 14:50:02 5.3 C 5.54 g/m*3 5.3 C 0 km/h
1637 12-01-2011 15:02:01 5.6 C 5.51 g/m*3 5.6 C 0 km/h
1638 12-01-2011 15:14:01 5.4 C 5.44 g/m*3 5.4 C 0 km/h
1639 12-01-2011 15:26:02 5.2 C 5.44 g/m*3 5.2 C 0 km/h
1640 12-01-2011 15:38:02 5.3 C 5.54 g/m*3 5.3 C 0 km/h
1641 12-01-2011 15:50:02 5.6 C 5.59 g/m*3 5.6 C 0 km/h
1642 12-01-2011 16:02:02 6 C 5.44 g/m*3 6 C 0 km/h
1643 12-01-2011 16:14:02 5.9 C 5.48 g/m*3 5.9 C 0 km/h
1644 12-01-2011 16:26:02 6 C 5.44 g/m*3 6 C 0 km/h
1645 12-01-2011 16:38:02 6.1 C 5.48 g/m*3 6.1 C 0 km/h
1646 12-01-2011 16:50:02 6.2 C 5.52 g/m*3 6.2 C 0 km/h
1647 12-01-2011 17:02:02 6.2 C 5.52 g/m*3 6.2 C 0 km/h
1648 12-01-2011 17:14:02 6.3 C 5.55 g/m*3 6.3 C 0 km/h
1649 12-01-2011 17:26:02 6.4 C 5.59 g/m*3 6.4 C 0 km/h
1650 12-01-2011 17:38:02 6 C 5.59 g/m*3 6 C 0 km/h
Sensor: Nr:Datum:Temp:Abs-Feuchte:Windchill:Wind:
Aussen-T/F 1651 12-01-2011 17:50:01 6.1 C 5.77 g/m*3 6.1 C 0 km/h
1652 12-01-2011 18:02:02 6.3 C 5.77 g/m*3 6.3 C 0 km/h
1653 12-01-2011 18:14:02 6 C 5.81 g/m*3 6 C 0 km/h
1654 12-01-2011 18:26:01 6 C 5.88 g/m*3 6 C 0 km/h
1655 12-01-2011 18:38:01 6.2 C 6.03 g/m*3 6.2 C 0 km/h
1656 12-01-2011 18:50:01 6.1 C 6.06 g/m*3 6.1 C 0 km/h
1657 12-01-2011 19:02:01 6.1 C 6.06 g/m*3 6.1 C 0 km/h
1658 12-01-2011 19:14:01 6 C 6.1 g/m*3 6 C 0 km/h
1659 12-01-2011 19:26:02 6.3 C 6.22 g/m*3 6.3 C 0 km/h
1660 12-01-2011 19:38:01 6.5 C 6.22 g/m*3 6.5 C 0 km/h
1661 12-01-2011 19:50:02 6.6 C 6.27 g/m*3 6.6 C 0 km/h
1662 12-01-2011 20:02:02 6.9 C 6.31 g/m*3 6.9 C 0 km/h
1663 12-01-2011 20:14:02 6.8 C 6.27 g/m*3 6.8 C 0 km/h
1664 12-01-2011 20:26:02 7 C 6.28 g/m*3 7 C 0 km/h
1665 12-01-2011 20:38:02 7.1 C 6.24 g/m*3 7.1 C 0 km/h
1666 12-01-2011 20:50:02 7.1 C 6.32 g/m*3 7.1 C 0 km/h
1667 12-01-2011 21:02:01 7.1 C 6.4 g/m*3 7.1 C 0 km/h
1668 12-01-2011 21:14:01 7.2 C 6.44 g/m*3 7.2 C 0 km/h
1669 12-01-2011 21:26:02 7.5 C 6.64 g/m*3 7.5 C 0 km/h
1670 12-01-2011 21:38:02 7.5 C 6.56 g/m*3 7.5 C 0 km/h
1671 12-01-2011 21:50:02 7.4 C 6.52 g/m*3 7.4 C 0 km/h
1672 12-01-2011 22:02:02 7.7 C 6.73 g/m*3 7.7 C 0 km/h
1673 12-01-2011 22:14:02 7.7 C 6.65 g/m*3 7.7 C 0 km/h
1674 12-01-2011 22:26:02 7.9 C 6.74 g/m*3 7.9 C 0 km/h
1675 12-01-2011 22:38:02 8.2 C 6.7 g/m*3 8.2 C 0 km/h
Sensor: Nr:Datum:Temp:Abs-Feuchte:Windchill:Wind:
Aussen-T/F 1676 12-01-2011 22:50:02 8.3 C 6.74 g/m*3 8.3 C 0 km/h
1677 12-01-2011 23:02:02 8.5 C 6.74 g/m*3 8.5 C 0 km/h
1678 12-01-2011 23:14:02 8.7 C 6.83 g/m*3 8.7 C 0 km/h
1679 12-01-2011 23:26:01 8.8 C 6.88 g/m*3 8.8 C 0 km/h
1680 12-01-2011 23:38:02 8.9 C 6.83 g/m*3 8.9 C 0 km/h
1681 12-01-2011 23:50:02 8.9 C 6.83 g/m*3 8.9 C 0 km/h
1682 13-01-2011 00:02:02 9 C 6.88 g/m*3 9 C 0 km/h
1683 13-01-2011 00:14:02 9.3 C 6.92 g/m*3 9.3 C 0 km/h
1684 13-01-2011 00:26:02 9.3 C 7.01 g/m*3 9.3 C 0 km/h
1685 13-01-2011 00:38:02 9.4 C 7.05 g/m*3 9.4 C 0 km/h
1686 13-01-2011 00:50:01 9.5 C 7.1 g/m*3 9.5 C 0 km/h
1687 13-01-2011 01:02:02 9.7 C 7.19 g/m*3 9.7 C 0 km/h
1688 13-01-2011 01:14:02 9.9 C 7.28 g/m*3 9.9 C 0 km/h
1689 13-01-2011 01:26:02 10 C 7.24 g/m*3 10 C 0 km/h
1690 13-01-2011 01:38:02 10.1 C 7.28 g/m*3 10.1 C 0 km/h
1691 13-01-2011 01:50:02 10.2 C 7.33 g/m*3 10.2 C 0 km/h
1692 13-01-2011 02:02:02 10.5 C 7.37 g/m*3 10.5 C 0 km/h
1693 13-01-2011 02:14:02 10.7 C 7.56 g/m*3 10.7 C 0 km/h
1694 13-01-2011 02:26:02 10.7 C 7.56 g/m*3 10.7 C 0 km/h
1695 13-01-2011 02:38:01 10.7 C 7.66 g/m*3 10.7 C 0 km/h
1696 13-01-2011 02:50:02 10.4 C 7.61 g/m*3 10.4 C 0 km/h
1697 13-01-2011 03:02:02 10.4 C 7.71 g/m*3 10.4 C 0 km/h
1698 13-01-2011 03:14:01 10.3 C 7.85 g/m*3 10.3 C 0 km/h
1699 13-01-2011 03:26:01 10.3 C 7.85 g/m*3 10.3 C 0 km/h
1700 13-01-2011 03:38:02 10.3 C 7.85 g/m*3 10.3 C 0 km/h
Sensor: Nr:Datum:Temp:Abs-Feuchte:Windchill:Wind:
Aussen-T/F 1701 13-01-2011 03:50:02 10.3 C 7.95 g/m*3 10.3 C 0 km/h
1702 13-01-2011 04:02:01 10.5 C 8.05 g/m*3 10.5 C 0 km/h
1703 13-01-2011 04:14:01 10.6 C 8.1 g/m*3 10.6 C 0 km/h
1704 13-01-2011 04:26:02 10.9 C 8.16 g/m*3 10.9 C 0 km/h
1705 13-01-2011 04:38:01 10.7 C 7.96 g/m*3 10.7 C 0 km/h
1706 13-01-2011 04:50:02 10.8 C 8.01 g/m*3 10.8 C 0 km/h
1707 13-01-2011 05:02:01 11 C 8.01 g/m*3 11 C 0 km/h
1708 13-01-2011 05:14:01 11.1 C 8.16 g/m*3 11.1 C 0 km/h
1709 13-01-2011 05:26:01 10.7 C 8.05 g/m*3 10.7 C 0 km/h
1710 13-01-2011 05:38:02 10.8 C 8.2 g/m*3 10.8 C 0 km/h
1711 13-01-2011 05:50:01 10.6 C 8.2 g/m*3 10.6 C 0 km/h
1712 13-01-2011 06:02:02 10.7 C 8.25 g/m*3 10.7 C 0 km/h
1713 13-01-2011 06:14:02 10.5 C 8.24 g/m*3 10.5 C 0 km/h
1714 13-01-2011 06:26:01 10.6 C 8.3 g/m*3 10.6 C 0 km/h
1715 13-01-2011 06:38:02 10.6 C 8.39 g/m*3 10.6 C 0 km/h
1716 13-01-2011 06:50:01 10.5 C 8.34 g/m*3 10.5 C 0 km/h
1717 13-01-2011 07:02:01 10.6 C 8.39 g/m*3 10.6 C 0 km/h
1718 13-01-2011 07:14:02 10.5 C 8.44 g/m*3 10.5 C 0 km/h
1719 13-01-2011 07:26:01 10.7 C 8.55 g/m*3 10.7 C 0 km/h
1720 13-01-2011 07:38:01 10.7 C 8.45 g/m*3 10.7 C 0 km/h
1721 13-01-2011 07:50:01 10.8 C 8.5 g/m*3 10.8 C 0 km/h
1722 13-01-2011 08:02:01 10.9 C 8.55 g/m*3 10.9 C 0 km/h
1723 13-01-2011 08:14:01 10.8 C 8.5 g/m*3 10.8 C 0 km/h
1724 13-01-2011 08:26:02 10.8 C 8.4 g/m*3 10.8 C 0 km/h
1725 13-01-2011 08:38:01 10.8 C 8.4 g/m*3 10.8 C 0 km/h
Sensor: Nr:Datum:Temp:Abs-Feuchte:Windchill:Wind:
Aussen-T/F 1726 13-01-2011 08:50:02 10.9 C 8.45 g/m*3 10.9 C 0 km/h
1727 13-01-2011 09:02:01 10.9 C 8.45 g/m*3 10.9 C 0 km/h
1728 13-01-2011 09:14:01 11.2 C 8.51 g/m*3 11.2 C 0 km/h
1729 13-01-2011 09:26:02 11.4 C 8.52 g/m*3 11.4 C 0 km/h
1730 13-01-2011 09:38:01 11.4 C 8.42 g/m*3 11.4 C 0 km/h
1731 13-01-2011 09:50:02 11.4 C 8.31 g/m*3 11.4 C 0 km/h
1732 13-01-2011 10:02:01 11.5 C 8.37 g/m*3 11.5 C 0 km/h
1733 13-01-2011 10:14:01 11.9 C 8.47 g/m*3 11.9 C 0 km/h
1734 13-01-2011 10:26:01 11.8 C 8.31 g/m*3 11.8 C 0 km/h
1735 13-01-2011 10:38:02 12.2 C 8.2 g/m*3 12.2 C 0 km/h
1736 13-01-2011 10:50:01 12.3 C 8.25 g/m*3 12.3 C 0 km/h
1737 13-01-2011 11:02:02 12.5 C 8.36 g/m*3 12.5 C 0 km/h
1738 13-01-2011 11:14:02 12.3 C 8.25 g/m*3 12.3 C 0 km/h
1739 13-01-2011 11:26:01 12.6 C 8.19 g/m*3 12.6 C 0 km/h
1740 13-01-2011 11:38:01 12.5 C 8.25 g/m*3 12.5 C 0 km/h
1741 13-01-2011 11:50:01 12.7 C 8.24 g/m*3 12.7 C 0 km/h
1742 13-01-2011 12:02:01 12.6 C 8.3 g/m*3 12.6 C 0 km/h
1743 13-01-2011 12:14:02 12.5 C 8.25 g/m*3 12.5 C 0 km/h
1744 13-01-2011 12:26:01 12.4 C 8.3 g/m*3 12.4 C 0 km/h
1745 13-01-2011 12:38:01 12.4 C 8.41 g/m*3 12.4 C 0 km/h
1746 13-01-2011 12:50:01 12.4 C 8.3 g/m*3 12.4 C 0 km/h
1747 13-01-2011 13:02:01 12.2 C 8.42 g/m*3 12.2 C 0 km/h
1748 13-01-2011 13:14:01 12.2 C 8.42 g/m*3 12.2 C 0 km/h
1749 13-01-2011 13:26:02 12.7 C 8.46 g/m*3 12.7 C 0 km/h
1750 13-01-2011 13:38:01 12.7 C 8.35 g/m*3 12.7 C 0 km/h
Sensor: Nr:Datum:Temp:Abs-Feuchte:Windchill:Wind:
Aussen-T/F 1751 13-01-2011 13:50:02 12.9 C 8.34 g/m*3 12.9 C 0 km/h
1752 13-01-2011 14:02:01 13 C 8.28 g/m*3 13 C 0 km/h
1753 13-01-2011 14:14:01 13 C 8.28 g/m*3 13 C 0 km/h
1754 13-01-2011 14:26:02 13.2 C 8.27 g/m*3 13.2 C 0 km/h
1755 13-01-2011 14:38:01 13.4 C 8.37 g/m*3 13.4 C 0 km/h
1756 13-01-2011 14:50:01 13.3 C 8.2 g/m*3 13.3 C 0 km/h
1757 13-01-2011 15:02:01 13.1 C 8.22 g/m*3 13.1 C 0 km/h
1758 13-01-2011 15:14:01 13.2 C 8.27 g/m*3 13.2 C 0 km/h
1759 13-01-2011 15:26:01 13.1 C 8.22 g/m*3 13.1 C 0 km/h
1760 13-01-2011 15:38:02 13 C 8.28 g/m*3 13 C 0 km/h
1761 13-01-2011 15:50:01 12.9 C 8.34 g/m*3 12.9 C 0 km/h
1762 13-01-2011 16:02:02 12.9 C 8.45 g/m*3 12.9 C 0 km/h
1763 13-01-2011 16:14:02 12.9 C 8.45 g/m*3 12.9 C 0 km/h
1764 13-01-2011 16:26:01 13 C 8.39 g/m*3 13 C 0 km/h
1765 13-01-2011 16:38:01 12.8 C 8.51 g/m*3 12.8 C 0 km/h
1766 13-01-2011 16:50:01 12.9 C 8.57 g/m*3 12.9 C 0 km/h
1767 13-01-2011 17:02:01 12.8 C 8.51 g/m*3 12.8 C 0 km/h
1768 13-01-2011 17:14:02 12.9 C 8.57 g/m*3 12.9 C 0 km/h
1769 13-01-2011 17:26:01 12.7 C 8.46 g/m*3 12.7 C 0 km/h
1770 13-01-2011 17:38:01 12.9 C 8.57 g/m*3 12.9 C 0 km/h
1771 13-01-2011 17:50:01 13 C 8.39 g/m*3 13 C 0 km/h
1772 13-01-2011 18:02:01 13 C 8.39 g/m*3 13 C 0 km/h
1773 13-01-2011 18:14:01 12.9 C 8.45 g/m*3 12.9 C 0 km/h
1774 13-01-2011 18:26:02 12.7 C 8.35 g/m*3 12.7 C 0 km/h
1775 13-01-2011 18:38:01 12.8 C 8.51 g/m*3 12.8 C 0 km/h
Sensor: Nr:Datum:Temp:Abs-Feuchte:Windchill:Wind:
Aussen-T/F 1776 13-01-2011 18:50:02 12.8 C 8.4 g/m*3 12.8 C 0 km/h
1777 13-01-2011 19:02:01 12.9 C 8.57 g/m*3 12.9 C 0 km/h
1778 13-01-2011 19:14:01 12.8 C 8.51 g/m*3 12.8 C 0 km/h
1779 13-01-2011 19:26:02 12.8 C 8.51 g/m*3 12.8 C 0 km/h
1780 13-01-2011 19:38:02 12.8 C 8.51 g/m*3 12.8 C 0 km/h
1781 13-01-2011 19:50:01 12.8 C 8.4 g/m*3 12.8 C 0 km/h
1782 13-01-2011 20:02:02 12.8 C 8.51 g/m*3 12.8 C 0 km/h
1783 13-01-2011 20:14:02 12.7 C 8.46 g/m*3 12.7 C 0 km/h
1784 13-01-2011 20:26:01 12.6 C 8.52 g/m*3 12.6 C 0 km/h
1785 13-01-2011 20:38:01 12.7 C 8.57 g/m*3 12.7 C 0 km/h
1786 13-01-2011 20:50:01 12.7 C 8.57 g/m*3 12.7 C 0 km/h
1787 13-01-2011 21:02:01 12.7 C 8.46 g/m*3 12.7 C 0 km/h
1788 13-01-2011 21:14:01 12.7 C 8.46 g/m*3 12.7 C 0 km/h
1789 13-01-2011 21:26:01 12.8 C 8.51 g/m*3 12.8 C 0 km/h
1790 13-01-2011 21:38:01 13 C 8.39 g/m*3 13 C 0 km/h
1791 13-01-2011 21:50:01 12.9 C 8.45 g/m*3 12.9 C 0 km/h
1792 13-01-2011 22:02:01 12.9 C 8.45 g/m*3 12.9 C 0 km/h
1793 13-01-2011 22:14:01 12.8 C 8.4 g/m*3 12.8 C 0 km/h
1794 13-01-2011 22:26:01 12.8 C 8.29 g/m*3 12.8 C 0 km/h
1795 13-01-2011 22:38:02 12.8 C 8.29 g/m*3 12.8 C 0 km/h
1796 13-01-2011 22:50:01 12.8 C 8.29 g/m*3 12.8 C 0 km/h
1797 13-01-2011 23:02:02 12.9 C 8.34 g/m*3 12.9 C 0 km/h
1798 13-01-2011 23:14:02 12.7 C 8.24 g/m*3 12.7 C 0 km/h
1799 13-01-2011 23:26:01 12.7 C 8.24 g/m*3 12.7 C 0 km/h
1800 13-01-2011 23:38:02 12.7 C 8.24 g/m*3 12.7 C 0 km/h
Sensor: Nr:Datum:Temp:Abs-Feuchte:Windchill:Wind:
Aussen-T/F 1801 13-01-2011 23:50:01 12.7 C 8.24 g/m*3 12.7 C 0 km/h
1802 14-01-2011 00:02:02 12.7 C 8.24 g/m*3 12.7 C 0 km/h
1803 14-01-2011 00:14:02 12.5 C 8.14 g/m*3 12.5 C 0 km/h
1804 14-01-2011 00:26:01 12.4 C 8.09 g/m*3 12.4 C 0 km/h
1805 14-01-2011 00:38:02 12.5 C 8.14 g/m*3 12.5 C 0 km/h
1806 14-01-2011 00:50:01 12.7 C 8.13 g/m*3 12.7 C 0 km/h
1807 14-01-2011 01:02:02 12.5 C 8.14 g/m*3 12.5 C 0 km/h
1808 14-01-2011 01:14:02 12.4 C 8.09 g/m*3 12.4 C 0 km/h
1809 14-01-2011 01:26:01 12.5 C 8.14 g/m*3 12.5 C 0 km/h
1810 14-01-2011 01:38:02 12.6 C 8.08 g/m*3 12.6 C 0 km/h
1811 14-01-2011 01:50:01 12.5 C 8.03 g/m*3 12.5 C 0 km/h
1812 14-01-2011 02:02:02 12.4 C 7.98 g/m*3 12.4 C 0 km/h
1813 14-01-2011 02:14:02 12.3 C 7.93 g/m*3 12.3 C 0 km/h
1814 14-01-2011 02:26:01 12.3 C 7.93 g/m*3 12.3 C 0 km/h
1815 14-01-2011 02:38:01 12.3 C 7.93 g/m*3 12.3 C 0 km/h
1816 14-01-2011 02:50:01 12.4 C 7.98 g/m*3 12.4 C 0 km/h
1817 14-01-2011 03:02:01 12.2 C 7.88 g/m*3 12.2 C 0 km/h
1818 14-01-2011 03:14:01 12.4 C 7.98 g/m*3 12.4 C 0 km/h
1819 14-01-2011 03:26:02 12.2 C 7.77 g/m*3 12.2 C 0 km/h
1820 14-01-2011 03:38:01 12.2 C 7.77 g/m*3 12.2 C 0 km/h
1821 14-01-2011 03:50:01 12.2 C 7.77 g/m*3 12.2 C 0 km/h
1822 14-01-2011 04:02:02 12.2 C 7.77 g/m*3 12.2 C 0 km/h
1823 14-01-2011 04:14:02 12.2 C 7.88 g/m*3 12.2 C 0 km/h
1824 14-01-2011 04:26:01 12.4 C 7.87 g/m*3 12.4 C 0 km/h
1825 14-01-2011 04:38:01 12.2 C 7.77 g/m*3 12.2 C 0 km/h
Sensor: Nr:Datum:Temp:Abs-Feuchte:Windchill:Wind:
Aussen-T/F 1826 14-01-2011 04:50:01 12.2 C 7.77 g/m*3 12.2 C 0 km/h
1827 14-01-2011 05:02:01 12.1 C 7.83 g/m*3 12.1 C 0 km/h
1828 14-01-2011 05:14:01 12.1 C 7.83 g/m*3 12.1 C 0 km/h
1829 14-01-2011 05:26:01 12.3 C 7.82 g/m*3 12.3 C 0 km/h
1830 14-01-2011 05:38:01 12.5 C 7.81 g/m*3 12.5 C 0 km/h
1831 14-01-2011 05:50:01 12.3 C 7.71 g/m*3 12.3 C 0 km/h
1832 14-01-2011 06:02:01 12.4 C 7.65 g/m*3 12.4 C 0 km/h
1833 14-01-2011 06:14:01 12.6 C 7.63 g/m*3 12.6 C 0 km/h
1834 14-01-2011 06:26:02 12.5 C 7.59 g/m*3 12.5 C 0 km/h
1835 14-01-2011 06:38:01 12.7 C 7.57 g/m*3 12.7 C 0 km/h
1836 14-01-2011 06:50:02 12.6 C 7.63 g/m*3 12.6 C 0 km/h
1837 14-01-2011 07:02:01 12.3 C 7.6 g/m*3 12.3 C 0 km/h
1838 14-01-2011 07:14:01 12.3 C 7.49 g/m*3 12.3 C 0 km/h
1839 14-01-2011 07:26:02 12.4 C 7.43 g/m*3 12.4 C 0 km/h
1840 14-01-2011 07:38:01 12.2 C 7.12 g/m*3 12.2 C 0 km/h
1841 14-01-2011 07:50:01 12.3 C 7.17 g/m*3 12.3 C 0 km/h
1842 14-01-2011 08:02:01 12.1 C 7.08 g/m*3 12.1 C 0 km/h
1843 14-01-2011 08:14:01 12.2 C 7.01 g/m*3 12.2 C 0 km/h
1844 14-01-2011 08:26:02 11.7 C 7.01 g/m*3 11.7 C 0 km/h
1845 14-01-2011 08:38:01 11.2 C 6.89 g/m*3 11.2 C 0 km/h
1846 14-01-2011 08:50:02 11.1 C 6.95 g/m*3 11.1 C 0 km/h
1847 14-01-2011 09:02:01 11.2 C 6.99 g/m*3 11.2 C 0 km/h
1848 14-01-2011 09:14:01 11.4 C 6.77 g/m*3 11.4 C 0 km/h
1849 14-01-2011 09:26:01 11.6 C 6.86 g/m*3 11.6 C 0 km/h
1850 14-01-2011 09:38:01 11.6 C 6.76 g/m*3 11.6 C 0 km/h
Sensor: Nr:Datum:Temp:Abs-Feuchte:Windchill:Wind:
Aussen-T/F 1851 14-01-2011 09:50:01 11.5 C 6.82 g/m*3 11.5 C 0 km/h
1852 14-01-2011 10:02:01 11.8 C 6.84 g/m*3 11.8 C 0 km/h
1853 14-01-2011 10:14:01 11.9 C 6.78 g/m*3 11.9 C 0 km/h
1854 14-01-2011 10:26:01 11.9 C 6.78 g/m*3 11.9 C 0 km/h
1855 14-01-2011 10:38:02 11.3 C 6.53 g/m*3 11.3 C 0 km/h
1856 14-01-2011 10:50:01 11.8 C 6.63 g/m*3 11.8 C 0 km/h
1857 14-01-2011 11:02:02 12 C 6.61 g/m*3 12 C 0 km/h
1858 14-01-2011 11:14:02 11.9 C 6.67 g/m*3 11.9 C 0 km/h
1859 14-01-2011 11:26:01 12 C 6.61 g/m*3 12 C 0 km/h
1860 14-01-2011 11:38:02 12 C 6.61 g/m*3 12 C 0 km/h
1861 14-01-2011 11:50:01 12.2 C 6.58 g/m*3 12.2 C 0 km/h
1862 14-01-2011 12:02:01 12 C 6.5 g/m*3 12 C 0 km/h
1863 14-01-2011 12:14:02 12.2 C 6.58 g/m*3 12.2 C 0 km/h
1864 14-01-2011 12:26:01 12.3 C 6.52 g/m*3 12.3 C 0 km/h
1865 14-01-2011 12:38:01 12.2 C 6.58 g/m*3 12.2 C 0 km/h
1866 14-01-2011 12:50:01 12 C 6.5 g/m*3 12 C 0 km/h
1867 14-01-2011 13:02:01 12 C 6.61 g/m*3 12 C 0 km/h
1868 14-01-2011 13:14:01 12 C 6.71 g/m*3 12 C 0 km/h
1869 14-01-2011 13:26:02 12 C 6.61 g/m*3 12 C 0 km/h
1870 14-01-2011 13:38:01 12 C 6.61 g/m*3 12 C 0 km/h
1871 14-01-2011 13:50:02 12 C 6.61 g/m*3 12 C 0 km/h
1872 14-01-2011 14:02:01 11.8 C 6.74 g/m*3 11.8 C 0 km/h
1873 14-01-2011 14:14:01 11.7 C 6.8 g/m*3 11.7 C 0 km/h
1874 14-01-2011 14:26:02 11.6 C 6.86 g/m*3 11.6 C 0 km/h
1875 14-01-2011 14:38:01 11.5 C 6.82 g/m*3 11.5 C 0 km/h
Sensor: Nr:Datum:Temp:Abs-Feuchte:Windchill:Wind:
Aussen-T/F 1876 14-01-2011 14:50:02 11.6 C 6.86 g/m*3 11.6 C 0 km/h
1877 14-01-2011 15:02:01 11.8 C 6.74 g/m*3 11.8 C 0 km/h
1878 14-01-2011 15:14:01 12 C 6.61 g/m*3 12 C 0 km/h
1879 14-01-2011 15:26:01 12.2 C 6.47 g/m*3 12.2 C 0 km/h
1880 14-01-2011 15:38:02 12.4 C 6.45 g/m*3 12.4 C 0 km/h
1881 14-01-2011 15:50:01 12.2 C 6.47 g/m*3 12.2 C 0 km/h
1882 14-01-2011 16:02:02 12.2 C 6.37 g/m*3 12.2 C 0 km/h
1883 14-01-2011 16:14:02 12.1 C 6.43 g/m*3 12.1 C 0 km/h
1884 14-01-2011 16:26:01 12 C 6.39 g/m*3 12 C 0 km/h
1885 14-01-2011 16:38:01 11.9 C 6.46 g/m*3 11.9 C 0 km/h
1886 14-01-2011 16:50:01 11.6 C 6.34 g/m*3 11.6 C 0 km/h
1887 14-01-2011 17:02:01 11.6 C 6.34 g/m*3 11.6 C 0 km/h
1888 14-01-2011 17:14:01 11.6 C 6.44 g/m*3 11.6 C 0 km/h
1889 14-01-2011 17:26:01 11.5 C 6.3 g/m*3 11.5 C 0 km/h
1890 14-01-2011 17:38:01 11.5 C 6.3 g/m*3 11.5 C 0 km/h
1891 14-01-2011 17:50:01 11.4 C 6.26 g/m*3 11.4 C 0 km/h
1892 14-01-2011 18:02:01 11.2 C 6.28 g/m*3 11.2 C 0 km/h
1893 14-01-2011 18:14:01 11 C 6.31 g/m*3 11 C 0 km/h
1894 14-01-2011 18:26:02 11.3 C 6.32 g/m*3 11.3 C 0 km/h
1895 14-01-2011 18:38:01 10.8 C 6.33 g/m*3 10.8 C 0 km/h
1896 14-01-2011 18:50:02 10.9 C 6.37 g/m*3 10.9 C 0 km/h
1897 14-01-2011 19:02:01 10.8 C 6.33 g/m*3 10.8 C 0 km/h
1898 14-01-2011 19:14:01 10.7 C 6.29 g/m*3 10.7 C 0 km/h
1899 14-01-2011 19:26:01 11 C 6.21 g/m*3 11 C 0 km/h
1900 14-01-2011 19:38:01 11.3 C 6.22 g/m*3 11.3 C 0 km/h
Sensor: Nr:Datum:Temp:Abs-Feuchte:Windchill:Wind:
Aussen-T/F 1901 14-01-2011 19:50:01 11.9 C 6.14 g/m*3 11.9 C 0 km/h
1902 14-01-2011 20:02:01 11.9 C 6.04 g/m*3 11.9 C 0 km/h
1903 14-01-2011 20:14:01 11.8 C 6.1 g/m*3 11.8 C 0 km/h
1904 14-01-2011 20:26:01 11.8 C 6.1 g/m*3 11.8 C 0 km/h
1905 14-01-2011 20:38:02 11.5 C 6.09 g/m*3 11.5 C 0 km/h
1906 14-01-2011 20:50:01 11.4 C 6.06 g/m*3 11.4 C 0 km/h
1907 14-01-2011 21:02:02 11.4 C 6.06 g/m*3 11.4 C 0 km/h
1908 14-01-2011 21:14:02 11.4 C 5.95 g/m*3 11.4 C 0 km/h
1909 14-01-2011 21:26:01 11.4 C 6.06 g/m*3 11.4 C 0 km/h
1910 14-01-2011 21:38:01 11.4 C 5.95 g/m*3 11.4 C 0 km/h
1911 14-01-2011 21:50:01 11.4 C 6.06 g/m*3 11.4 C 0 km/h
1912 14-01-2011 22:04:03 11.2 C 6.08 g/m*3 11.2 C 0 km/h
1913 14-01-2011 22:16:03 11.1 C 6.14 g/m*3 11.1 C 0 km/h
1914 14-01-2011 22:28:03 11.1 C 6.25 g/m*3 11.1 C 0 km/h
1915 14-01-2011 22:40:03 10.6 C 6.34 g/m*3 10.6 C 0 km/h
1916 14-01-2011 22:52:03 10.1 C 6.43 g/m*3 10.1 C 0 km/h
1917 14-01-2011 23:04:03 10 C 6.58 g/m*3 10 C 0 km/h
1918 14-01-2011 23:16:03 9.5 C 6.74 g/m*3 9.5 C 0 km/h
1919 14-01-2011 23:28:03 9.1 C 6.92 g/m*3 9.1 C 0 km/h
1920 14-01-2011 23:40:03 9.1 C 6.92 g/m*3 9.1 C 0 km/h
1921 14-01-2011 23:52:03 8.5 C 6.66 g/m*3 8.5 C 0 km/h
1922 15-01-2011 00:04:03 8.3 C 6.74 g/m*3 8.3 C 0 km/h
1923 15-01-2011 00:16:03 8 C 6.7 g/m*3 8 C 0 km/h
1924 15-01-2011 00:28:03 8.5 C 6.74 g/m*3 8.5 C 0 km/h
1925 15-01-2011 00:40:03 8.1 C 6.49 g/m*3 8.1 C 0 km/h
Sensor: Nr:Datum:Temp:Abs-Feuchte:Windchill:Wind:
Aussen-T/F 1926 15-01-2011 00:52:03 8.2 C 6.53 g/m*3 8.2 C 0 km/h
1927 15-01-2011 01:04:03 8.1 C 6.49 g/m*3 8.1 C 0 km/h
1928 15-01-2011 01:16:03 8.3 C 6.49 g/m*3 8.3 C 0 km/h
1929 15-01-2011 01:28:03 8.5 C 6.32 g/m*3 8.5 C 0 km/h
1930 15-01-2011 01:40:03 8.2 C 6.36 g/m*3 8.2 C 0 km/h
1931 15-01-2011 01:52:03 8 C 6.37 g/m*3 8 C 0 km/h
1932 15-01-2011 02:04:04 8.4 C 6.45 g/m*3 8.4 C 0 km/h
1933 15-01-2011 02:16:04 8.3 C 6.41 g/m*3 8.3 C 0 km/h
1934 15-01-2011 02:28:04 8.1 C 6.32 g/m*3 8.1 C 0 km/h
1935 15-01-2011 02:40:04 7.6 C 6.36 g/m*3 7.6 C 0 km/h
1936 15-01-2011 02:52:04 7.8 C 6.61 g/m*3 7.8 C 0 km/h
1937 15-01-2011 03:04:04 8 C 6.45 g/m*3 8 C 0 km/h
1938 15-01-2011 03:16:04 8.1 C 6.41 g/m*3 8.1 C 0 km/h
1939 15-01-2011 03:28:04 8.4 C 6.62 g/m*3 8.4 C 0 km/h
1940 15-01-2011 03:40:04 8.1 C 6.41 g/m*3 8.1 C 0 km/h
1941 15-01-2011 03:52:04 8 C 6.45 g/m*3 8 C 0 km/h
1942 15-01-2011 04:04:04 7.8 C 6.45 g/m*3 7.8 C 0 km/h
1943 15-01-2011 04:16:04 8 C 6.53 g/m*3 8 C 0 km/h
1944 15-01-2011 04:28:04 8.2 C 6.36 g/m*3 8.2 C 0 km/h
1945 15-01-2011 04:40:04 8.7 C 6.4 g/m*3 8.7 C 0 km/h
1946 15-01-2011 04:52:04 8.4 C 6.28 g/m*3 8.4 C 0 km/h
1947 15-01-2011 05:04:04 8.3 C 6.15 g/m*3 8.3 C 0 km/h
1948 15-01-2011 05:16:04 8.1 C 6.07 g/m*3 8.1 C 0 km/h
1949 15-01-2011 05:28:04 7.7 C 6.24 g/m*3 7.7 C 0 km/h
1950 15-01-2011 05:40:04 8 C 6.12 g/m*3 8 C 0 km/h
Sensor: Nr:Datum:Temp:Abs-Feuchte:Windchill:Wind:
Aussen-T/F 1951 15-01-2011 05:52:04 7.7 C 6.08 g/m*3 7.7 C 0 km/h
1952 15-01-2011 06:04:05 7.5 C 6.24 g/m*3 7.5 C 0 km/h
1953 15-01-2011 06:16:05 6.9 C 6.24 g/m*3 6.9 C 0 km/h
1954 15-01-2011 06:28:05 7.3 C 6.24 g/m*3 7.3 C 0 km/h
1955 15-01-2011 06:40:05 7.6 C 6.2 g/m*3 7.6 C 0 km/h
1956 15-01-2011 06:52:05 7.9 C 6.16 g/m*3 7.9 C 0 km/h
1957 15-01-2011 07:04:05 7.1 C 6.01 g/m*3 7.1 C 0 km/h
1958 15-01-2011 07:16:05 7.3 C 6.24 g/m*3 7.3 C 0 km/h
1959 15-01-2011 07:28:05 7 C 6.2 g/m*3 7 C 0 km/h
1960 15-01-2011 07:40:05 7 C 6.12 g/m*3 7 C 0 km/h
1961 15-01-2011 07:52:05 7 C 6.12 g/m*3 7 C 0 km/h
1962 15-01-2011 08:04:02 7 C 6.12 g/m*3 7 C 0 km/h
1963 15-01-2011 08:16:03 7.1 C 6.08 g/m*3 7.1 C 0 km/h
1964 15-01-2011 08:28:03 8 C 6.28 g/m*3 8 C 0 km/h
1965 15-01-2011 08:40:02 8 C 6.04 g/m*3 8 C 0 km/h
1966 15-01-2011 08:52:03 8.3 C 6.15 g/m*3 8.3 C 0 km/h
1967 15-01-2011 09:04:02 8.2 C 5.95 g/m*3 8.2 C 0 km/h
1968 15-01-2011 09:16:02 7.9 C 5.91 g/m*3 7.9 C 0 km/h
1969 15-01-2011 09:28:02 8.2 C 6.03 g/m*3 8.2 C 0 km/h
1970 15-01-2011 09:40:02 8.5 C 5.98 g/m*3 8.5 C 0 km/h
1971 15-01-2011 09:52:02 8.7 C 6.05 g/m*3 8.7 C 0 km/h
1972 15-01-2011 10:04:01 9.1 C 5.94 g/m*3 9.1 C 0 km/h
1973 15-01-2011 10:16:02 8.9 C 5.96 g/m*3 8.9 C 0 km/h
1974 15-01-2011 10:28:02 9 C 5.91 g/m*3 9 C 0 km/h
1975 15-01-2011 10:40:02 9.1 C 5.86 g/m*3 9.1 C 0 km/h
Sensor: Nr:Datum:Temp:Abs-Feuchte:Windchill:Wind:
Aussen-T/F 1976 15-01-2011 10:52:02 9.2 C 5.89 g/m*3 9.2 C 0 km/h
1977 15-01-2011 11:04:02 9.4 C 5.97 g/m*3 9.4 C 0 km/h
1978 15-01-2011 11:16:02 9.5 C 6.01 g/m*3 9.5 C 0 km/h
1979 15-01-2011 11:28:02 10.1 C 5.96 g/m*3 10.1 C 0 km/h
1980 15-01-2011 11:40:02 10.1 C 5.77 g/m*3 10.1 C 0 km/h
1981 15-01-2011 11:52:02 10.2 C 5.71 g/m*3 10.2 C 0 km/h
1982 15-01-2011 12:04:02 10.2 C 5.8 g/m*3 10.2 C 0 km/h
1983 15-01-2011 12:16:03 10.2 C 5.71 g/m*3 10.2 C 0 km/h
1984 15-01-2011 12:28:03 10.3 C 5.75 g/m*3 10.3 C 0 km/h
1985 15-01-2011 12:40:02 10.2 C 5.71 g/m*3 10.2 C 0 km/h
1986 15-01-2011 12:52:01 10.1 C 5.67 g/m*3 10.1 C 0 km/h
1987 15-01-2011 13:04:01 10.1 C 5.58 g/m*3 10.1 C 0 km/h
1988 15-01-2011 13:16:02 10 C 5.64 g/m*3 10 C 0 km/h
1989 15-01-2011 13:28:02 10 C 5.54 g/m*3 10 C 0 km/h
1990 15-01-2011 13:40:01 10 C 5.54 g/m*3 10 C 0 km/h
1991 15-01-2011 13:52:01 10.1 C 5.58 g/m*3 10.1 C 0 km/h
1992 15-01-2011 14:04:01 10.2 C 5.61 g/m*3 10.2 C 0 km/h
1993 15-01-2011 14:16:02 10 C 5.54 g/m*3 10 C 0 km/h
1994 15-01-2011 14:28:02 10 C 5.54 g/m*3 10 C 0 km/h
1995 15-01-2011 14:40:01 10 C 5.54 g/m*3 10 C 0 km/h
1996 15-01-2011 14:52:01 10 C 5.45 g/m*3 10 C 0 km/h
1997 15-01-2011 15:04:01 9.9 C 5.42 g/m*3 9.9 C 0 km/h
1998 15-01-2011 15:16:02 9.8 C 5.57 g/m*3 9.8 C 0 km/h
1999 15-01-2011 15:28:02 9.6 C 5.5 g/m*3 9.6 C 0 km/h
2000 15-01-2011 15:40:01 9.7 C 5.53 g/m*3 9.7 C 0 km/h
Sensor: Nr:Datum:Temp:Abs-Feuchte:Windchill:Wind:
Aussen-T/F 2001 15-01-2011 15:52:02 9.1 C 5.59 g/m*3 9.1 C 0 km/h
2002 15-01-2011 16:04:02 8.8 C 5.83 g/m*3 8.8 C 0 km/h
2003 15-01-2011 16:16:03 8.7 C 5.71 g/m*3 8.7 C 0 km/h
2004 15-01-2011 16:28:03 8.9 C 5.69 g/m*3 8.9 C 0 km/h
2005 15-01-2011 16:40:02 8.9 C 5.69 g/m*3 8.9 C 0 km/h
2006 15-01-2011 16:52:02 9.2 C 5.63 g/m*3 9.2 C 0 km/h
2007 15-01-2011 17:04:01 8.7 C 5.79 g/m*3 8.7 C 0 km/h
2008 15-01-2011 17:16:01 9.1 C 5.59 g/m*3 9.1 C 0 km/h
2009 15-01-2011 17:28:01 9.2 C 5.54 g/m*3 9.2 C 0 km/h
2010 15-01-2011 17:40:02 9 C 5.64 g/m*3 9 C 0 km/h
2011 15-01-2011 17:52:03 9.1 C 5.68 g/m*3 9.1 C 0 km/h
2012 15-01-2011 18:04:03 9.2 C 5.71 g/m*3 9.2 C 0 km/h
2013 15-01-2011 18:16:01 9.1 C 5.68 g/m*3 9.1 C 0 km/h
2014 15-01-2011 18:28:01 9 C 5.82 g/m*3 9 C 0 km/h
2015 15-01-2011 18:40:02 9 C 5.82 g/m*3 9 C 0 km/h
2016 15-01-2011 18:52:02 8.6 C 5.84 g/m*3 8.6 C 0 km/h
2017 15-01-2011 19:04:02 9.1 C 5.77 g/m*3 9.1 C 0 km/h
2018 15-01-2011 19:16:02 9.3 C 5.66 g/m*3 9.3 C 0 km/h
2019 15-01-2011 19:28:02 9.1 C 5.59 g/m*3 9.1 C 0 km/h
2020 15-01-2011 19:40:02 9.3 C 5.75 g/m*3 9.3 C 0 km/h
2021 15-01-2011 19:52:01 9.1 C 5.68 g/m*3 9.1 C 0 km/h
2022 15-01-2011 20:04:01 9.4 C 5.7 g/m*3 9.4 C 0 km/h
2023 15-01-2011 20:16:02 9.1 C 5.59 g/m*3 9.1 C 0 km/h
2024 15-01-2011 20:28:02 8.6 C 5.67 g/m*3 8.6 C 0 km/h
2025 15-01-2011 20:40:01 8.9 C 5.69 g/m*3 8.9 C 0 km/h
Sensor: Nr:Datum:Temp:Abs-Feuchte:Windchill:Wind:
Aussen-T/F 2026 15-01-2011 20:52:01 8.6 C 5.76 g/m*3 8.6 C 0 km/h
2027 15-01-2011 21:04:01 8.2 C 5.53 g/m*3 8.2 C 0 km/h
2028 15-01-2011 21:16:02 8.1 C 5.57 g/m*3 8.1 C 0 km/h
2029 15-01-2011 21:28:02 8 C 5.54 g/m*3 8 C 0 km/h
2030 15-01-2011 21:40:01 7.8 C 5.71 g/m*3 7.8 C 0 km/h
2031 15-01-2011 21:52:01 8.1 C 5.74 g/m*3 8.1 C 0 km/h
2032 15-01-2011 22:04:01 8.3 C 5.82 g/m*3 8.3 C 0 km/h
2033 15-01-2011 22:16:02 8.5 C 5.98 g/m*3 8.5 C 0 km/h
2034 15-01-2011 22:28:02 8.9 C 5.96 g/m*3 8.9 C 0 km/h
2035 15-01-2011 22:41:03 8.6 C 5.84 g/m*3 8.6 C 0 km/h
2036 15-01-2011 22:53:03 8.7 C 5.88 g/m*3 8.7 C 0 km/h
2037 15-01-2011 23:05:03 8.5 C 5.89 g/m*3 8.5 C 0 km/h
2038 15-01-2011 23:17:03 8.2 C 5.86 g/m*3 8.2 C 0 km/h
2039 15-01-2011 23:29:03 8.7 C 5.88 g/m*3 8.7 C 0 km/h
2040 15-01-2011 23:41:03 8.8 C 5.92 g/m*3 8.8 C 0 km/h
2041 15-01-2011 23:53:03 8.9 C 5.87 g/m*3 8.9 C 0 km/h
2042 16-01-2011 00:05:03 8.7 C 5.97 g/m*3 8.7 C 0 km/h
2043 16-01-2011 00:17:03 8.8 C 5.92 g/m*3 8.8 C 0 km/h
2044 16-01-2011 00:29:03 9 C 5.82 g/m*3 9 C 0 km/h
2045 16-01-2011 00:41:03 9 C 5.73 g/m*3 9 C 0 km/h
2046 16-01-2011 00:53:04 9 C 5.73 g/m*3 9 C 0 km/h
2047 16-01-2011 01:05:04 8.5 C 5.64 g/m*3 8.5 C 0 km/h
2048 16-01-2011 01:17:04 8.6 C 5.76 g/m*3 8.6 C 0 km/h
2049 16-01-2011 01:29:04 8 C 5.7 g/m*3 8 C 0 km/h
2050 16-01-2011 01:41:04 8 C 5.7 g/m*3 8 C 0 km/h
Sensor: Nr:Datum:Temp:Abs-Feuchte:Windchill:Wind:
Aussen-T/F 2051 16-01-2011 01:53:04 8.1 C 5.66 g/m*3 8.1 C 0 km/h
2052 16-01-2011 02:05:04 8.1 C 5.66 g/m*3 8.1 C 0 km/h
2053 16-01-2011 02:17:04 7.8 C 5.71 g/m*3 7.8 C 0 km/h
2054 16-01-2011 02:29:04 7.8 C 5.79 g/m*3 7.8 C 0 km/h
2055 16-01-2011 02:41:04 7.8 C 5.88 g/m*3 7.8 C 0 km/h
2056 16-01-2011 02:53:04 8.3 C 5.82 g/m*3 8.3 C 0 km/h
2057 16-01-2011 03:05:04 8.4 C 5.77 g/m*3 8.4 C 0 km/h
2058 16-01-2011 03:17:04 8.3 C 5.65 g/m*3 8.3 C 0 km/h
2059 16-01-2011 03:29:04 8.2 C 5.69 g/m*3 8.2 C 0 km/h
2060 16-01-2011 03:41:04 7.8 C 5.71 g/m*3 7.8 C 0 km/h
2061 16-01-2011 03:53:04 8 C 5.7 g/m*3 8 C 0 km/h
2062 16-01-2011 04:05:04 7.9 C 5.75 g/m*3 7.9 C 0 km/h
2063 16-01-2011 04:17:04 8.2 C 5.78 g/m*3 8.2 C 0 km/h
2064 16-01-2011 04:29:04 8.5 C 5.72 g/m*3 8.5 C 0 km/h
2065 16-01-2011 04:41:04 8.4 C 5.77 g/m*3 8.4 C 0 km/h
2066 16-01-2011 04:53:05 8.1 C 5.74 g/m*3 8.1 C 0 km/h
2067 16-01-2011 05:05:05 7.9 C 5.83 g/m*3 7.9 C 0 km/h
2068 16-01-2011 05:17:05 7.3 C 5.85 g/m*3 7.3 C 0 km/h
2069 16-01-2011 05:29:05 6.8 C 5.97 g/m*3 6.8 C 0 km/h
2070 16-01-2011 05:41:05 7 C 6.12 g/m*3 7 C 0 km/h
2071 16-01-2011 05:53:05 6.8 C 6.12 g/m*3 6.8 C 0 km/h
2072 16-01-2011 06:05:05 7 C 6.2 g/m*3 7 C 0 km/h
2073 16-01-2011 06:17:05 7.1 C 6.16 g/m*3 7.1 C 0 km/h
2074 16-01-2011 06:29:05 7.5 C 6.16 g/m*3 7.5 C 0 km/h
2075 16-01-2011 06:41:05 7 C 5.89 g/m*3 7 C 0 km/h
Sensor: Nr:Datum:Temp:Abs-Feuchte:Windchill:Wind:
Aussen-T/F 2076 16-01-2011 06:53:05 6.7 C 6 g/m*3 6.7 C 0 km/h
2077 16-01-2011 07:05:05 7.5 C 6.16 g/m*3 7.5 C 0 km/h
2078 16-01-2011 07:17:05 7.8 C 6.12 g/m*3 7.8 C 0 km/h
2079 16-01-2011 07:29:05 7.9 C 6.08 g/m*3 7.9 C 0 km/h
2080 16-01-2011 07:41:05 7.8 C 6.04 g/m*3 7.8 C 0 km/h
2081 16-01-2011 07:53:05 8.4 C 5.94 g/m*3 8.4 C 0 km/h
2082 16-01-2011 08:05:05 8.2 C 5.86 g/m*3 8.2 C 0 km/h
2083 16-01-2011 08:17:05 8.3 C 5.9 g/m*3 8.3 C 0 km/h
2084 16-01-2011 08:29:05 8.3 C 5.82 g/m*3 8.3 C 0 km/h
2085 16-01-2011 08:41:05 8.1 C 5.82 g/m*3 8.1 C 0 km/h
2086 16-01-2011 08:53:05 8.2 C 5.95 g/m*3 8.2 C 0 km/h
2087 16-01-2011 09:05:02 8.3 C 5.98 g/m*3 8.3 C 0 km/h
2088 16-01-2011 09:17:02 8 C 5.87 g/m*3 8 C 0 km/h
2089 16-01-2011 09:29:02 8 C 5.87 g/m*3 8 C 0 km/h
2090 16-01-2011 09:41:02 8 C 5.87 g/m*3 8 C 0 km/h
2091 16-01-2011 09:53:01 7.9 C 5.91 g/m*3 7.9 C 0 km/h
2092 16-01-2011 10:05:02 7.9 C 5.91 g/m*3 7.9 C 0 km/h
2093 16-01-2011 10:17:01 7.9 C 5.91 g/m*3 7.9 C 0 km/h
2094 16-01-2011 10:29:01 7.9 C 5.91 g/m*3 7.9 C 0 km/h
2095 16-01-2011 10:41:01 8 C 5.95 g/m*3 8 C 0 km/h
2096 16-01-2011 10:53:01 8.2 C 5.86 g/m*3 8.2 C 0 km/h
2097 16-01-2011 11:05:02 8.1 C 5.91 g/m*3 8.1 C 0 km/h
2098 16-01-2011 11:17:01 8.1 C 5.91 g/m*3 8.1 C 0 km/h
2099 16-01-2011 11:29:01 8.3 C 5.98 g/m*3 8.3 C 0 km/h
2100 16-01-2011 11:41:02 8.6 C 6.1 g/m*3 8.6 C 0 km/h
Sensor: Nr:Datum:Temp:Abs-Feuchte:Windchill:Wind:
Aussen-T/F 2101 16-01-2011 11:53:01 8.7 C 6.05 g/m*3 8.7 C 0 km/h
2102 16-01-2011 12:05:02 8.6 C 6.1 g/m*3 8.6 C 0 km/h
2103 16-01-2011 12:17:01 8.6 C 6.19 g/m*3 8.6 C 0 km/h
2104 16-01-2011 12:29:01 8.6 C 6.19 g/m*3 8.6 C 0 km/h
2105 16-01-2011 12:41:02 8.7 C 6.14 g/m*3 8.7 C 0 km/h
2106 16-01-2011 12:53:01 8.7 C 6.14 g/m*3 8.7 C 0 km/h
2107 16-01-2011 13:05:02 8.9 C 6.22 g/m*3 8.9 C 0 km/h
2108 16-01-2011 13:17:02 8.9 C 6.22 g/m*3 8.9 C 0 km/h
2109 16-01-2011 13:29:02 8.8 C 6.18 g/m*3 8.8 C 0 km/h
2110 16-01-2011 13:41:01 8.7 C 6.14 g/m*3 8.7 C 0 km/h
2111 16-01-2011 13:53:02 8.8 C 6.18 g/m*3 8.8 C 0 km/h
2112 16-01-2011 14:05:01 8.6 C 6.1 g/m*3 8.6 C 0 km/h
2113 16-01-2011 14:17:02 7.8 C 6.04 g/m*3 7.8 C 0 km/h
2114 16-01-2011 14:29:02 7.5 C 6.24 g/m*3 7.5 C 0 km/h
2115 16-01-2011 14:41:01 8.7 C 6.57 g/m*3 8.7 C 0 km/h
2116 16-01-2011 14:53:02 9.7 C 6.36 g/m*3 9.7 C 0 km/h
2117 16-01-2011 15:05:01 9.9 C 6.26 g/m*3 9.9 C 0 km/h
2118 16-01-2011 15:17:02 10 C 6.11 g/m*3 10 C 0 km/h
2119 16-01-2011 15:29:02 10 C 6.11 g/m*3 10 C 0 km/h
2120 16-01-2011 15:41:01 9.9 C 6.26 g/m*3 9.9 C 0 km/h
2121 16-01-2011 15:53:02 9.8 C 6.4 g/m*3 9.8 C 0 km/h
2122 16-01-2011 16:05:02 9.3 C 6.38 g/m*3 9.3 C 0 km/h
2123 16-01-2011 16:17:02 8.7 C 6.4 g/m*3 8.7 C 0 km/h
2124 16-01-2011 16:29:02 8 C 6.28 g/m*3 8 C 0 km/h
2125 16-01-2011 16:41:02 7.4 C 6.36 g/m*3 7.4 C 0 km/h
Sensor: Nr:Datum:Temp:Abs-Feuchte:Windchill:Wind:
Aussen-T/F 2126 16-01-2011 16:53:02 6.8 C 6.27 g/m*3 6.8 C 0 km/h
2127 16-01-2011 17:05:01 6.3 C 6.14 g/m*3 6.3 C 0 km/h
2128 16-01-2011 17:17:02 6.2 C 6.18 g/m*3 6.2 C 0 km/h
2129 16-01-2011 17:29:02 6 C 6.17 g/m*3 6 C 0 km/h
2130 16-01-2011 17:41:02 5.6 C 6.08 g/m*3 5.6 C 0 km/h
2131 16-01-2011 17:53:02 5.5 C 6.11 g/m*3 5.5 C 0 km/h
2132 16-01-2011 18:05:03 5.1 C 5.95 g/m*3 5.1 C 0 km/h
2133 16-01-2011 18:17:02 5 C 5.91 g/m*3 5 C 0 km/h
2134 16-01-2011 18:29:02 4.8 C 5.9 g/m*3 4.8 C 0 km/h
2135 16-01-2011 18:41:02 4.7 C 5.93 g/m*3 4.7 C 0 km/h
2136 16-01-2011 18:53:02 4.6 C 5.89 g/m*3 4.6 C 0 km/h
2137 16-01-2011 19:05:01 4.5 C 5.85 g/m*3 4.5 C 0 km/h
2138 16-01-2011 19:17:02 4.4 C 5.81 g/m*3 4.4 C 0 km/h
2139 16-01-2011 19:29:03 4.4 C 5.81 g/m*3 4.4 C 0 km/h
2140 16-01-2011 19:41:01 3.9 C 5.68 g/m*3 3.9 C 0 km/h
2141 16-01-2011 19:53:02 3.9 C 5.68 g/m*3 3.9 C 0 km/h
2142 16-01-2011 20:05:02 3.4 C 5.5 g/m*3 3.4 C 0 km/h
2143 16-01-2011 20:17:02 3.7 C 5.61 g/m*3 3.7 C 0 km/h
2144 16-01-2011 20:29:02 3.5 C 5.53 g/m*3 3.5 C 0 km/h
2145 16-01-2011 20:41:03 2.9 C 5.37 g/m*3 2.9 C 0 km/h
2146 16-01-2011 20:53:02 2.8 C 5.34 g/m*3 2.8 C 0 km/h
2147 16-01-2011 21:05:01 2.7 C 5.3 g/m*3 2.7 C 0 km/h
2148 16-01-2011 21:17:02 2.2 C 5.13 g/m*3 2.2 C 0 km/h
2149 16-01-2011 21:29:02 2.7 C 5.3 g/m*3 2.7 C 0 km/h
2150 16-01-2011 21:41:02 2.2 C 5.13 g/m*3 2.2 C 0 km/h
Sensor: Nr:Datum:Temp:Abs-Feuchte:Windchill:Wind:
Aussen-T/F 2151 16-01-2011 21:53:02 2.2 C 5.13 g/m*3 2.2 C 0 km/h
2152 16-01-2011 22:06:04 1.8 C 5.04 g/m*3 1.8 C 0 km/h
2153 16-01-2011 22:18:04 2.8 C 5.4 g/m*3 2.8 C 0 km/h
2154 16-01-2011 22:30:04 1.9 C 5.08 g/m*3 1.9 C 0 km/h
2155 16-01-2011 22:42:04 2.1 C 5.09 g/m*3 2.1 C 0 km/h
2156 16-01-2011 22:54:04 2.2 C 5.18 g/m*3 2.2 C 0 km/h
2157 16-01-2011 23:06:04 2.1 C 5.15 g/m*3 2.1 C 0 km/h
2158 16-01-2011 23:18:04 1.5 C 4.94 g/m*3 1.5 C 0 km/h
2159 16-01-2011 23:30:04 1.5 C 4.94 g/m*3 1.5 C 0 km/h
2160 16-01-2011 23:42:04 1.1 C 4.81 g/m*3 1.1 C 0 km/h
2161 16-01-2011 23:54:04 0.6 C 4.65 g/m*3 0.6 C 0 km/h
2162 17-01-2011 00:06:04 1.2 C 4.84 g/m*3 1.2 C 0 km/h
2163 17-01-2011 00:18:04 1.6 C 5.03 g/m*3 1.6 C 0 km/h
2164 17-01-2011 00:30:04 1.4 C 4.91 g/m*3 1.4 C 0 km/h
2165 17-01-2011 00:42:04 1.4 C 4.91 g/m*3 1.4 C 0 km/h
2166 17-01-2011 00:54:04 1.4 C 4.96 g/m*3 1.4 C 0 km/h
2167 17-01-2011 01:06:04 0.9 C 4.79 g/m*3 0.9 C 0 km/h
2168 17-01-2011 01:18:04 1.2 C 4.89 g/m*3 1.2 C 0 km/h
2169 17-01-2011 01:30:04 1.5 C 4.99 g/m*3 1.5 C 0 km/h
2170 17-01-2011 01:42:04 1.3 C 4.93 g/m*3 1.3 C 0 km/h
2171 17-01-2011 01:54:04 1 C 4.78 g/m*3 1 C 0 km/h
2172 17-01-2011 02:06:04 0.7 C 4.73 g/m*3 0.7 C 0 km/h
2173 17-01-2011 02:18:05 1.5 C 4.99 g/m*3 1.5 C 0 km/h
2174 17-01-2011 02:30:05 1.3 C 4.93 g/m*3 1.3 C 0 km/h
2175 17-01-2011 02:42:05 1 C 4.83 g/m*3 1 C 0 km/h
Sensor: Nr:Datum:Temp:Abs-Feuchte:Windchill:Wind:
Aussen-T/F 2176 17-01-2011 02:54:05 1.1 C 4.86 g/m*3 1.1 C 0 km/h
2177 17-01-2011 03:06:05 1.4 C 4.96 g/m*3 1.4 C 0 km/h
2178 17-01-2011 03:18:05 1.5 C 4.99 g/m*3 1.5 C 0 km/h
2179 17-01-2011 03:30:05 0.9 C 4.85 g/m*3 0.9 C 0 km/h
2180 17-01-2011 03:42:05 0.9 C 4.85 g/m*3 0.9 C 0 km/h
2181 17-01-2011 03:54:05 0.5 C 4.71 g/m*3 0.5 C 0 km/h
2182 17-01-2011 04:06:05 0.2 C 4.57 g/m*3 0.2 C 0 km/h
2183 17-01-2011 04:18:05 -0.1 C 4.47 g/m*3 -0.1 C 0 km/h
2184 17-01-2011 04:30:05 -0.3 C 4.41 g/m*3 -0.3 C 0 km/h
2185 17-01-2011 04:42:05 0.1 C 4.54 g/m*3 0.1 C 0 km/h
2186 17-01-2011 04:54:05 -0.1 C 4.47 g/m*3 -0.1 C 0 km/h
2187 17-01-2011 05:06:05 0.6 C 4.75 g/m*3 0.6 C 0 km/h
2188 17-01-2011 05:18:05 0.5 C 4.71 g/m*3 0.5 C 0 km/h
2189 17-01-2011 05:30:05 -0.2 C 4.44 g/m*3 -0.2 C 0 km/h
2190 17-01-2011 05:42:05 -0.5 C 4.35 g/m*3 -0.5 C 0 km/h
2191 17-01-2011 05:54:05 0 C 4.51 g/m*3 0 C 0 km/h
2192 17-01-2011 06:06:05 -0.3 C 4.41 g/m*3 -0.3 C 0 km/h
2193 17-01-2011 06:18:06 -0.3 C 4.41 g/m*3 -0.3 C 0 km/h
2194 17-01-2011 06:30:06 -0.6 C 4.32 g/m*3 -0.6 C 0 km/h
2195 17-01-2011 06:42:06 -1 C 4.2 g/m*3 -1 C 0 km/h
2196 17-01-2011 06:54:03 -0.9 C 4.23 g/m*3 -0.9 C 0 km/h
2197 17-01-2011 07:06:02 -0.7 C 4.29 g/m*3 -0.7 C 0 km/h
2198 17-01-2011 07:18:02 0.2 C 4.62 g/m*3 0.2 C 0 km/h
2199 17-01-2011 07:30:02 0 C 4.55 g/m*3 0 C 0 km/h
2200 17-01-2011 07:42:02 -0.5 C 4.35 g/m*3 -0.5 C 0 km/h
Sensor: Nr:Datum:Temp:Abs-Feuchte:Windchill:Wind:
Aussen-T/F 2201 17-01-2011 07:54:02 -1 C 4.2 g/m*3 -1 C 0 km/h
2202 17-01-2011 08:06:02 -1 C 4.2 g/m*3 -1 C 0 km/h
2203 17-01-2011 08:18:02 -1 C 4.2 g/m*3 -1 C 0 km/h
2204 17-01-2011 08:30:02 -1.1 C 4.17 g/m*3 -1.1 C 0 km/h
2205 17-01-2011 08:42:03 -0.2 C 4.49 g/m*3 -0.2 C 0 km/h
2206 17-01-2011 08:54:01 0 C 4.55 g/m*3 0 C 0 km/h
2207 17-01-2011 09:06:02 0.4 C 4.68 g/m*3 0.4 C 0 km/h
2208 17-01-2011 09:18:01 0.7 C 4.78 g/m*3 0.7 C 0 km/h
2209 17-01-2011 09:30:01 0.8 C 4.81 g/m*3 0.8 C 0 km/h
2210 17-01-2011 09:42:02 0.9 C 4.85 g/m*3 0.9 C 0 km/h
2211 17-01-2011 09:54:01 0.8 C 4.81 g/m*3 0.8 C 0 km/h
2212 17-01-2011 10:06:02 0.7 C 4.78 g/m*3 0.7 C 0 km/h
2213 17-01-2011 10:18:02 0.7 C 4.78 g/m*3 0.7 C 0 km/h
2214 17-01-2011 10:30:02 0.4 C 4.68 g/m*3 0.4 C 0 km/h
2215 17-01-2011 10:42:01 0.6 C 4.75 g/m*3 0.6 C 0 km/h
2216 17-01-2011 10:54:02 1 C 4.88 g/m*3 1 C 0 km/h
2217 17-01-2011 11:06:01 1 C 4.88 g/m*3 1 C 0 km/h
2218 17-01-2011 11:18:02 1 C 4.88 g/m*3 1 C 0 km/h
2219 17-01-2011 11:30:02 1.7 C 5.12 g/m*3 1.7 C 0 km/h
2220 17-01-2011 11:42:01 2.9 C 5.55 g/m*3 2.9 C 0 km/h
2221 17-01-2011 11:54:02 4.1 C 5.95 g/m*3 4.1 C 0 km/h
2222 17-01-2011 12:06:02 5 C 6.32 g/m*3 5 C 0 km/h
2223 17-01-2011 12:18:02 4.9 C 6.35 g/m*3 4.9 C 0 km/h
2224 17-01-2011 12:30:02 5.4 C 6.49 g/m*3 5.4 C 0 km/h
2225 17-01-2011 12:42:03 5.8 C 6.66 g/m*3 5.8 C 0 km/h
Sensor: Nr:Datum:Temp:Abs-Feuchte:Windchill:Wind:
Aussen-T/F 2226 17-01-2011 12:54:02 6 C 6.68 g/m*3 6 C 0 km/h
2227 17-01-2011 13:06:02 6.3 C 6.81 g/m*3 6.3 C 0 km/h
2228 17-01-2011 13:18:01 6.3 C 6.74 g/m*3 6.3 C 0 km/h
2229 17-01-2011 13:30:01 6 C 6.46 g/m*3 6 C 0 km/h
2230 17-01-2011 13:42:02 5.8 C 6.38 g/m*3 5.8 C 0 km/h
2231 17-01-2011 13:54:02 5.9 C 6.35 g/m*3 5.9 C 0 km/h
2232 17-01-2011 14:06:02 6 C 6.17 g/m*3 6 C 0 km/h
2233 17-01-2011 14:18:02 6.3 C 6.22 g/m*3 6.3 C 0 km/h
2234 17-01-2011 14:30:02 6.5 C 6.15 g/m*3 6.5 C 0 km/h
2235 17-01-2011 14:42:02 6.6 C 5.96 g/m*3 6.6 C 0 km/h
2236 17-01-2011 14:54:02 6.6 C 5.89 g/m*3 6.6 C 0 km/h
2237 17-01-2011 15:06:02 6.7 C 5.85 g/m*3 6.7 C 0 km/h
2238 17-01-2011 15:18:02 6.5 C 5.92 g/m*3 6.5 C 0 km/h
2239 17-01-2011 15:30:02 6.2 C 5.88 g/m*3 6.2 C 0 km/h
2240 17-01-2011 15:42:02 5.8 C 5.87 g/m*3 5.8 C 0 km/h
2241 17-01-2011 15:54:02 5.7 C 5.98 g/m*3 5.7 C 0 km/h
2242 17-01-2011 16:06:03 6.2 C 6.1 g/m*3 6.2 C 0 km/h
2243 17-01-2011 16:18:02 5.6 C 5.94 g/m*3 5.6 C 0 km/h
2244 17-01-2011 16:30:02 6.1 C 6.06 g/m*3 6.1 C 0 km/h
2245 17-01-2011 16:42:02 6.3 C 5.85 g/m*3 6.3 C 0 km/h
2246 17-01-2011 16:54:01 6.7 C 5.85 g/m*3 6.7 C 0 km/h
2247 17-01-2011 17:06:02 6.4 C 5.74 g/m*3 6.4 C 0 km/h
2248 17-01-2011 17:18:01 6.1 C 5.77 g/m*3 6.1 C 0 km/h
2249 17-01-2011 17:30:01 6.3 C 5.85 g/m*3 6.3 C 0 km/h
2250 17-01-2011 17:42:01 6.2 C 5.88 g/m*3 6.2 C 0 km/h
Sensor: Nr:Datum:Temp:Abs-Feuchte:Windchill:Wind:
Aussen-T/F 2251 17-01-2011 17:54:01 6 C 5.88 g/m*3 6 C 0 km/h
2252 17-01-2011 18:06:02 5.9 C 5.98 g/m*3 5.9 C 0 km/h
2253 17-01-2011 18:18:02 6 C 6.02 g/m*3 6 C 0 km/h
2254 17-01-2011 18:30:02 6 C 6.02 g/m*3 6 C 0 km/h
2255 17-01-2011 18:42:01 6 C 6.1 g/m*3 6 C 0 km/h
2256 17-01-2011 18:54:01 6 C 6.1 g/m*3 6 C 0 km/h
2257 17-01-2011 19:06:01 6 C 6.1 g/m*3 6 C 0 km/h
2258 17-01-2011 19:18:02 6.2 C 6.1 g/m*3 6.2 C 0 km/h
2259 17-01-2011 19:30:02 6.3 C 6.07 g/m*3 6.3 C 0 km/h
2260 17-01-2011 19:42:02 6.3 C 6.07 g/m*3 6.3 C 0 km/h
2261 17-01-2011 19:54:03 6.3 C 6.14 g/m*3 6.3 C 0 km/h
2262 17-01-2011 20:06:03 6.5 C 6.15 g/m*3 6.5 C 0 km/h
2263 17-01-2011 20:18:02 6.7 C 6.15 g/m*3 6.7 C 0 km/h
2264 17-01-2011 20:30:02 6.8 C 6.19 g/m*3 6.8 C 0 km/h
2265 17-01-2011 20:42:02 7.3 C 6.24 g/m*3 7.3 C 0 km/h
2266 17-01-2011 20:54:02 7.4 C 6.2 g/m*3 7.4 C 0 km/h
2267 17-01-2011 21:06:02 7.5 C 6.24 g/m*3 7.5 C 0 km/h
2268 17-01-2011 21:18:03 7.9 C 6.32 g/m*3 7.9 C 0 km/h
2269 17-01-2011 21:30:03 8.2 C 6.2 g/m*3 8.2 C 0 km/h
2270 17-01-2011 21:42:02 8.2 C 6.2 g/m*3 8.2 C 0 km/h
2271 17-01-2011 21:54:02 8.4 C 6.19 g/m*3 8.4 C 0 km/h
2272 17-01-2011 22:06:02 8.2 C 6.11 g/m*3 8.2 C 0 km/h
2273 17-01-2011 22:19:04 8.4 C 6.11 g/m*3 8.4 C 0 km/h
2274 17-01-2011 22:31:04 8.2 C 6.11 g/m*3 8.2 C 0 km/h
2275 17-01-2011 22:43:04 8.2 C 6.11 g/m*3 8.2 C 0 km/h
Sensor: Nr:Datum:Temp:Abs-Feuchte:Windchill:Wind:
Aussen-T/F 2276 17-01-2011 22:55:04 8.4 C 6.19 g/m*3 8.4 C 0 km/h
2277 17-01-2011 23:07:04 8.4 C 6.19 g/m*3 8.4 C 0 km/h
2278 17-01-2011 23:19:04 8.6 C 6.27 g/m*3 8.6 C 0 km/h
2279 17-01-2011 23:31:04 8.6 C 6.19 g/m*3 8.6 C 0 km/h
2280 17-01-2011 23:43:04 8.5 C 6.23 g/m*3 8.5 C 0 km/h
2281 17-01-2011 23:55:04 8.7 C 6.31 g/m*3 8.7 C 0 km/h
2282 18-01-2011 00:07:04 8.5 C 6.23 g/m*3 8.5 C 0 km/h
2283 18-01-2011 00:19:04 8.3 C 6.15 g/m*3 8.3 C 0 km/h
2284 18-01-2011 00:31:04 7.5 C 6 g/m*3 7.5 C 0 km/h
2285 18-01-2011 00:43:04 6.9 C 6.08 g/m*3 6.9 C 0 km/h
2286 18-01-2011 00:55:04 7 C 6.2 g/m*3 7 C 0 km/h
2287 18-01-2011 01:07:04 7.4 C 6.36 g/m*3 7.4 C 0 km/h
2288 18-01-2011 01:19:04 7.3 C 6.24 g/m*3 7.3 C 0 km/h
2289 18-01-2011 01:31:05 7.3 C 6.24 g/m*3 7.3 C 0 km/h
2290 18-01-2011 01:43:05 6.6 C 6.04 g/m*3 6.6 C 0 km/h
2291 18-01-2011 01:55:05 5.6 C 5.8 g/m*3 5.6 C 0 km/h
2292 18-01-2011 02:07:05 5.3 C 5.82 g/m*3 5.3 C 0 km/h
2293 18-01-2011 02:19:05 5.1 C 5.81 g/m*3 5.1 C 0 km/h
2294 18-01-2011 02:31:05 5 C 5.84 g/m*3 5 C 0 km/h
2295 18-01-2011 02:43:05 5.3 C 6.03 g/m*3 5.3 C 0 km/h
2296 18-01-2011 02:55:05 5.5 C 6.18 g/m*3 5.5 C 0 km/h
2297 18-01-2011 03:07:05 7 C 6.35 g/m*3 7 C 0 km/h
2298 18-01-2011 03:19:05 6.6 C 6.04 g/m*3 6.6 C 0 km/h
2299 18-01-2011 03:31:05 7.1 C 6.08 g/m*3 7.1 C 0 km/h
2300 18-01-2011 03:43:05 7.6 C 6.12 g/m*3 7.6 C 0 km/h
Sensor: Nr:Datum:Temp:Abs-Feuchte:Windchill:Wind:
Aussen-T/F 2301 18-01-2011 03:55:05 7.2 C 5.89 g/m*3 7.2 C 0 km/h
2302 18-01-2011 04:07:05 6.7 C 5.93 g/m*3 6.7 C 0 km/h
2303 18-01-2011 04:19:05 6.7 C 5.93 g/m*3 6.7 C 0 km/h
2304 18-01-2011 04:31:05 7.4 C 6.04 g/m*3 7.4 C 0 km/h
2305 18-01-2011 04:43:05 7.2 C 5.89 g/m*3 7.2 C 0 km/h
2306 18-01-2011 04:55:05 7.3 C 6 g/m*3 7.3 C 0 km/h
2307 18-01-2011 05:07:05 7.4 C 6.04 g/m*3 7.4 C 0 km/h
2308 18-01-2011 05:19:05 7.6 C 6.12 g/m*3 7.6 C 0 km/h
2309 18-01-2011 05:31:06 7.5 C 5.84 g/m*3 7.5 C 0 km/h
2310 18-01-2011 05:43:06 8 C 5.79 g/m*3 8 C 0 km/h
2311 18-01-2011 05:55:06 7.9 C 5.91 g/m*3 7.9 C 0 km/h
2312 18-01-2011 06:07:06 7.5 C 5.84 g/m*3 7.5 C 0 km/h
2313 18-01-2011 06:19:06 7.6 C 5.96 g/m*3 7.6 C 0 km/h
2314 18-01-2011 06:31:06 6.8 C 5.89 g/m*3 6.8 C 0 km/h
2315 18-01-2011 06:43:06 6.8 C 6.04 g/m*3 6.8 C 0 km/h
2316 18-01-2011 06:55:06 7.6 C 6.12 g/m*3 7.6 C 0 km/h
2317 18-01-2011 07:07:06 7 C 5.81 g/m*3 7 C 0 km/h
2318 18-01-2011 07:19:06 6.6 C 5.96 g/m*3 6.6 C 0 km/h
2319 18-01-2011 07:31:06 7.1 C 6.08 g/m*3 7.1 C 0 km/h
2320 18-01-2011 07:43:06 7.3 C 6.08 g/m*3 7.3 C 0 km/h
2321 18-01-2011 07:55:02 7.7 C 6.24 g/m*3 7.7 C 0 km/h
2322 18-01-2011 08:07:02 7.1 C 5.93 g/m*3 7.1 C 0 km/h
2323 18-01-2011 08:19:01 7.2 C 5.97 g/m*3 7.2 C 0 km/h
2324 18-01-2011 08:31:02 7 C 5.97 g/m*3 7 C 0 km/h
2325 18-01-2011 08:43:02 7.2 C 5.97 g/m*3 7.2 C 0 km/h
Sensor: Nr:Datum:Temp:Abs-Feuchte:Windchill:Wind:
Aussen-T/F 2326 18-01-2011 08:55:01 8 C 6.04 g/m*3 8 C 0 km/h
2327 18-01-2011 09:07:02 8.3 C 6.07 g/m*3 8.3 C 0 km/h
2328 18-01-2011 09:19:01 8.4 C 6.02 g/m*3 8.4 C 0 km/h
2329 18-01-2011 09:31:02 8.4 C 6.02 g/m*3 8.4 C 0 km/h
2330 18-01-2011 09:43:02 8.6 C 6.02 g/m*3 8.6 C 0 km/h
2331 18-01-2011 09:55:02 8.5 C 6.06 g/m*3 8.5 C 0 km/h
2332 18-01-2011 10:07:02 8.6 C 6.1 g/m*3 8.6 C 0 km/h
2333 18-01-2011 10:19:01 8.8 C 6.09 g/m*3 8.8 C 0 km/h
2334 18-01-2011 10:31:02 9 C 5.99 g/m*3 9 C 0 km/h
2335 18-01-2011 10:43:02 8.8 C 6.18 g/m*3 8.8 C 0 km/h
2336 18-01-2011 10:55:02 9 C 6.08 g/m*3 9 C 0 km/h
2337 18-01-2011 11:07:02 9.1 C 6.03 g/m*3 9.1 C 0 km/h
2338 18-01-2011 11:19:02 9.2 C 6.07 g/m*3 9.2 C 0 km/h
2339 18-01-2011 11:31:02 9.1 C 6.03 g/m*3 9.1 C 0 km/h
2340 18-01-2011 11:43:02 8.4 C 6.02 g/m*3 8.4 C 0 km/h
2341 18-01-2011 11:55:02 7.9 C 6.08 g/m*3 7.9 C 0 km/h
2342 18-01-2011 12:07:02 8.8 C 6.27 g/m*3 8.8 C 0 km/h
2343 18-01-2011 12:19:02 9.8 C 6.22 g/m*3 9.8 C 0 km/h
2344 18-01-2011 12:31:01 10 C 5.92 g/m*3 10 C 0 km/h
2345 18-01-2011 12:43:01 9.9 C 5.98 g/m*3 9.9 C 0 km/h
2346 18-01-2011 12:55:02 10 C 5.92 g/m*3 10 C 0 km/h
2347 18-01-2011 13:07:01 9.8 C 6.03 g/m*3 9.8 C 0 km/h
2348 18-01-2011 13:19:01 9.9 C 5.98 g/m*3 9.9 C 0 km/h
2349 18-01-2011 13:31:02 9.8 C 5.94 g/m*3 9.8 C 0 km/h
2350 18-01-2011 13:43:02 9.6 C 6.14 g/m*3 9.6 C 0 km/h
Sensor: Nr:Datum:Temp:Abs-Feuchte:Windchill:Wind:
Aussen-T/F 2351 18-01-2011 13:55:02 9.4 C 6.15 g/m*3 9.4 C 0 km/h
2352 18-01-2011 14:07:02 9.8 C 6.12 g/m*3 9.8 C 0 km/h
2353 18-01-2011 14:19:02 9.6 C 5.86 g/m*3 9.6 C 0 km/h
2354 18-01-2011 14:31:02 9.6 C 5.86 g/m*3 9.6 C 0 km/h
2355 18-01-2011 14:43:02 9.7 C 5.99 g/m*3 9.7 C 0 km/h
2356 18-01-2011 14:55:02 9.9 C 5.88 g/m*3 9.9 C 0 km/h
2357 18-01-2011 15:07:03 10.2 C 5.71 g/m*3 10.2 C 0 km/h
2358 18-01-2011 15:19:02 9.5 C 5.73 g/m*3 9.5 C 0 km/h
2359 18-01-2011 15:31:02 9.1 C 5.68 g/m*3 9.1 C 0 km/h
2360 18-01-2011 15:43:02 9.2 C 5.63 g/m*3 9.2 C 0 km/h
2361 18-01-2011 15:55:01 9.1 C 5.59 g/m*3 9.1 C 0 km/h
2362 18-01-2011 16:07:02 9.1 C 5.5 g/m*3 9.1 C 0 km/h
2363 18-01-2011 16:19:01 8.8 C 5.48 g/m*3 8.8 C 0 km/h
2364 18-01-2011 16:31:01 9.1 C 5.59 g/m*3 9.1 C 0 km/h
2365 18-01-2011 16:43:01 7.8 C 5.96 g/m*3 7.8 C 0 km/h
2366 18-01-2011 16:55:01 7.1 C 6.24 g/m*3 7.1 C 0 km/h
2367 18-01-2011 17:07:01 6.6 C 6.27 g/m*3 6.6 C 0 km/h
2368 18-01-2011 17:19:02 6.5 C 6.37 g/m*3 6.5 C 0 km/h
2369 18-01-2011 17:31:01 6.5 C 6.45 g/m*3 6.5 C 0 km/h
2370 18-01-2011 17:43:01 6.6 C 6.49 g/m*3 6.6 C 0 km/h
2371 18-01-2011 17:55:03 6.5 C 6.52 g/m*3 6.5 C 0 km/h
2372 18-01-2011 18:07:02 6.4 C 6.48 g/m*3 6.4 C 0 km/h
2373 18-01-2011 18:19:02 6.3 C 6.37 g/m*3 6.3 C 0 km/h
2374 18-01-2011 18:31:02 6.1 C 6.21 g/m*3 6.1 C 0 km/h
2375 18-01-2011 18:43:02 6.1 C 6.21 g/m*3 6.1 C 0 km/h
Sensor: Nr:Datum:Temp:Abs-Feuchte:Windchill:Wind:
Aussen-T/F 2376 18-01-2011 18:55:02 5.9 C 6.27 g/m*3 5.9 C 0 km/h
2377 18-01-2011 19:07:02 5.9 C 6.27 g/m*3 5.9 C 0 km/h
2378 18-01-2011 19:19:02 5.9 C 6.27 g/m*3 5.9 C 0 km/h
2379 18-01-2011 19:31:03 5.9 C 6.27 g/m*3 5.9 C 0 km/h
2380 18-01-2011 19:43:03 5.8 C 6.23 g/m*3 5.8 C 0 km/h
2381 18-01-2011 19:55:02 5.8 C 6.23 g/m*3 5.8 C 0 km/h
2382 18-01-2011 20:07:02 5.8 C 6.23 g/m*3 5.8 C 0 km/h
2383 18-01-2011 20:19:02 5.9 C 6.13 g/m*3 5.9 C 0 km/h
2384 18-01-2011 20:31:02 5.8 C 6.02 g/m*3 5.8 C 0 km/h
2385 18-01-2011 20:43:02 5.7 C 5.98 g/m*3 5.7 C 0 km/h
2386 18-01-2011 20:55:02 5.5 C 5.83 g/m*3 5.5 C 0 km/h
2387 18-01-2011 21:07:02 5.3 C 5.75 g/m*3 5.3 C 0 km/h
2388 18-01-2011 21:19:02 5.2 C 5.65 g/m*3 5.2 C 0 km/h
2389 18-01-2011 21:31:01 5.1 C 5.61 g/m*3 5.1 C 0 km/h
2390 18-01-2011 21:43:01 5 C 5.57 g/m*3 5 C 0 km/h
2391 18-01-2011 21:55:02 4.9 C 5.54 g/m*3 4.9 C 0 km/h
2392 18-01-2011 22:08:03 4.8 C 5.57 g/m*3 4.8 C 0 km/h
2393 18-01-2011 22:20:03 4.7 C 5.46 g/m*3 4.7 C 0 km/h
2394 18-01-2011 22:32:03 4.6 C 5.43 g/m*3 4.6 C 0 km/h
2395 18-01-2011 22:44:03 4.6 C 5.49 g/m*3 4.6 C 0 km/h
2396 18-01-2011 22:56:03 4.5 C 5.46 g/m*3 4.5 C 0 km/h
2397 18-01-2011 23:08:04 4.6 C 5.49 g/m*3 4.6 C 0 km/h
2398 18-01-2011 23:20:04 4.6 C 5.43 g/m*3 4.6 C 0 km/h
2399 18-01-2011 23:32:04 4.6 C 5.43 g/m*3 4.6 C 0 km/h
2400 18-01-2011 23:44:04 4.8 C 5.5 g/m*3 4.8 C 0 km/h
Sensor: Nr:Datum:Temp:Abs-Feuchte:Windchill:Wind:
Aussen-T/F 2401 18-01-2011 23:56:04 4.8 C 5.5 g/m*3 4.8 C 0 km/h
2402 19-01-2011 00:08:04 4.7 C 5.46 g/m*3 4.7 C 0 km/h
2403 19-01-2011 00:20:04 4.6 C 5.36 g/m*3 4.6 C 0 km/h
2404 19-01-2011 00:32:04 4.3 C 5.06 g/m*3 4.3 C 0 km/h
2405 19-01-2011 00:44:04 4.1 C 5.06 g/m*3 4.1 C 0 km/h
2406 19-01-2011 00:56:04 4.1 C 5.06 g/m*3 4.1 C 0 km/h
2407 19-01-2011 01:08:04 4 C 4.9 g/m*3 4 C 0 km/h
2408 19-01-2011 01:20:04 4 C 4.83 g/m*3 4 C 0 km/h
2409 19-01-2011 01:32:04 3.8 C 4.71 g/m*3 3.8 C 0 km/h
2410 19-01-2011 01:44:04 3.8 C 4.71 g/m*3 3.8 C 0 km/h
2411 19-01-2011 01:56:04 3.8 C 4.71 g/m*3 3.8 C 0 km/h
2412 19-01-2011 02:08:04 3.8 C 4.64 g/m*3 3.8 C 0 km/h
2413 19-01-2011 02:20:04 3.7 C 4.67 g/m*3 3.7 C 0 km/h
2414 19-01-2011 02:32:04 3.1 C 4.61 g/m*3 3.1 C 0 km/h
2415 19-01-2011 02:44:04 3.2 C 4.7 g/m*3 3.2 C 0 km/h
2416 19-01-2011 02:56:04 3.3 C 4.73 g/m*3 3.3 C 0 km/h
2417 19-01-2011 03:08:04 3.3 C 4.73 g/m*3 3.3 C 0 km/h
2418 19-01-2011 03:20:05 2.9 C 4.78 g/m*3 2.9 C 0 km/h
2419 19-01-2011 03:32:05 2.7 C 4.78 g/m*3 2.7 C 0 km/h
2420 19-01-2011 03:44:05 2.7 C 4.84 g/m*3 2.7 C 0 km/h
2421 19-01-2011 03:56:05 3 C 4.88 g/m*3 3 C 0 km/h
2422 19-01-2011 04:08:05 3 C 4.88 g/m*3 3 C 0 km/h
2423 19-01-2011 04:20:05 3 C 4.88 g/m*3 3 C 0 km/h
2424 19-01-2011 04:32:05 2.8 C 4.93 g/m*3 2.8 C 0 km/h
2425 19-01-2011 04:44:05 2.7 C 4.89 g/m*3 2.7 C 0 km/h
Sensor: Nr:Datum:Temp:Abs-Feuchte:Windchill:Wind:
Aussen-T/F 2426 19-01-2011 04:56:05 2.5 C 4.89 g/m*3 2.5 C 0 km/h
2427 19-01-2011 05:08:05 2.5 C 4.94 g/m*3 2.5 C 0 km/h
2428 19-01-2011 05:20:05 2.5 C 4.94 g/m*3 2.5 C 0 km/h
2429 19-01-2011 05:32:05 2.5 C 4.94 g/m*3 2.5 C 0 km/h
2430 19-01-2011 05:44:05 2.6 C 5.03 g/m*3 2.6 C 0 km/h
2431 19-01-2011 05:56:05 2.7 C 5.07 g/m*3 2.7 C 0 km/h
2432 19-01-2011 06:08:05 2.6 C 4.98 g/m*3 2.6 C 0 km/h
2433 19-01-2011 06:20:05 2.6 C 5.03 g/m*3 2.6 C 0 km/h
2434 19-01-2011 06:32:05 2.6 C 4.98 g/m*3 2.6 C 0 km/h
2435 19-01-2011 06:44:05 2.6 C 4.98 g/m*3 2.6 C 0 km/h
2436 19-01-2011 06:56:05 2.8 C 4.99 g/m*3 2.8 C 0 km/h
2437 19-01-2011 07:08:05 2.8 C 4.87 g/m*3 2.8 C 0 km/h
2438 19-01-2011 07:20:06 2.9 C 4.84 g/m*3 2.9 C 0 km/h
2439 19-01-2011 07:32:06 2.8 C 4.81 g/m*3 2.8 C 0 km/h
2440 19-01-2011 07:44:06 2.9 C 4.9 g/m*3 2.9 C 0 km/h
2441 19-01-2011 07:56:02 2.6 C 4.8 g/m*3 2.6 C 0 km/h
2442 19-01-2011 08:08:02 2.4 C 4.8 g/m*3 2.4 C 0 km/h
2443 19-01-2011 08:20:02 2.3 C 4.82 g/m*3 2.3 C 0 km/h
2444 19-01-2011 08:32:02 2.3 C 4.88 g/m*3 2.3 C 0 km/h
2445 19-01-2011 08:44:02 2.3 C 4.88 g/m*3 2.3 C 0 km/h
2446 19-01-2011 08:56:02 2.7 C 4.95 g/m*3 2.7 C 0 km/h
2447 19-01-2011 09:08:02 2.4 C 4.74 g/m*3 2.4 C 0 km/h
2448 19-01-2011 09:20:03 2.5 C 4.77 g/m*3 2.5 C 0 km/h
2449 19-01-2011 09:32:02 2.7 C 4.84 g/m*3 2.7 C 0 km/h
2450 19-01-2011 09:44:02 2.9 C 4.9 g/m*3 2.9 C 0 km/h
Sensor: Nr:Datum:Temp:Abs-Feuchte:Windchill:Wind:
Aussen-T/F 2451 19-01-2011 09:56:02 3 C 4.82 g/m*3 3 C 0 km/h
2452 19-01-2011 10:08:02 3.1 C 4.85 g/m*3 3.1 C 0 km/h
2453 19-01-2011 10:20:02 2.1 C 4.53 g/m*3 2.1 C 0 km/h
2454 19-01-2011 10:32:03 2 C 4.56 g/m*3 2 C 0 km/h
2455 19-01-2011 10:44:03 2.1 C 4.59 g/m*3 2.1 C 0 km/h
2456 19-01-2011 10:56:02 2.7 C 4.89 g/m*3 2.7 C 0 km/h
2457 19-01-2011 11:08:01 3.1 C 4.85 g/m*3 3.1 C 0 km/h
2458 19-01-2011 11:20:02 3.5 C 4.86 g/m*3 3.5 C 0 km/h
2459 19-01-2011 11:32:02 4 C 4.96 g/m*3 4 C 0 km/h
2460 19-01-2011 11:44:02 3.9 C 4.8 g/m*3 3.9 C 0 km/h
2461 19-01-2011 11:56:02 3.7 C 4.74 g/m*3 3.7 C 0 km/h
2462 19-01-2011 12:08:03 4.1 C 4.67 g/m*3 4.1 C 0 km/h
2463 19-01-2011 12:20:02 4.3 C 4.67 g/m*3 4.3 C 0 km/h
2464 19-01-2011 12:32:02 4.4 C 4.7 g/m*3 4.4 C 0 km/h
2465 19-01-2011 12:44:03 4.6 C 4.57 g/m*3 4.6 C 0 km/h
2466 19-01-2011 12:56:01 4.8 C 4.56 g/m*3 4.8 C 0 km/h
2467 19-01-2011 13:08:02 4.8 C 4.43 g/m*3 4.8 C 0 km/h
2468 19-01-2011 13:20:01 4.7 C 4.4 g/m*3 4.7 C 0 km/h
2469 19-01-2011 13:32:01 5 C 4.28 g/m*3 5 C 0 km/h
2470 19-01-2011 13:44:01 5.2 C 4.34 g/m*3 5.2 C 0 km/h
2471 19-01-2011 13:56:01 5 C 4.28 g/m*3 5 C 0 km/h
2472 19-01-2011 14:08:02 5.3 C 4.3 g/m*3 5.3 C 0 km/h
2473 19-01-2011 14:20:02 5.2 C 4.27 g/m*3 5.2 C 0 km/h
2474 19-01-2011 14:32:01 5.4 C 4.19 g/m*3 5.4 C 0 km/h
2475 19-01-2011 14:44:01 5.5 C 4.21 g/m*3 5.5 C 0 km/h
Sensor: Nr:Datum:Temp:Abs-Feuchte:Windchill:Wind:
Aussen-T/F 2476 19-01-2011 14:56:01 5.4 C 4.26 g/m*3 5.4 C 0 km/h
2477 19-01-2011 15:08:01 5.1 C 4.17 g/m*3 5.1 C 0 km/h
2478 19-01-2011 15:20:02 4.9 C 4.12 g/m*3 4.9 C 0 km/h
2479 19-01-2011 15:32:01 4.9 C 4.12 g/m*3 4.9 C 0 km/h
2480 19-01-2011 15:44:01 4.9 C 4.12 g/m*3 4.9 C 0 km/h
2481 19-01-2011 15:56:02 4.9 C 4.12 g/m*3 4.9 C 0 km/h
2482 19-01-2011 16:08:01 4.9 C 4.12 g/m*3 4.9 C 0 km/h
2483 19-01-2011 16:20:01 4.9 C 4.12 g/m*3 4.9 C 0 km/h
2484 19-01-2011 16:32:02 3.8 C 4.52 g/m*3 3.8 C 0 km/h
2485 19-01-2011 16:44:02 3.8 C 4.52 g/m*3 3.8 C 0 km/h
2486 19-01-2011 16:56:02 3.5 C 4.55 g/m*3 3.5 C 0 km/h
2487 19-01-2011 17:08:02 3.7 C 4.55 g/m*3 3.7 C 0 km/h
2488 19-01-2011 17:20:02 3.5 C 4.49 g/m*3 3.5 C 0 km/h
2489 19-01-2011 17:32:02 3.5 C 4.49 g/m*3 3.5 C 0 km/h
2490 19-01-2011 17:44:02 3.1 C 4.49 g/m*3 3.1 C 0 km/h
2491 19-01-2011 17:56:01 2.9 C 4.67 g/m*3 2.9 C 0 km/h
2492 19-01-2011 18:08:02 2.8 C 4.69 g/m*3 2.8 C 0 km/h
2493 19-01-2011 18:20:01 2.9 C 4.78 g/m*3 2.9 C 0 km/h
2494 19-01-2011 18:32:02 2.6 C 4.69 g/m*3 2.6 C 0 km/h
2495 19-01-2011 18:44:03 3.2 C 4.82 g/m*3 3.2 C 0 km/h
2496 19-01-2011 18:56:02 3.2 C 4.52 g/m*3 3.2 C 0 km/h
2497 19-01-2011 19:08:02 3.4 C 4.46 g/m*3 3.4 C 0 km/h
2498 19-01-2011 19:20:01 3.5 C 4.43 g/m*3 3.5 C 0 km/h
2499 19-01-2011 19:32:02 3.5 C 4.37 g/m*3 3.5 C 0 km/h
2500 19-01-2011 19:44:02 3 C 4.46 g/m*3 3 C 0 km/h
Sensor: Nr:Datum:Temp:Abs-Feuchte:Windchill:Wind:
Aussen-T/F 2501 19-01-2011 19:56:01 2.6 C 4.57 g/m*3 2.6 C 0 km/h
2502 19-01-2011 20:08:02 2.3 C 4.59 g/m*3 2.3 C 0 km/h
2503 19-01-2011 20:20:02 2.2 C 4.62 g/m*3 2.2 C 0 km/h
2504 19-01-2011 20:32:02 2.4 C 4.74 g/m*3 2.4 C 0 km/h
2505 19-01-2011 20:44:02 2.4 C 4.74 g/m*3 2.4 C 0 km/h
2506 19-01-2011 20:56:02 2.5 C 4.77 g/m*3 2.5 C 0 km/h
2507 19-01-2011 21:08:02 2.6 C 4.86 g/m*3 2.6 C 0 km/h
2508 19-01-2011 21:20:02 2.5 C 4.77 g/m*3 2.5 C 0 km/h
2509 19-01-2011 21:32:02 2.4 C 4.74 g/m*3 2.4 C 0 km/h
2510 19-01-2011 21:44:02 2.5 C 4.77 g/m*3 2.5 C 0 km/h
2511 19-01-2011 21:56:02 2.5 C 4.77 g/m*3 2.5 C 0 km/h
2512 19-01-2011 22:08:02 2.4 C 4.74 g/m*3 2.4 C 0 km/h
2513 19-01-2011 22:21:03 2.4 C 4.74 g/m*3 2.4 C 0 km/h
2514 19-01-2011 22:33:03 2.4 C 4.74 g/m*3 2.4 C 0 km/h
2515 19-01-2011 22:45:03 2.4 C 4.74 g/m*3 2.4 C 0 km/h
2516 19-01-2011 22:57:03 2.4 C 4.68 g/m*3 2.4 C 0 km/h
2517 19-01-2011 23:09:03 2.4 C 4.68 g/m*3 2.4 C 0 km/h
2518 19-01-2011 23:21:03 2.4 C 4.74 g/m*3 2.4 C 0 km/h
2519 19-01-2011 23:33:03 2.4 C 4.74 g/m*3 2.4 C 0 km/h
2520 19-01-2011 23:45:03 2.1 C 4.64 g/m*3 2.1 C 0 km/h
2521 19-01-2011 23:57:03 2.1 C 4.64 g/m*3 2.1 C 0 km/h

Legende:
   Min
   Max


Maximal/Minimal-Werte vom 30.12.2010 - 19.01.2011

Sensor Min Max Avg
Temp
(Aussen-T/F)
-9.3 °C
30-12-2010  05:49:01
14.7 °C
08-01-2011  14:22:02
3.92 °C
Abs-Feuchte
(Aussen-T/F)
2.01 g/m*3
30-12-2010  05:49:01
8.57 g/m*3
13-01-2011  16:50:01
5.19 g/m*3
Windchill
(Aussen-T/F)
-9.3 C
30-12-2010  05:49:01
14.7 C
08-01-2011  14:22:02
3.91 C

Die Daten stammen von einer Davis Vantage Pro 2 Wetter-Station und werden unter Linux mit der Software wview2wettercgi und aufbereitet. Alle Angaben erfolgen ohne Gewähr für ihre Vollständigkeit oder Richtigkeit.
Kontakt: Rainer Krienke krienke@uni-koblenz.de . Meine Webseiten an der Uni Koblenz oder privat.
Version: $Revision: 0.78 $